[[[{"header":{"parameterUnit":"kt","parameterCategory":2,"dx":1,"dy":1,"la1":29.587661999999998,"la2":31.0,"lo1":-88.76705300000003,"lo2":-86.6583820000003,"nx":115,"ny":88,"refTime":"2022-10-24T12:00:00:Z","depth":0,"parameterNumber":1,"parameterNumberName":"U-component_of_WINDS"},"data":[0.0,0.0,0.0,0.0,0.0,0.0,0.0,0.0,0.0,0.0305,0.1258,0.316,0.574,0.907,0.941,1.0325,1.1743,1.2013,1.2208,1.2208,1.2208,1.2208,1.2208,1.2208,1.2208,1.2208,1.2208,1.2245,1.2245,1.2758,1.3651,1.4979,1.5128,1.6888,1.8952,1.9756,2.0378,2.1977,2.275,2.275,2.3675,2.37,2.3934,2.3918,2.3918,2.3918,2.3918,2.3918,2.4098,2.475,2.5858,2.8143,3.0435,3.2714,3.3762,3.3536,3.367,3.4791,3.4758,3.4654,3.4588,3.5004,3.5004,3.5004,3.5004,3.5037,3.548,3.548,3.5203,3.5203,3.6051,3.6018,3.6357,3.777,3.8831,3.9556,4.0646,4.1896,4.2828,4.3546,4.4223,4.4488,4.4893,4.4893,4.4893,4.4893,4.4893,4.4893,4.4893,4.4893,4.4893,4.5331,4.5826,4.548,4.5769,4.7251,4.7866,4.8528,4.9477,5.1036,5.2294,5.3202,5.3375,5.3576,5.3596,5.3728,5.4201,5.4572,5.4954,5.6052,5.8204,6.0208,6.1338,6.2554,6.3619,0.0,0.0,0.0,0.0,0.0,0.0,0.0,0.0,0.0,0.1029,0.316,0.6647,0.8315,0.976,1.0833,1.1668,1.2163,1.2201,1.2208,1.2208,1.2208,1.2208,1.2208,1.2208,1.2208,1.2208,1.254,1.2615,1.3021,1.4092,1.5016,1.538,1.6973,1.8956,2.0664,2.1643,2.2357,2.3954,2.4321,2.4452,2.4367,2.4253,2.4104,2.399,2.3918,2.3918,2.3954,2.4228,2.5034,2.6795,2.9906,3.1849,3.3904,3.4356,3.5004,3.5004,3.5004,3.5004,3.5004,3.5004,3.5004,3.5004,3.5004,3.5004,3.5056,3.5414,3.6162,3.6162,3.571,3.5985,3.7309,3.7994,3.8324,3.9084,3.9869,4.0615,4.2086,4.3546,4.4075,4.4541,4.4747,4.4747,4.4893,4.4893,4.4893,4.4893,4.4893,4.4893,4.4952,4.5127,4.5682,4.6317,4.6885,4.7783,4.8446,4.9126,4.9423,5.0091,5.088,5.2297,5.335,5.3424,5.3522,5.365,5.3806,5.3962,5.4387,5.5339,5.649,5.7478,5.9937,6.2408,6.3578,6.4586,6.5658,0.0,0.0,0.0,0.0,0.0,0.0,0.0,0.0,0.1259,0.3502,0.6609,0.8277,0.9835,1.1172,1.1749,1.2201,1.2201,1.2208,1.2208,1.2208,1.2208,1.2208,1.2208,1.2208,1.2276,1.269,1.3246,1.4465,1.576,1.6567,1.7509,1.8601,1.9219,2.0929,2.315,2.3571,2.4221,2.5517,2.5011,2.4607,2.4142,2.4291,2.429,2.5283,2.5695,2.6317,2.6422,2.7111,2.76,2.9268,3.1561,3.3533,3.4839,3.4971,3.5004,3.5004,3.5004,3.5004,3.5004,3.5004,3.5004,3.5004,3.5004,3.548,3.5499,3.7706,3.8451,3.8831,3.8377,3.8356,3.9681,4.0747,4.1178,4.1201,4.1774,4.2321,4.3427,4.437,4.46,4.4893,4.4893,4.4952,4.5181,4.5156,4.5127,4.5127,4.4981,4.4981,4.5331,4.5562,4.6658,4.7531,4.8226,4.9072,4.9905,5.0408,5.0828,5.1632,5.2373,5.3128,5.3473,5.3572,5.3674,5.3781,5.3913,5.4387,5.5441,5.6394,5.7551,5.9754,6.2255,6.4576,6.5585,6.6601,6.735,0.0,0.0,0.0,0.0343,0.0,0.0763,0.0,0.1638,0.3652,0.6271,0.8806,0.9722,1.0789,1.19,1.2163,1.2208,1.2208,1.2208,1.2208,1.2208,1.2208,1.2208,1.2208,1.2245,1.2652,1.3246,1.4428,1.5826,1.7269,1.8391,1.9516,2.0718,2.172,2.2455,2.4427,2.4233,2.4527,2.5256,2.4963,2.4566,2.5,2.5109,2.5425,2.6739,2.7371,2.8089,2.8541,2.9337,2.9647,3.0299,3.1645,3.3114,3.4839,3.4938,3.5004,3.5004,3.5004,3.5004,3.5136,3.5494,3.5822,3.5789,3.6194,3.6181,3.7244,3.9722,4.1262,4.1691,4.1957,4.2018,4.2503,4.3517,4.4252,4.4069,4.398,4.4335,4.4718,4.4835,4.4864,4.4893,4.4893,4.5098,4.5413,4.5476,4.5422,4.5596,4.5773,4.5974,4.6602,4.7449,4.8719,4.9288,4.9878,5.0382,5.0906,5.1476,5.199,5.2725,5.3078,5.3301,5.3572,5.3859,5.4147,5.4099,5.4889,5.6502,5.772,5.8441,6.0249,6.2554,6.4898,6.6451,6.7594,6.7811,6.8598,0.0,0.0,0.0,0.103,0.2704,0.2857,0.3918,0.5693,0.763,0.8844,0.9458,1.1134,1.19,1.2126,1.2208,1.2208,1.2208,1.2208,1.2208,1.2208,1.2208,1.254,1.2502,1.2427,1.3651,1.4532,1.5677,1.7149,1.8401,1.9855,2.09,2.0997,2.2551,2.3679,2.4503,2.4318,2.4639,2.5271,2.5252,2.5569,2.6565,2.7017,2.7301,2.8938,2.9337,2.9544,2.9716,2.9956,3.0334,3.1493,3.2525,3.3266,3.4422,3.5004,3.5004,3.5004,3.5004,3.5216,3.59,3.676,3.7212,3.7802,3.8705,3.9084,4.0149,4.22,4.2624,4.3038,4.3457,4.3636,4.3636,4.4429,4.4776,4.463,4.4541,4.4688,4.5098,4.5389,4.5422,4.5596,4.5769,4.6431,4.6658,4.6602,4.6605,4.8117,4.8529,4.8446,4.9046,4.9984,5.0749,5.1194,5.176,5.2294,5.2496,5.2471,5.3053,5.3301,5.3424,5.365,5.3737,5.4103,5.4543,5.5735,5.6874,5.8549,6.0497,6.2019,6.3664,6.5426,6.6711,6.8336,6.8872,6.885,6.9255,0.0,0.0,0.0,0.1182,0.3122,0.4372,0.6836,0.9571,1.0638,1.1021,1.1091,1.1862,1.2208,1.2208,1.2208,1.2208,1.2208,1.2208,1.2358,1.2358,1.2208,1.3021,1.3763,1.4241,1.5231,1.6817,1.8061,1.8748,2.0147,2.1672,2.2695,2.2731,2.3319,2.3989,2.4224,2.4317,2.4673,2.5695,2.6598,2.7589,2.8399,2.9069,2.9854,3.093,3.1187,3.1951,3.2762,3.2997,3.325,3.3752,3.3919,3.4389,3.4654,3.5004,3.5004,3.5037,3.5236,3.6096,3.7514,3.861,3.8926,3.921,3.9587,4.0972,4.2584,4.3761,4.3927,4.404,4.4541,4.4893,4.4893,4.4923,4.4952,4.4981,4.501,4.501,4.5393,4.5884,4.6171,4.6399,4.6941,4.7644,4.7951,4.784,4.8254,4.9342,4.9878,5.0011,5.0722,5.1934,5.2739,5.3066,5.3587,5.4005,5.3522,5.335,5.3694,5.386,5.3962,5.3899,5.38,5.4332,5.5454,5.6982,5.882,6.1134,6.3286,6.5068,6.615,6.732,6.8522,6.9025,6.908,6.9255,6.9255,0.0,0.0,0.0648,0.1753,0.339,0.5848,0.8882,1.1982,1.2208,1.2208,1.2208,1.2208,1.2208,1.2208,1.2208,1.2208,1.2208,1.2283,1.2509,1.3021,1.3426,1.4503,1.5388,1.616,1.7287,1.8748,2.01,2.0972,2.1997,2.2887,2.3775,2.3918,2.3847,2.3883,2.4124,2.4429,2.5921,2.7191,2.8229,2.9273,3.0176,3.0713,3.1802,3.2649,3.3047,3.3467,3.4237,3.4522,3.4621,3.4872,3.4938,3.4971,3.5004,3.5004,3.5037,3.5089,3.6344,3.7289,3.9524,4.0513,4.0792,4.08,4.1047,4.2575,4.3652,4.4504,4.4747,4.4659,4.4835,4.4893,4.4893,4.5505,4.597,4.6342,4.6743,4.6831,4.7141,4.7505,4.77,4.7922,4.8143,4.8883,4.9878,4.9878,5.0037,5.0407,5.0828,5.1214,5.2029,5.3738,5.4706,5.4871,5.5252,5.5437,5.4994,5.4599,5.4575,5.4569,5.4438,5.4449,5.4804,5.556,5.6456,5.8265,6.0831,6.3364,6.5746,6.6674,6.7494,6.8708,6.9145,6.92,6.9255,6.9255,6.9255,0.0,0.0,0.2171,0.3083,0.3882,0.7521,1.0218,1.2126,1.2208,1.2208,1.2208,1.2208,1.2208,1.2208,1.2208,1.2208,1.2245,1.2427,1.3396,1.4391,1.4979,1.6447,1.7398,1.8097,1.9224,2.0343,2.1335,2.2298,2.3596,2.3918,2.3918,2.3918,2.3918,2.4169,2.4911,2.5921,2.7781,2.9155,3.0219,3.1118,3.2145,3.2484,3.3298,3.3892,3.4503,3.4787,3.5263,3.5494,3.5428,3.5546,3.5381,3.5282,3.5216,3.5103,3.507,3.6051,3.8578,3.9364,4.0525,4.1531,4.1923,4.2175,4.2731,4.3112,4.3821,4.4557,4.5058,4.5214,4.501,4.4981,4.5335,4.6257,4.711,4.7586,4.817,4.8418,4.8692,4.9099,4.9262,4.9477,4.9718,5.0354,5.1373,5.2092,5.2215,5.2568,5.286,5.3226,5.4165,5.5821,5.5958,5.617,5.6342,5.6632,5.6655,5.6297,5.6284,5.6612,5.6183,5.6167,5.6378,5.7003,5.8593,6.058,6.3008,6.5068,6.7057,6.8237,6.8762,6.8872,6.9145,6.9255,6.9255,6.9255,6.9255,0.2778,0.399,0.4749,0.5775,0.7404,0.9992,1.1517,1.2095,1.2208,1.2208,1.2208,1.2208,1.2208,1.2208,1.2208,1.2208,1.2389,1.3426,1.4942,1.5165,1.6382,1.8208,1.9406,2.0136,2.1081,2.2406,2.2995,2.3031,2.3883,2.3918,2.3918,2.3918,2.3918,2.4549,2.6162,2.789,2.9947,3.1448,3.228,3.3116,3.4023,3.4629,3.4803,3.5019,3.5236,3.5631,3.6337,3.6829,3.7155,3.8101,3.8408,3.8377,3.9189,4.0065,4.1515,4.1515,4.2545,4.2028,4.1472,4.1976,4.2474,4.3085,4.3926,4.4299,4.4479,4.4949,4.5521,4.5797,4.5331,4.6113,4.7477,4.8034,4.861,4.8637,4.9045,4.9099,4.9477,5.0488,5.0829,5.1192,5.1502,5.2168,5.2925,5.3567,5.4126,5.4528,5.4971,5.5638,5.6378,5.6677,5.6757,5.6854,5.7008,5.7292,5.7443,5.7751,5.8284,5.853,5.8621,5.8673,5.8951,5.9622,6.1188,6.2925,6.4801,6.6664,6.8509,6.92,6.9091,6.9091,6.9255,6.9255,6.9255,6.9255,6.9255,0.4865,0.6072,0.6791,0.8273,1.0218,1.1712,1.2208,1.2208,1.2208,1.2208,1.2208,1.2208,1.2208,1.254,1.2765,1.3396,1.3688,1.5165,1.6845,1.7251,1.8418,2.0209,2.1443,2.207,2.2623,2.3583,2.3883,2.3775,2.3918,2.3918,2.3918,2.3918,2.4062,2.5248,2.7625,2.9777,3.1934,3.367,3.4391,3.4955,3.5587,3.5658,3.5699,3.5926,3.5985,3.6812,3.8217,3.8325,3.8715,3.9493,3.9587,4.0398,4.1965,4.2804,4.4424,4.463,4.3707,4.3225,4.2575,4.2005,4.2536,4.3879,4.4867,4.5234,4.5898,4.61,4.6859,4.7475,4.7169,4.7644,4.9126,4.9665,5.017,5.017,5.0747,5.0747,5.0929,5.1888,5.2546,5.2942,5.3415,5.4024,5.4706,5.5476,5.5599,5.5844,5.6646,5.74,5.7766,5.7787,5.8021,5.7999,5.8147,5.8242,5.8695,5.9738,6.0419,6.0636,6.0825,6.0988,6.1862,6.2681,6.3735,6.4232,6.6221,6.808,6.8716,6.9255,6.9255,6.9255,6.9255,6.9255,6.9309,6.9352,6.9439,0.6185,0.6412,0.8386,1.0331,1.1975,1.2208,1.2208,1.2208,1.2208,1.2208,1.2208,1.2577,1.2577,1.2983,1.4614,1.5165,1.564,1.726,1.8795,2.0027,2.0718,2.2033,2.3103,2.3511,2.3511,2.3847,2.3918,2.3918,2.3918,2.3918,2.412,2.4156,2.5228,2.6659,2.9622,3.1477,3.3219,3.4696,3.4871,3.5193,3.557,3.5664,3.6542,3.722,3.7733,3.8723,4.0056,4.043,4.0836,4.127,4.1256,4.2026,4.3784,4.463,4.4864,4.4747,4.3094,4.241,4.274,4.2326,4.3613,4.5566,4.6157,4.6526,4.758,4.8697,4.9638,4.9315,4.9477,4.9638,5.0038,5.0776,5.1527,5.214,5.3185,5.3577,5.3553,5.4072,5.4445,5.4817,5.5321,5.579,5.6521,5.7008,5.6898,5.7465,5.8326,5.8782,5.8987,5.9242,5.9655,5.9772,6.0024,6.0121,6.0489,6.1641,6.2284,6.2735,6.2941,6.3105,6.3788,6.5039,6.5588,6.5701,6.7053,6.8452,6.8926,6.9244,6.9255,6.9255,6.9255,6.9557,6.9482,6.9578,6.9949,0.907,1.0444,1.1053,1.1674,1.2201,1.2208,1.2208,1.2208,1.2208,1.2208,1.2321,1.3725,1.4279,1.483,1.6308,1.7186,1.773,1.9151,2.0354,2.1298,2.2298,2.3331,2.3739,2.3918,2.3918,2.3918,2.3918,2.399,2.4098,2.3954,2.4897,2.6275,2.7752,2.9998,3.2712,3.4424,3.5247,3.5519,3.5541,3.5645,3.7327,3.7132,3.7598,3.9127,3.9986,4.1111,4.2424,4.2956,4.3358,4.3726,4.3929,4.4082,4.4512,4.4893,4.4893,4.424,4.3247,4.2242,4.3215,4.4284,4.6328,4.7075,4.7608,4.8351,4.931,5.0965,5.1602,5.127,5.1809,5.2395,5.2496,5.3259,5.3941,5.4032,5.5088,5.5476,5.5553,5.5507,5.5958,5.6521,5.661,5.6765,5.7379,5.7616,5.7957,5.9019,5.9555,5.9734,5.9872,6.014,6.0629,6.0827,6.1142,6.1569,6.2063,6.2424,6.2804,6.3342,6.4223,6.4661,6.5812,6.7268,6.8095,6.7636,6.7877,6.8839,6.9309,6.9428,6.9363,6.9374,6.9928,7.0557,7.0537,7.0767,7.0933,1.1091,1.2208,1.2208,1.2208,1.2208,1.2208,1.2208,1.2208,1.2208,1.2208,1.2358,1.4241,1.5574,1.6678,1.8218,1.9198,1.949,2.1226,2.1961,2.2623,2.3103,2.3775,2.3918,2.3918,2.3954,2.3918,2.3954,2.4049,2.4883,2.5141,2.6473,2.866,3.0359,3.2853,3.4164,3.5123,3.5952,3.6313,3.7034,3.7491,3.8991,3.8777,3.9497,4.1356,4.2402,4.3574,4.5316,4.5631,4.6057,4.635,4.6404,4.5651,4.5191,4.6399,4.6117,4.4906,4.4,4.3876,4.5002,4.7313,4.8722,4.8857,4.9501,5.0667,5.2064,5.2668,5.3169,5.368,5.3757,5.4043,5.4575,5.5553,5.6102,5.626,5.6476,5.6765,5.681,5.6655,5.6964,5.7637,5.7808,5.7936,5.8126,5.8326,5.9363,6.0308,6.0462,6.0591,6.0482,6.061,6.0629,6.0794,6.0944,6.1306,6.1438,6.2326,6.3292,6.4291,6.5355,6.6325,6.7485,6.8948,6.9426,6.9211,6.92,6.9352,6.9471,6.9588,7.002,7.0564,7.1052,7.1443,7.1769,7.207,7.1942,1.2208,1.2208,1.2208,1.2208,1.2208,1.2208,1.2208,1.2245,1.2464,1.2615,1.2983,1.4614,1.6678,1.8365,2.0147,2.119,2.1251,2.3067,2.3475,2.3667,2.3954,2.4133,2.4442,2.4549,2.4491,2.4727,2.5377,2.6098,2.6644,2.7329,2.994,3.3029,3.3255,3.4096,3.5595,3.6911,3.7343,3.8412,3.8831,3.9663,4.0143,4.0674,4.169,4.3628,4.4598,4.5636,4.8062,4.8407,4.8479,4.7796,4.8374,4.8064,4.8339,4.9065,4.8076,4.6691,4.5531,4.6512,4.8004,5.0096,5.078,5.0649,5.1196,5.2811,5.451,5.4385,5.5071,5.6319,5.5128,5.5298,5.6252,5.7227,5.7248,5.7465,5.7787,5.8105,5.8231,5.8042,5.821,5.8814,5.9141,5.9323,5.9503,5.9555,6.0385,6.0443,6.0629,6.0629,6.0629,6.0662,6.0662,6.0719,6.0851,6.1303,6.1336,6.2391,6.4036,6.5265,6.64,6.7657,6.8785,6.9448,7.0079,7.0041,7.0257,6.9843,6.9673,7.0381,7.1072,7.1697,7.2073,7.2203,7.2477,7.3098,7.3133,1.2208,1.2208,1.2208,1.2208,1.2208,1.2208,1.2239,1.2464,1.3718,1.4391,1.4942,1.6484,1.8428,2.0354,2.2033,2.2983,2.3139,2.369,2.3883,2.3918,2.4062,2.4883,2.566,2.6105,2.6669,2.8208,2.7987,2.9046,2.9771,3.0827,3.2768,3.6265,3.5947,3.765,3.9678,4.0011,4.005,4.1046,4.0745,4.1098,4.1993,4.271,4.4084,4.5855,4.7464,4.8668,4.9512,5.049,5.1217,5.0711,5.0912,5.1989,5.2902,5.2674,5.1059,4.898,4.824,4.9315,5.1301,5.2588,5.3313,5.3781,5.457,5.4865,5.6585,5.8326,5.9039,5.7379,5.6499,5.6677,5.7183,5.8063,5.8273,5.87,5.9048,5.9515,5.9806,5.9615,5.9714,5.9885,5.9964,6.0327,6.0385,6.0572,6.0629,6.0629,6.0629,6.0629,6.0662,6.0728,6.0738,6.0824,6.1494,6.2777,6.3277,6.417,6.5063,6.6286,6.7484,6.8573,6.9349,6.9998,7.0725,7.1293,7.1697,7.1506,7.1486,7.1769,7.2052,7.2477,7.2853,7.2976,7.3391,7.4177,7.4468,1.2208,1.2208,1.2208,1.2208,1.2208,1.2208,1.2683,1.3613,1.4718,1.5649,1.6669,1.8501,1.9917,2.1081,2.3055,2.3918,2.4186,2.5226,2.5486,2.5281,2.6503,2.732,2.7861,2.8034,2.8263,2.9294,3.0085,3.1357,3.3989,3.504,3.5763,3.7944,3.8606,4.0107,4.075,4.1938,4.2938,4.3388,4.3238,4.3375,4.4455,4.4822,4.5601,4.7909,4.9367,5.0554,5.1685,5.3125,5.381,5.3417,5.3847,5.5087,5.6394,5.6076,5.4124,5.1534,5.1186,5.2212,5.4102,5.4853,5.5414,5.5973,5.6148,5.6498,5.7382,5.8946,5.9766,5.87,5.8679,5.872,5.8925,5.9302,5.9543,5.9734,6.0022,6.0308,6.0385,6.061,6.0629,6.0629,6.061,6.0553,6.0553,6.0733,6.087,6.1303,6.1737,6.1767,6.1739,6.1797,6.1797,6.1629,6.2889,6.4316,6.5191,6.5959,6.6767,6.7993,6.9176,6.9694,7.0241,7.0797,7.1484,7.2092,7.2441,7.2975,7.3528,7.3477,7.3236,7.3408,7.3627,7.3927,7.4289,7.4973,7.5039,1.2208,1.2283,1.2509,1.2577,1.2727,1.3021,1.4025,1.55,1.5974,1.6854,1.8538,2.0402,2.1371,2.1985,2.3521,2.4442,2.5335,2.6861,2.7598,2.7571,2.9102,2.9969,3.0294,3.0166,3.0776,3.1624,3.1432,3.3993,3.6996,3.8033,3.8662,3.943,4.0298,4.1023,4.2077,4.332,4.4314,4.548,4.5848,4.6417,4.7239,4.6381,4.7503,4.9387,5.0904,5.2058,5.3901,5.5479,5.6151,5.5604,5.6474,5.7298,5.7757,5.764,5.5804,5.4756,5.3942,5.4287,5.5762,5.6458,5.6929,5.7227,5.7354,5.7422,5.8252,5.9675,6.0591,6.0629,6.0482,6.0308,6.0178,6.0482,6.0591,6.0591,6.0553,6.0591,6.0629,6.0629,6.0629,6.0629,6.0988,6.0936,6.097,6.106,6.13,6.2216,6.2921,6.3047,6.3219,6.3754,6.3907,6.4064,6.5011,6.6022,6.6873,6.7562,6.8574,6.9917,7.0605,7.1096,7.1793,7.2454,7.2852,7.294,7.2941,7.3374,7.4079,7.4436,7.4448,7.4417,7.4337,7.4676,7.51,7.5145,7.516,1.2208,1.2389,1.3942,1.4577,1.483,1.6197,1.7131,1.7776,1.9062,1.995,2.0682,2.2322,2.3261,2.3834,2.524,2.6959,2.8487,2.8867,2.9661,3.0029,3.0906,3.2148,3.3192,3.3901,3.417,3.4895,3.5899,3.803,3.9709,3.959,4.0194,4.145,4.2091,4.2856,4.4263,4.5592,4.595,4.6774,4.7187,4.725,4.7495,4.8138,4.9828,5.1628,5.275,5.4049,5.5798,5.7464,5.8064,5.8138,5.832,5.895,5.9512,5.6625,5.528,5.6069,5.4669,5.5766,5.7216,5.8115,5.7861,5.8493,5.8555,5.9048,5.9734,6.0101,6.0629,6.0629,6.0629,6.0629,6.0629,6.0629,6.0629,6.0629,6.0648,6.0667,6.0711,6.0767,6.0805,6.1112,6.1328,6.1584,6.1804,6.1958,6.271,6.3617,6.4881,6.4991,6.5451,6.5922,6.6189,6.6375,6.6717,6.761,6.864,6.9381,7.082,7.1915,7.2312,7.2603,7.331,7.3913,7.4225,7.4389,7.4257,7.4028,7.4614,7.5085,7.4943,7.4862,7.4943,7.5019,7.513,7.5211,7.5226,1.3658,1.3778,1.5023,1.5923,1.6686,1.7951,1.8983,1.9952,2.0916,2.2043,2.3249,2.4291,2.5231,2.6332,2.7379,2.88,3.0666,3.1814,3.2621,3.3011,3.3985,3.5382,3.5884,3.6046,3.6797,3.7814,3.9686,4.0979,4.1486,4.173,4.2954,4.4153,4.5209,4.5979,4.6981,4.8197,4.8754,4.8361,4.8598,4.8483,4.7703,4.9809,5.2102,5.3814,5.5103,5.6131,5.7617,5.9143,5.997,6.0,5.9934,6.0414,6.1078,6.0822,6.0882,5.972,5.9452,6.013,6.0796,5.9845,5.9083,5.9635,5.9734,6.0081,6.0476,6.0629,6.0629,6.0629,6.0629,6.0629,6.0667,6.0629,6.0629,6.0705,6.1035,6.1223,6.126,6.126,6.1595,6.2031,6.2413,6.2734,6.2818,6.3552,6.4213,6.5326,6.6633,6.7268,6.7732,6.8059,6.8335,6.8278,6.8115,6.9343,7.0816,7.1971,7.3449,7.377,7.4026,7.4173,7.4563,7.4629,7.4943,7.5226,7.5226,7.4882,7.5226,7.5226,7.5226,7.5211,7.513,7.5115,7.5211,7.5226,7.5226,1.5842,1.5995,1.6625,1.7653,1.8898,1.9683,2.1078,2.2264,2.2502,2.3865,2.595,2.6246,2.7404,2.8985,2.9479,3.073,3.2654,3.4566,3.5614,3.5869,3.7014,3.8004,3.7886,3.7923,3.8223,3.9153,4.1452,4.3439,4.4227,4.5107,4.5681,4.6568,4.7776,4.8272,4.8785,5.0089,5.0256,4.975,5.0054,5.0015,4.9975,5.1775,5.4297,5.6389,5.6991,5.7944,5.9254,6.0486,6.1335,6.153,6.1335,6.1775,6.3304,6.6548,6.6064,6.4086,6.3577,6.2835,6.2282,6.1244,6.0736,6.0629,6.0534,6.0591,6.061,6.0629,6.0629,6.0629,6.0629,6.0711,6.0824,6.1205,6.1127,6.1227,6.1666,6.2055,6.2107,6.2313,6.272,6.35,6.3775,6.4023,6.4933,6.5749,6.6401,6.7341,6.8861,6.9892,7.0293,7.0522,7.072,7.0438,6.9874,7.1248,7.2478,7.3687,7.4267,7.4059,7.4196,7.4303,7.4918,7.5125,7.5226,7.5226,7.5226,7.5226,7.5226,7.5226,7.5226,7.5226,7.5226,7.5226,7.5226,7.5226,7.5226,1.8597,1.9219,2.0404,2.1307,2.2262,2.378,2.4571,2.4954,2.5069,2.6124,2.7994,2.8282,2.9591,3.1461,3.298,3.388,3.4912,3.6466,3.76,3.7767,3.8635,3.8954,3.9499,3.9906,4.055,4.2123,4.4183,4.5971,4.6837,4.7273,4.7805,4.8961,4.9587,4.9473,4.8838,4.9523,5.0578,5.1027,5.1584,5.1801,5.2353,5.4244,5.6318,5.805,5.8574,5.9399,6.0652,6.1253,6.1836,6.2865,6.1889,6.3804,6.6699,6.9014,6.8456,6.8172,6.5371,6.3917,6.2175,6.118,6.0705,6.0629,6.0686,6.0705,6.0767,6.0866,6.0889,6.0848,6.0895,6.1086,6.1613,6.2123,6.2534,6.2701,6.2817,6.2982,6.3077,6.3717,6.4278,6.5081,6.5427,6.5847,6.6778,6.8001,6.8588,6.9432,7.1218,7.2516,7.2865,7.3155,7.3506,7.3385,7.2432,7.3105,7.2786,7.3491,7.3277,7.3254,7.3512,7.4111,7.4982,7.5134,7.5226,7.5226,7.5226,7.5226,7.5226,7.5226,7.5226,7.5226,7.5226,7.5226,7.5226,7.5226,7.5226,2.0556,2.092,2.1522,2.2375,2.3484,2.471,2.5266,2.543,2.6245,2.7678,2.919,3.0384,3.2195,3.4566,3.5537,3.6621,3.7604,3.8563,3.9066,3.9294,3.9445,3.9673,4.0204,4.192,4.3366,4.4397,4.6298,4.7539,4.8604,4.9108,4.9705,5.0638,5.0687,5.0686,5.1278,5.1821,5.2234,5.2916,5.3406,5.3699,5.4166,5.5818,5.7532,5.8645,5.9771,6.084,6.2192,6.2384,6.3118,6.4216,6.5153,6.6818,6.8805,6.92,6.92,6.8433,6.5376,6.247,6.2719,6.1953,6.1094,6.0705,6.1536,6.1806,6.2001,6.1973,6.1973,6.2001,6.2008,6.2095,6.2517,6.3047,6.3112,6.3241,6.3589,6.3902,6.4039,6.4649,6.5326,6.5788,6.6797,6.7567,6.879,7.0268,7.103,7.1334,7.3048,7.3956,7.4351,7.443,7.5137,7.5027,7.4349,7.3579,7.2986,7.2594,7.2401,7.2387,7.2936,7.4114,7.5053,7.5217,7.5235,7.5226,7.5226,7.5226,7.5317,7.5241,7.5226,7.5332,7.5405,7.5265,7.5235,7.5317,7.5347,2.2545,2.2601,2.2483,2.3163,2.4313,2.5231,2.568,2.5879,2.7616,2.9359,3.0871,3.2425,3.4651,3.7203,3.7539,3.8421,3.9619,3.9845,4.0035,4.011,4.0336,4.0748,4.2068,4.4655,4.6134,4.6722,4.8247,4.9213,4.9545,5.0617,5.1461,5.1546,5.1787,5.2586,5.3626,5.3881,5.4758,5.5555,5.572,5.5845,5.6241,5.7441,5.849,5.8972,6.037,6.1829,6.3072,6.3631,6.456,6.622,6.7815,6.8605,6.9112,6.9255,6.8794,6.7414,6.3983,6.2942,6.4521,6.3453,6.1844,6.1552,6.2364,6.3176,6.3174,6.3165,6.3277,6.3174,6.3075,6.3008,6.3387,6.362,6.3882,6.4049,6.444,6.4813,6.4898,6.5298,6.5623,6.6121,6.7355,6.9084,7.0383,7.2577,7.3141,7.3507,7.4244,7.5124,7.529,7.5241,7.5303,7.5226,7.4313,7.3115,7.2472,7.1901,7.1602,7.1409,7.2815,7.42,7.5127,7.5535,7.5399,7.5317,7.5309,7.5384,7.5556,7.5492,7.5668,7.5654,7.5696,7.5826,7.5866,7.5535,7.5528,2.4824,2.5235,2.4721,2.4898,2.5739,2.73,2.7831,2.8298,2.9786,3.171,3.3485,3.4782,3.6273,3.8528,3.8867,3.9694,3.9997,4.028,4.0204,4.073,4.1846,4.3366,4.4907,4.7236,4.8201,4.857,5.0294,5.0959,5.1294,5.1361,5.1586,5.22,5.3133,5.3747,5.4559,5.5482,5.6876,5.8061,5.8271,5.8344,5.8743,5.9594,6.0074,5.9926,6.0951,6.2133,6.3426,6.4608,6.615,6.8616,6.8992,6.92,6.9255,6.9255,6.8236,6.6033,6.5267,6.5258,6.6697,6.478,6.2949,6.2998,6.3128,6.3176,6.3479,6.3828,6.3949,6.3542,6.2786,6.3358,6.4139,6.501,6.519,6.5195,6.5384,6.5588,6.5601,6.5676,6.5715,6.5871,6.8516,7.1416,7.3514,7.4819,7.494,7.4718,7.5253,7.5674,7.557,7.5785,7.5785,7.5592,7.4496,7.2979,7.2093,7.1606,7.1568,7.1198,7.3006,7.4847,7.5771,7.5925,7.5674,7.5584,7.5738,7.5839,7.5889,7.6077,7.6246,7.632,7.6293,7.6506,7.6603,7.61,7.573,2.5664,2.6757,2.6134,2.6673,2.7958,2.873,2.9053,2.9431,3.0978,3.2605,3.3922,3.5256,3.6898,3.8614,3.9123,3.9541,4.0166,4.1159,4.1566,4.1917,4.3621,4.553,4.7446,4.9327,5.026,5.0419,5.1151,5.2002,5.2734,5.2865,5.3457,5.4203,5.5002,5.582,5.6564,5.7592,5.8633,5.9942,6.0257,6.0313,6.0412,6.099,6.1203,6.1848,6.2158,6.3103,6.4435,6.5738,6.7276,6.8739,6.9255,6.9255,6.9255,6.9255,6.8663,6.7642,6.6876,6.7439,6.8316,6.6011,6.4324,6.4527,6.4642,6.4642,6.4657,6.4848,6.5024,6.4628,6.4484,6.4628,6.514,6.5482,6.5689,6.5796,6.6319,6.6698,6.6698,6.6642,6.6723,6.7569,6.9748,7.2931,7.48,7.5586,7.5742,7.586,7.6182,7.6116,7.5889,7.6284,7.6518,7.6433,7.5728,7.3872,7.2698,7.3617,7.4029,7.2491,7.3666,7.5887,7.653,7.6567,7.6457,7.6383,7.6282,7.6295,7.6494,7.6651,7.6824,7.6938,7.6907,7.6895,7.6721,7.637,7.6064,2.6125,2.7351,2.7403,2.8243,2.9475,3.0128,3.0282,3.0505,3.2222,3.3679,3.4745,3.6135,3.784,3.934,3.9916,4.0471,4.1518,4.2841,4.3491,4.389,4.5957,4.8039,4.9521,5.1212,5.2126,5.22,5.2774,5.3392,5.4432,5.4527,5.507,5.6318,5.6683,5.7653,5.8808,5.9246,6.0143,6.1082,6.1502,6.1777,6.1858,6.216,6.2862,6.3813,6.3861,6.4536,6.5777,6.6781,6.7886,6.9069,6.9255,6.9255,6.9352,7.0388,7.1074,7.0672,6.9819,6.9535,6.9763,6.7818,6.609,6.5877,6.5984,6.6143,6.5822,6.5702,6.5715,6.5715,6.5715,6.5676,6.5689,6.5715,6.5773,6.5953,6.679,6.734,6.736,6.744,6.7576,6.8086,7.0537,7.3144,7.5063,7.61,7.6299,7.6393,7.6745,7.7034,7.6627,7.6755,7.6553,7.6708,7.6539,7.4718,7.3885,7.5379,7.5437,7.3628,7.4484,7.6665,7.7207,7.7244,7.7221,7.7053,7.6768,7.6886,7.703,7.7206,7.7406,7.7598,7.7655,7.7733,7.7385,7.6918,7.6638,2.6636,2.6903,2.8626,2.9578,3.0025,3.1629,3.2321,3.2507,3.4167,3.5828,3.7117,3.8029,3.9399,4.1118,4.2431,4.3196,4.4032,4.4919,4.5601,4.6853,4.9109,5.1112,5.1703,5.3042,5.3722,5.3979,5.5101,5.5944,5.6222,5.6222,5.6288,5.6927,5.825,5.8927,5.951,6.0514,6.1362,6.1807,6.2677,6.321,6.332,6.4275,6.5034,6.5184,6.5197,6.5799,6.6941,6.7345,6.7982,6.9014,6.9364,6.9439,6.9924,7.2888,7.4468,7.4299,7.2839,7.1566,7.081,6.9785,6.863,6.6665,6.7129,6.7343,6.6108,6.5858,6.5715,6.5715,6.5715,6.5728,6.578,6.5741,6.6014,6.64,6.7151,6.7508,6.7469,6.7518,6.7944,6.8872,7.0194,7.239,7.5731,7.6433,7.6689,7.6943,7.749,7.7521,7.7275,7.7144,7.6669,7.6638,7.6891,7.5301,7.3604,7.4951,7.5477,7.442,7.5299,7.7001,7.801,7.7912,7.7846,7.7453,7.7162,7.7412,7.7622,7.777,7.794,7.8068,7.8279,7.8574,7.8358,7.7855,7.7422,2.8019,3.0214,3.0983,3.1883,3.3114,3.4838,3.5561,3.5855,3.7429,3.8483,3.9,3.9403,4.0181,4.13,4.2657,4.3569,4.4324,4.6509,4.8684,5.0933,5.2578,5.3561,5.4622,5.5227,5.5446,5.5602,5.6099,5.6896,5.7892,5.7982,5.8456,5.951,6.0936,6.1687,6.1853,6.307,6.3808,6.3861,6.4327,6.4608,6.468,6.5028,6.5724,6.6397,6.6524,6.7198,6.839,6.8476,6.9033,6.9956,7.0181,7.0537,7.1273,7.3612,7.5226,7.4827,7.3451,7.2622,7.3043,7.0817,6.8948,6.9247,6.7735,6.6665,6.6986,6.6108,6.5751,6.5715,6.5728,6.586,6.6077,6.5915,6.6306,6.7406,6.7809,6.8086,6.8389,6.8428,6.8686,6.892,6.9475,7.1092,7.3944,7.5692,7.7847,7.7675,7.806,7.8202,7.7903,7.8069,7.8053,7.7867,7.7402,7.5984,7.4189,7.4338,7.5117,7.5746,7.608,7.7088,7.815,7.8093,7.8087,7.769,7.7763,7.7995,7.8105,7.8282,7.8316,7.8494,7.8597,7.8704,7.8658,7.8311,7.7968,2.9906,3.2271,3.3412,3.4659,3.592,3.7578,3.8313,3.844,3.9493,4.0367,4.0769,4.0823,4.1404,4.2493,4.3869,4.4827,4.5639,4.8782,5.1812,5.4151,5.4565,5.5258,5.6103,5.6318,5.6652,5.7203,5.8076,5.9193,6.02,6.0766,6.138,6.2428,6.3498,6.3943,6.3965,6.4806,6.5303,6.5384,6.5699,6.592,6.5944,6.634,6.696,6.776,6.7875,6.8225,6.9123,6.9535,7.0057,7.0692,7.107,7.1864,7.3133,7.45,7.5196,7.5062,7.378,7.383,7.4563,7.1837,7.0232,7.0175,6.8284,6.6973,6.708,6.6237,6.5806,6.5964,6.5809,6.6015,6.6563,6.6436,6.6925,6.8348,6.8467,6.8611,6.8867,6.8935,6.9013,6.9013,6.9013,6.9978,7.2439,7.6094,7.8353,7.8265,7.8462,7.8619,7.8187,7.803,7.8031,7.8001,7.7851,7.6766,7.527,7.476,7.596,7.7018,7.6594,7.6841,7.7559,7.7872,7.7999,7.8057,7.8342,7.8538,7.862,7.8665,7.8634,7.8696,7.8711,7.8704,7.8688,7.8486,7.8195,3.222,3.2926,3.5985,3.7289,3.7759,3.9283,4.0025,4.0056,4.0243,4.1315,4.2466,4.2556,4.3288,4.4871,4.6615,4.8075,4.8966,5.1942,5.4596,5.6253,5.6345,5.6499,5.6808,5.7052,5.7807,5.8935,6.1737,6.3067,6.2796,6.3785,6.4484,6.496,6.5066,6.5278,6.5303,6.5551,6.5526,6.5846,6.6739,6.7265,6.7405,6.827,6.8881,6.9036,6.9123,6.9211,6.9276,7.0229,7.082,7.1001,7.1788,7.3202,7.4676,7.5151,7.5226,7.5205,7.5169,7.5134,7.4976,7.3314,7.1081,6.9818,6.8418,6.7199,6.6573,6.6075,6.6027,6.6377,6.6259,6.6271,6.7223,6.742,6.7827,6.8773,6.8908,6.8908,6.9,6.9013,6.9013,6.9013,6.9013,6.9934,7.2446,7.6086,7.8546,7.865,7.8681,7.8673,7.8567,7.7499,7.6692,7.6542,7.6729,7.6617,7.5832,7.5264,7.6804,7.7776,7.6699,7.6063,7.6729,7.6393,7.6393,7.8158,7.8419,7.8644,7.8711,7.8711,7.8711,7.8711,7.8711,7.8711,7.8704,7.8658,7.8358,3.4763,3.5888,3.7063,3.8186,3.9367,4.1047,4.1744,4.1866,4.2865,4.3636,4.4045,4.4158,4.4394,4.5224,4.7209,4.9697,5.279,5.4614,5.6441,5.801,5.8099,5.8633,5.9654,6.0654,6.0885,6.0718,6.236,6.2714,6.2032,6.3213,6.3836,6.4083,6.5801,6.662,6.6786,6.7553,6.7985,6.7976,6.8348,6.855,6.8627,6.8992,6.9255,6.9309,6.9873,7.0249,7.027,7.1249,7.2054,7.2658,7.3046,7.3845,7.5004,7.5226,7.5226,7.5226,7.519,7.4789,7.3687,7.2222,7.0931,7.0077,6.8271,6.7388,6.7906,6.7295,6.7027,6.7233,6.7529,6.7863,6.8058,6.8279,6.8634,6.8901,6.9013,6.9013,6.9013,6.9013,6.9013,6.9013,6.9013,7.0396,7.3095,7.6505,7.83,7.8711,7.8711,7.8711,7.8532,7.7447,7.64,7.64,7.6355,7.5877,7.5869,7.5832,7.6879,7.6542,7.557,7.5346,7.5376,7.4479,7.4815,7.7178,7.8345,7.8599,7.8711,7.8711,7.8711,7.8711,7.8711,7.8711,7.8711,7.8711,7.8634,3.6552,3.761,3.8853,3.9931,4.1131,4.2684,4.3421,4.351,4.4483,4.4893,4.4981,4.5534,4.5992,4.6453,4.7881,5.0622,5.4261,5.5876,5.7411,5.8964,5.9486,6.0168,6.1191,6.2078,6.194,6.123,6.1932,6.2153,6.1887,6.3132,6.4035,6.4782,6.5881,6.6983,6.7853,6.8314,6.8729,6.9134,6.9255,6.9255,6.9178,6.9255,6.9609,7.0298,7.0973,7.1307,7.1327,7.2276,7.3063,7.3642,7.4025,7.4511,7.5166,7.5226,7.5226,7.5119,7.4144,7.3093,7.2062,7.0575,6.9634,6.9485,6.7637,6.6963,6.7787,6.8036,6.7927,6.7918,6.8551,6.886,6.8678,6.8787,6.9006,6.9013,6.9013,6.9013,6.9013,6.9013,6.9013,6.9013,6.9051,7.0284,7.3432,7.6692,7.8636,7.8711,7.8711,7.8412,7.7859,7.6475,7.5682,7.6131,7.5907,7.5682,7.6168,7.6393,7.6206,7.557,7.4591,7.4172,7.4703,7.4142,7.4628,7.6991,7.827,7.8606,7.8711,7.8711,7.8711,7.8711,7.8711,7.8711,7.8711,7.8711,7.8711,3.7566,3.8154,4.117,4.2466,4.2768,4.4217,4.4893,4.501,4.5069,4.5127,4.5509,4.6582,4.7911,4.9165,4.9659,5.1095,5.3998,5.6248,5.8003,5.9453,6.0469,6.1039,6.1047,6.1118,6.1149,6.1048,6.1328,6.1831,6.2737,6.4065,6.5561,6.6583,6.5547,6.6374,6.83,6.7781,6.7892,6.9193,6.9479,6.9449,6.9449,6.9428,7.0381,7.1942,7.2313,7.2384,7.2459,7.3271,7.376,7.3742,7.4656,7.5196,7.5226,7.5226,7.5226,7.4946,7.242,7.0749,7.0433,6.914,6.8204,6.7968,6.722,6.664,6.7031,6.8103,6.8634,6.8295,6.873,6.9006,6.8973,6.8949,6.8969,6.9013,6.9013,6.9013,6.9013,6.9013,6.9013,6.9013,6.9013,7.0172,7.3088,7.6542,7.8307,7.8225,7.83,7.7933,7.658,7.4927,7.4785,7.5458,7.5234,7.4479,7.5944,7.6056,7.6026,7.5047,7.3312,7.2483,7.3581,7.4673,7.5533,7.6617,7.7888,7.8606,7.8674,7.8711,7.8711,7.8711,7.8711,7.8711,7.8711,7.8711,7.8711,3.8217,3.9587,4.1622,4.3218,4.4276,4.4718,4.5534,4.6513,4.6598,4.7195,4.8064,4.7604,4.9065,5.2088,5.4198,5.6464,5.881,5.9575,6.0152,6.0549,6.0859,6.104,6.1165,6.2006,6.1897,6.1173,6.183,6.1949,6.1451,6.2687,6.3543,6.4003,6.4608,6.5645,6.6997,6.793,6.8674,6.9621,7.0899,7.1482,7.1448,7.1448,7.175,7.2311,7.2958,7.3305,7.3322,7.4273,7.4785,7.48,7.507,7.5226,7.5226,7.5226,7.5226,7.5012,7.3014,7.1016,6.9514,6.8979,6.8429,6.773,6.776,6.7782,6.7899,6.8514,6.8894,6.878,6.8908,6.9013,6.9013,6.9013,6.9013,6.9013,6.9013,6.9013,6.9013,6.9013,6.9013,6.9013,6.9013,6.9455,7.0882,7.4927,7.7634,7.5869,7.5383,7.5234,7.5832,7.4112,7.3245,7.5794,7.4897,7.4666,7.5907,7.5533,7.3955,7.2864,7.163,7.1144,7.3394,7.3918,7.4628,7.643,7.7888,7.8636,7.8449,7.8599,7.8711,7.8711,7.8711,7.8711,7.8711,7.8711,7.8711,4.0149,4.1223,4.2858,4.4045,4.4874,4.5011,4.5606,4.6423,4.6533,4.697,4.7785,4.8749,5.064,5.3462,5.5531,5.756,5.9434,5.9971,6.0195,6.0217,6.0649,6.0877,6.0942,6.1711,6.1617,6.0931,6.1877,6.1928,6.1438,6.2387,6.3255,6.3859,6.4682,6.6053,6.7688,6.8686,6.9732,7.0775,7.1794,7.2727,7.3392,7.3494,7.3511,7.3561,7.4028,7.4302,7.4385,7.4882,7.4955,7.4328,7.4277,7.3992,7.335,7.2051,7.1352,7.1281,7.0137,6.9017,6.8036,6.8229,6.8095,6.7518,6.7926,6.8221,6.8246,6.8722,6.9013,6.9013,6.9013,6.9013,6.9013,6.9013,6.9013,6.9013,6.9013,6.9013,6.9013,6.9013,6.9013,6.9013,6.9013,6.9006,6.9686,7.2946,7.4815,7.4441,7.4628,7.5009,7.5189,7.4329,7.4329,7.5645,7.4336,7.3768,7.4815,7.4404,7.3275,7.1742,7.0509,7.0247,7.2534,7.3207,7.4366,7.6206,7.7701,7.8457,7.8045,7.8113,7.8711,7.8711,7.8711,7.8711,7.8711,7.8711,7.7963,4.2617,4.3031,4.4247,4.4927,4.4953,4.5204,4.5429,4.5623,4.5672,4.5741,4.6455,4.9929,5.236,5.3652,5.5033,5.6466,5.7753,5.8596,5.9176,5.931,6.0237,6.0781,6.0804,6.0909,6.0899,6.1064,6.1695,6.2051,6.2003,6.2803,6.3799,6.5,6.5375,6.6804,6.9179,6.9853,7.0838,7.2307,7.2238,7.3076,7.4886,7.5012,7.5098,7.519,7.5226,7.5154,7.486,7.5169,7.4456,7.2879,7.2858,7.208,7.0103,6.7428,6.5787,6.5894,6.5822,6.5884,6.6407,6.6951,6.7381,6.7568,6.8095,6.8357,6.8365,6.8744,6.9013,6.9013,6.9013,6.9013,6.9013,6.9013,6.9013,6.9013,6.9013,6.9013,6.9013,6.9013,6.9013,6.9013,6.9013,6.9013,6.9125,7.0471,7.1854,7.2789,7.3731,7.4441,7.4179,7.4254,7.474,7.5226,7.3768,7.2602,7.32,7.3612,7.2677,7.1362,7.0988,7.1144,7.1668,7.2789,7.3948,7.5077,7.6505,7.7971,7.7477,7.7589,7.8674,7.8711,7.8487,7.8412,7.8457,7.812,7.7028,4.3248,4.4365,4.4801,4.5014,4.5236,4.5394,4.6049,4.707,4.7113,4.7565,4.8573,5.1355,5.3394,5.4707,5.7021,5.8718,5.9793,6.012,6.0269,6.0333,6.119,6.1526,6.1613,6.2279,6.2635,6.2652,6.2818,6.2849,6.29,6.3079,6.3332,6.3727,6.491,6.6167,6.7576,6.9911,7.1702,7.2619,7.1557,7.1787,7.3314,7.3436,7.4007,7.5083,7.5226,7.4634,7.3593,7.4599,7.3956,7.1402,7.2273,7.1009,6.7107,6.6072,6.5715,6.5715,6.5715,6.5764,6.5868,6.6028,6.6858,6.85,6.8766,6.8808,6.8853,6.8929,6.9013,6.9013,6.8976,6.9013,6.9013,6.9013,6.9013,6.9013,6.9013,6.9013,6.9013,6.9013,6.9013,6.9013,6.9013,6.9013,6.9044,6.9343,6.9791,7.0203,7.0396,7.1705,7.317,7.1817,7.2004,7.332,7.3843,7.2946,7.1967,7.1892,7.1256,6.9798,6.9611,7.0135,7.1219,7.2677,7.3693,7.3918,7.6355,7.7485,7.6841,7.7552,7.8337,7.83,7.7522,7.6961,7.6841,7.6094,7.4673,4.4021,4.4333,4.4947,4.5272,4.5368,4.5434,4.6209,4.7474,4.8017,4.8512,4.9299,5.2449,5.4204,5.5066,5.8242,6.0042,6.0648,6.1053,6.1172,6.1245,6.2055,6.2415,6.25,6.2915,6.3176,6.3208,6.3589,6.379,6.3821,6.4154,6.4317,6.4387,6.5152,6.6251,6.7477,6.9869,7.1331,7.178,7.1687,7.2023,7.2879,7.3579,7.4364,7.519,7.5226,7.4813,7.4007,7.4114,7.3364,7.1687,7.1759,7.0653,6.807,6.65,6.4431,6.172,6.2754,6.3501,6.3416,6.3947,6.4978,6.6546,6.7379,6.7562,6.677,6.6695,6.7032,6.7786,6.8602,6.9013,6.9013,6.9013,6.9013,6.9013,6.9013,6.9013,6.9088,6.9051,6.9051,6.9051,6.9051,6.9013,6.9013,6.9013,6.9013,6.9013,6.9006,6.9948,7.2191,7.0658,6.9941,7.2041,7.2086,7.1256,7.0464,7.0277,6.9941,6.9163,6.9013,6.938,7.0091,7.1593,7.2191,7.2048,7.4254,7.557,7.4374,7.5413,7.6281,7.643,7.5682,7.5346,7.5189,7.4591,7.3357,4.4599,4.3888,4.4992,4.5517,4.5506,4.5506,4.6196,4.7353,4.864,4.9267,4.9594,5.3162,5.4836,5.5196,5.8765,6.0432,6.0705,6.1467,6.1827,6.188,6.29,6.3368,6.3368,6.3479,6.3542,6.3589,6.4322,6.4657,6.4763,6.5375,6.5715,6.5702,6.5715,6.6474,6.8029,6.9733,7.0317,6.9939,7.1202,7.1951,7.2223,7.3528,7.4571,7.5296,7.5065,7.4914,7.4975,7.3651,7.2865,7.2671,7.1405,7.116,7.1892,6.8261,6.3119,5.7153,5.8889,6.0367,6.0218,6.1307,6.2359,6.3264,6.5043,6.5325,6.348,6.3262,6.4084,6.5998,6.7892,6.8932,6.8677,6.8602,6.8639,6.8932,6.9013,6.9051,6.9163,6.911,6.9073,6.922,6.9125,6.9051,6.9051,6.9051,6.9051,6.9051,6.9051,6.9492,7.0502,6.9829,6.9679,7.0464,6.9829,6.9125,6.9156,6.9044,6.9081,6.9013,6.9013,6.9044,6.9193,7.0502,7.092,6.9424,7.2079,7.317,7.1929,7.2677,7.3955,7.4224,7.3806,7.3506,7.3469,7.3163,7.2198,4.4354,4.517,4.5371,4.5579,4.5636,4.5608,4.6289,4.755,4.9434,0.0,0.0,5.3335,5.4894,5.6242,5.8057,5.9511,6.0705,6.1467,6.1827,6.1915,6.3558,6.4328,6.4322,6.4947,6.5258,6.5285,6.5442,6.5495,6.5522,6.5627,6.5715,6.5715,6.5715,6.6487,6.8029,6.9733,6.9247,6.6714,6.6821,6.7593,6.8827,6.9148,7.1457,7.5923,7.4287,7.3564,7.4052,7.3319,7.2574,7.1837,7.1425,7.3798,7.9158,7.1874,6.4037,5.7076,5.6881,5.7384,5.7912,5.8668,5.9339,5.9894,6.2689,6.315,6.019,5.996,6.1162,6.4159,6.7219,6.8446,6.7045,6.6926,6.7449,6.8857,6.9013,6.9051,6.9145,6.9165,6.9118,6.9323,6.9301,6.9326,6.9315,6.924,6.9163,6.9163,6.9088,6.9187,6.9299,6.9231,6.9156,6.9492,6.9306,6.9013,6.9013,6.9013,6.9013,6.9013,6.9013,6.9013,6.9193,7.0277,7.0621,6.9275,7.1705,7.2714,7.1817,7.249,7.3761,7.3873,7.2789,7.178,7.1668,7.0808,6.9829,4.4147,4.4859,4.5463,4.5723,0.0,4.6342,4.7199,4.8326,4.9881,5.1066,5.1982,5.3412,5.4446,5.527,5.6749,5.8004,5.9031,5.9892,6.0906,6.2054,6.3354,6.4342,6.5113,6.5522,6.5715,6.5715,6.5715,6.5715,6.5715,6.5715,6.5715,6.5715,6.5715,6.6487,6.7994,6.8092,6.7321,6.5715,6.6487,6.7272,6.8029,6.8899,7.0618,7.3178,7.227,0.0,0.0,0.0,0.0,0.0,0.0,0.0,0.0,6.8078,6.1932,5.6747,5.6346,5.6785,5.775,5.814,5.8526,5.9069,5.9787,5.9195,5.6826,5.6639,5.8321,6.2402,6.5013,6.6097,6.5281,6.5212,6.5543,6.6321,6.6489,6.6601,6.6865,6.7588,6.8149,6.8343,6.8966,6.9415,6.9415,6.9339,6.9274,6.9191,6.9163,6.9088,6.9013,6.9013,6.9013,6.9013,6.9013,6.9013,6.9013,6.9013,6.9013,6.9013,6.9013,6.9013,6.9013,6.9679,6.9948,6.9374,7.024,7.1175,7.039,7.0808,7.1406,7.1331,7.0733,7.0203,7.0128,6.9567,6.9013,4.4141,4.4531,4.5484,4.5843,4.5961,4.7099,4.8233,4.934,5.0344,5.1219,5.1982,5.3116,5.3772,5.4135,5.5542,5.6584,5.7386,5.8445,5.9956,6.1789,6.2872,6.4061,6.5251,6.5573,6.5715,6.5715,6.5715,6.5537,6.5287,6.5287,6.5251,6.5251,6.5251,6.6023,6.7437,0.0,0.0,0.0,6.6937,6.7579,6.7615,6.9035,7.0073,7.0722,7.0431,0.0,7.0243,6.853,6.7646,6.7734,6.6292,0.0,0.0,0.0,0.0,0.0,0.0,0.0,0.0,0.0,0.0,0.0,5.5602,5.4769,5.384,5.4032,5.6046,6.0253,6.2128,6.2888,6.2614,6.2571,6.2839,6.3455,6.368,6.3958,6.4538,6.5766,6.669,6.6836,6.8096,6.9037,6.9024,6.9296,6.9402,6.9373,6.9282,6.9163,6.9051,6.9013,6.9013,6.9013,6.9013,6.9013,6.9013,6.9013,6.9013,6.9013,6.9013,6.9013,6.9013,6.9044,6.9006,6.9006,6.9013,6.9081,6.9051,6.9013,6.92,6.9013,6.9051,6.9013,6.9013,6.9006,6.9013,4.4722,4.5683,4.5822,4.5843,4.5978,4.7468,4.8968,5.0393,5.132,5.1801,5.1916,5.2097,5.2853,5.407,5.4936,5.608,5.7435,5.9001,5.9872,6.0289,6.2375,6.3442,6.3728,6.506,6.5715,6.5715,6.5715,6.4989,6.3705,6.3669,6.3669,6.3656,6.3669,6.4454,6.5822,6.3088,6.3016,6.568,6.5894,6.6036,6.6001,6.663,6.8399,7.1174,6.9967,6.9279,6.9326,6.7187,6.6299,6.6875,6.5423,6.251,5.8088,5.7326,5.7144,0.0,5.5638,0.0,0.0,0.0,0.0,0.0,0.0,0.0,0.0,5.3396,5.5095,5.7207,5.8778,5.9158,5.7773,5.7692,5.8847,6.1701,6.2203,6.2922,6.4466,6.4875,6.5103,6.5208,6.6696,6.7693,6.7845,6.8916,6.9723,6.9695,6.9427,6.9178,6.9163,6.9051,6.9013,6.9013,6.9013,6.9013,6.9013,6.9013,6.9013,6.9013,6.9013,6.9013,6.9013,6.9013,6.9013,6.9013,6.9013,6.9013,6.9013,6.9013,6.9013,6.9013,6.9013,6.9013,6.9013,6.9013,6.9013,4.3357,4.3869,4.4277,4.4784,4.5335,4.65,4.7387,4.8112,4.9088,4.9547,4.9514,4.9514,5.0079,5.1011,5.1389,5.2278,5.3636,5.5259,5.6717,5.8018,5.9886,6.1244,6.2148,6.3669,6.3967,6.3172,6.4291,6.3884,6.2149,6.2378,6.239,6.2089,6.2041,6.3143,6.5067,6.2749,6.2146,6.3561,6.4131,6.4966,6.609,6.6732,6.7724,6.9179,6.8199,6.7619,6.7657,6.6446,6.5086,6.3703,6.2933,6.0651,5.6618,5.6346,5.6006,0.0,0.0,0.0,0.0,0.0,0.0,0.0,0.0,0.0,0.0,0.0,5.4385,5.2709,5.5041,5.5957,5.4326,5.4988,5.6178,5.7645,5.8802,5.9375,5.9264,6.0935,6.2188,6.2226,6.4466,6.6744,6.8604,6.8642,6.8776,6.9679,6.9525,6.8999,6.8299,6.8626,6.9013,6.9013,6.9013,6.9013,6.9013,6.9013,6.9013,6.9013,6.9013,6.9013,6.9013,6.9013,6.9013,6.9013,6.9013,6.9013,6.9013,6.9013,6.9013,6.9013,6.9013,6.9013,6.9013,6.9013,6.9013,4.2452,4.2427,4.2133,4.2615,4.3626,4.4512,4.5094,4.5509,4.6276,4.6604,4.6619,4.7139,4.7418,4.7536,4.7812,4.8704,5.0056,5.1419,5.3207,5.5336,5.7249,5.8864,6.0183,6.2068,6.2426,6.15,6.2615,6.2149,6.0281,6.0229,6.0446,6.0734,6.0018,6.085,6.3046,6.1622,6.1011,6.141,6.2582,6.4132,6.6053,6.7131,6.7566,6.744,6.6587,6.5877,6.5367,6.4841,6.3157,6.0126,5.9924,5.8888,5.6488,5.4955,0.0,0.0,0.0,0.0,0.0,0.0,0.0,0.0,0.0,4.0539,3.8406,0.0,5.0503,0.0,5.0156,5.2064,5.1546,5.2692,0.0,0.0,5.5331,5.5696,5.4443,5.6986,5.8733,5.8315,6.1504,6.4731,6.7275,6.7503,6.788,6.9048,6.9024,6.8559,6.7837,6.847,6.9013,6.9013,6.9013,6.9013,6.9013,6.9013,6.9013,6.9013,6.9013,6.9013,6.9013,6.9013,6.9013,6.9013,6.9013,6.9013,6.9013,6.9013,6.8857,6.8483,6.8745,6.9013,6.9013,6.9013,6.9013,4.3276,4.2939,3.9571,3.8981,4.0325,4.1194,4.2353,4.3553,4.3655,4.3683,4.3823,4.5703,4.5803,4.4557,4.5626,0.0,4.8458,4.9242,5.0533,5.2184,5.518,5.6872,5.7626,6.0508,6.2053,6.2201,6.0986,5.9515,5.7798,5.6411,5.725,5.9972,5.7156,5.6541,5.8209,5.8138,5.8772,6.0218,6.182,6.343,6.5041,6.7079,6.7935,6.7413,6.5877,6.4156,6.2291,6.1698,5.997,5.6965,5.6744,5.665,5.6228,0.0,0.0,0.0,0.0,0.0,0.0,0.0,0.0,0.0,0.0,0.0,0.0,0.0,0.0,4.0256,4.3425,0.0,4.9488,4.9996,0.0,0.0,0.0,5.281,5.2696,5.4291,5.4822,5.3266,0.0,0.0,6.0821,6.4731,6.7503,6.7611,6.7499,6.7843,6.9051,6.9139,6.9163,6.9013,6.9013,6.9013,6.9013,6.9013,6.8969,6.8864,6.9013,6.8789,6.8789,6.882,6.8938,6.8789,6.8976,6.8894,6.8938,6.8707,6.8483,6.6889,6.7817,6.8894,6.8751,6.8707,6.8707,4.0975,3.9867,3.8838,3.8383,3.8436,3.9711,4.0768,4.1625,4.2605,4.2978,4.3058,4.3886,4.3367,4.1961,4.2796,0.0,0.0,0.0,4.7806,4.9198,5.1652,5.3262,5.4357,5.6712,5.7443,5.6676,5.7222,5.6515,5.4682,5.4334,5.4443,5.4897,0.0,5.3884,5.8357,5.6311,5.6438,5.8946,6.0356,6.1875,6.3525,6.6309,6.7183,6.5947,6.4956,6.3626,6.1892,6.1338,5.9567,5.6524,5.6362,5.4642,0.0,0.0,0.0,0.0,0.0,0.0,0.0,0.0,0.0,0.0,0.0,2.9537,2.7227,0.0,0.0,0.0,3.9397,4.239,4.369,4.6563,0.0,0.0,0.0,0.0,0.0,0.0,0.0,4.5483,5.2051,5.7784,5.9834,6.1808,6.2643,6.1618,6.4775,6.6968,6.6544,0.0,6.9051,6.9013,6.9013,6.9013,6.9013,6.9013,6.867,6.7674,6.6664,6.5985,6.5985,6.5985,6.5991,6.5948,6.5985,6.5948,6.5948,6.5162,6.4527,6.4907,6.5505,6.5948,6.5948,6.5948,6.6284,3.8064,0.0,0.0,0.0,0.0,3.7287,3.8067,3.8581,3.9267,4.0052,4.0873,4.1043,0.0,0.0,0.0,0.0,0.0,0.0,4.5262,4.6345,4.8609,4.9985,5.0632,5.2442,5.2774,5.1838,5.3222,5.2956,5.1196,5.0934,5.0656,5.0288,0.0,0.0,0.0,0.0,5.4795,5.7122,5.9388,6.1213,6.2759,6.549,6.6327,6.4985,6.3106,6.1841,6.1157,5.9361,5.7325,5.5122,5.3632,0.0,0.0,0.0,0.0,0.0,0.0,0.0,0.0,0.0,0.0,0.0,0.0,0.0,0.0,0.0,0.0,0.0,0.0,0.0,3.8307,4.2446,4.5369,0.0,0.0,0.0,0.0,0.0,0.0,0.0,0.0,0.0,5.767,5.7556,5.7252,0.0,0.0,6.4186,6.388,6.5628,6.7129,6.7511,6.7555,0.0,6.8184,6.7892,6.7293,6.6596,6.5057,6.4122,6.4614,6.4271,6.4122,6.4652,6.3935,6.2776,6.1542,6.0576,6.0651,6.1579,6.2246,6.2546,6.2589,6.2589,6.3075,0.0,0.0,0.0,0.0,3.3172,0.0,0.0,0.0,3.2554,3.3668,0.0,3.688,0.0,0.0,0.0,0.0,4.0518,4.2001,0.0,0.0,4.6594,4.7489,4.6591,4.8121,4.8997,4.9263,4.9385,4.8568,4.69,4.5372,4.5427,0.0,0.0,0.0,0.0,0.0,5.4278,5.4535,5.9103,6.2075,6.3106,6.4855,6.5459,6.4846,6.0064,5.8125,5.9283,5.4783,5.2016,5.1832,4.7096,0.0,0.0,0.0,0.0,0.0,0.0,0.0,0.0,0.0,0.0,0.0,0.0,0.0,0.0,0.0,0.0,0.0,0.0,0.0,0.0,3.7586,0.0,0.0,0.0,0.0,0.0,0.0,0.0,0.0,0.0,5.095,5.3114,5.1709,5.2051,5.6873,0.0,0.0,0.0,0.0,6.2718,6.3948,6.4122,6.4726,6.6297,6.5206,6.4689,6.6191,0.0,0.0,6.6035,6.4951,6.4234,6.5967,6.3486,6.0159,5.5448,5.5715,5.6618,5.6799,5.791,5.9063,5.9175,5.8957,5.9624,0.0,0.0,0.0,0.0,0.0,0.0,0.0,0.0,0.0,3.1463,3.247,3.2688,0.0,0.0,0.0,0.0,0.0,0.0,0.0,0.0,4.3462,4.467,4.3097,4.6048,4.6937,4.6063,4.5988,4.3525,0.0,0.0,0.0,0.0,0.0,0.0,0.0,0.0,5.1484,5.2756,5.7461,6.0337,6.1169,6.2813,6.375,6.3865,6.0193,5.7502,5.601,5.3226,5.1727,0.0,0.0,0.0,0.0,0.0,0.0,0.0,0.0,0.0,0.0,0.0,0.0,0.0,0.0,0.0,0.0,0.0,0.0,0.0,0.0,0.0,0.0,0.0,3.8345,0.0,0.0,0.0,0.0,0.0,0.0,0.0,0.0,0.0,4.666,4.8596,5.1026,5.3873,5.6001,5.8033,6.0077,0.0,0.0,0.0,0.0,0.0,0.0,0.0,6.2626,6.3225,6.1873,6.0639,6.009,5.8706,5.7809,5.837,0.0,0.0,5.1634,5.055,5.0564,5.1559,5.1377,5.1415,5.2409,5.3493,5.5068,0.0,0.0,0.0,0.0,0.0,0.0,0.0,0.0,0.0,2.7679,2.816,0.0,0.0,0.0,0.0,0.0,0.0,0.0,0.0,0.0,0.0,0.0,3.91,4.2071,0.0,0.0,0.0,0.0,0.0,0.0,0.0,0.0,0.0,0.0,0.0,0.0,4.9493,5.0325,5.5998,5.9445,6.0054,6.1152,6.2005,6.2542,5.9567,5.6715,5.413,0.0,0.0,0.0,0.0,0.0,0.0,0.0,0.0,0.0,0.0,0.0,0.0,0.0,0.0,0.0,0.0,0.0,0.0,0.0,0.0,0.0,0.0,0.0,0.0,0.0,3.3751,0.0,0.0,0.0,0.0,0.0,0.0,0.0,0.0,0.0,0.0,4.6014,4.814,4.9773,5.2753,5.5062,5.6019,5.7501,5.8694,0.0,0.0,0.0,0.0,0.0,0.0,0.0,0.0,0.0,0.0,0.0,0.0,0.0,5.1559,4.9316,4.7138,4.6325,4.6338,4.7363,0.0,0.0,0.0,0.0,0.0,0.0,0.0,0.0,0.0,0.0,0.0,0.0,0.0,0.0,0.0,2.3341,0.0,0.0,2.3761,0.0,0.0,0.0,0.0,0.0,0.0,0.0,0.0,0.0,0.0,0.0,0.0,0.0,0.0,0.0,0.0,0.0,0.0,0.0,0.0,0.0,0.0,4.8376,4.7049,5.4866,5.9313,5.9944,5.9999,6.0329,6.09,5.7962,5.5626,5.406,0.0,0.0,0.0,0.0,0.0,0.0,0.0,0.0,0.0,0.0,0.0,0.0,0.0,0.0,0.0,0.0,0.0,0.0,0.0,0.0,0.0,0.0,0.0,0.0,0.0,0.0,2.6158,3.1208,3.5612,0.0,0.0,0.0,0.0,0.0,0.0,0.0,0.0,0.0,4.5065,4.7875,4.9794,4.9811,5.1095,5.2784,5.4102,5.4363,5.541,5.854,5.7622,5.7061,0.0,0.0,0.0,0.0,0.0,0.0,0.0,0.0,0.0,0.0,0.0,0.0,0.0,0.0,0.0,0.0,0.0,0.0,0.0,0.0,0.0,0.0,0.0,0.0,0.0,0.0,0.0,0.0,0.0,0.0,0.0,0.0,0.0,0.0,0.0,0.0,0.0,0.0,0.0,0.0,0.0,0.0,0.0,0.0,0.0,0.0,0.0,0.0,0.0,0.0,0.0,0.0,0.0,0.0,4.7306,4.6899,5.3477,5.7368,5.8288,5.8099,5.8453,5.9269,5.6368,5.4545,5.4038,0.0,0.0,0.0,0.0,0.0,0.0,0.0,0.0,0.0,0.0,0.0,0.0,0.0,0.0,0.0,0.0,0.0,0.0,0.0,0.0,0.0,0.0,0.0,0.0,0.0,0.0,0.0,3.3789,3.4283,3.2385,0.0,0.0,0.0,0.0,0.0,0.0,0.0,0.0,0.0,0.0,4.6267,5.0704,5.0759,5.0839,5.227,5.3515,5.4673,5.5554,5.5261,5.5116,5.5597,0.0,0.0,0.0,0.0,0.0,0.0,0.0,0.0,0.0,0.0,0.0,0.0,0.0,0.0,0.0,0.0,0.0,0.0,0.0,0.0,0.0,0.0,0.0,0.0,0.0,0.0,0.0,0.0,0.0,0.0,0.0,0.0,0.0,0.0,0.0,0.0,0.0,0.0,0.0,0.0,0.0,0.0,0.0,0.0,0.0,0.0,0.0,0.0,0.0,0.0,0.0,0.0,0.0,4.6732,4.6607,5.2783,5.6437,5.727,5.7208,5.737,5.7795,5.5369,5.3466,0.0,0.0,0.0,0.0,0.0,0.0,0.0,0.0,0.0,0.0,0.0,0.0,0.0,0.0,0.0,0.0,0.0,0.0,0.0,0.0,0.0,0.0,0.0,0.0,0.0,0.0,0.0,0.0,3.0899,3.1246,2.9196,0.0,0.0,0.0,0.0,0.0,0.0,0.0,0.0,0.0,0.0,4.4551,4.7793,4.9564,0.0,0.0,5.1891,5.3429,5.3284,5.3279,5.306,5.2419,5.1447,0.0,0.0,0.0,0.0,0.0,0.0,0.0,0.0,0.0,0.0,0.0,0.0,0.0,0.0,0.0,0.0,0.0,0.0,0.0,0.0,0.0,0.0,0.0,0.0,0.0,0.0,0.0,0.0,0.0,0.0,0.0,0.0,0.0,0.0,0.0,0.0,0.0,0.0,0.0,0.0,0.0,0.0,0.0,0.0,0.0,0.0,0.0,0.0,0.0,0.0,0.0,0.0,4.6553,4.6469,5.2532,5.6135,5.6939,5.7038,5.6824,5.6225,5.4691,5.2419,0.0,0.0,0.0,0.0,0.0,0.0,0.0,0.0,0.0,0.0,0.0,0.0,0.0,0.0,0.0,0.0,0.0,0.0,0.0,0.0,0.0,0.0,0.0,0.0,0.0,0.0,0.0,0.0,0.0,0.0,0.0,0.0,0.0,0.0,0.0,0.0,0.0,0.0,0.0,0.0,0.0,4.3764,4.2541,4.761,5.0457,0.0,4.9732,5.172,5.1265,5.1372,5.0844,4.8816,0.0,0.0,0.0,0.0,0.0,0.0,0.0,0.0,0.0,0.0,0.0,0.0,0.0,0.0,0.0,0.0,0.0,0.0,0.0,0.0,0.0,0.0,0.0,0.0,0.0,0.0,0.0,0.0,0.0,0.0,0.0,0.0,0.0,0.0,0.0,0.0,0.0,0.0,0.0,0.0,0.0,0.0,0.0,0.0,0.0,0.0,0.0,0.0,0.0,0.0,0.0,0.0,0.0,0.0,4.7973,5.1722,5.4791,5.6989,5.6792,5.5929,5.4667,5.3086,0.0,0.0,0.0,0.0,0.0,0.0,0.0,0.0,0.0,0.0,0.0,0.0,0.0,0.0,0.0,0.0,0.0,0.0,0.0,0.0,0.0,0.0,0.0,0.0,0.0,0.0,0.0,2.0534,0.0,0.0,0.0,0.0,0.0,0.0,0.0,0.0,0.0,0.0,0.0,0.0,0.0,0.0,3.879,4.3309,4.532,4.6518,0.0,0.0,5.0582,4.6741,4.819,4.804,0.0,0.0,0.0,0.0,0.0,0.0,0.0,0.0,0.0,0.0,0.0,0.0,0.0,0.0,0.0,0.0,0.0,0.0,0.0,0.0,0.0,0.0,0.0,0.0,0.0,0.0,0.0,0.0,0.0,0.0,0.0,0.0,0.0,0.0,0.0,0.0,0.0,0.0,0.0,0.0,0.0,0.0,0.0,0.0,0.0,0.0,0.0,0.0,0.0,0.0,0.0,0.0,0.0,0.0,4.4537,4.7237,5.0211,5.3085,5.5688,5.6165,5.5323,5.3086,5.2847,5.0303,0.0,0.0,0.0,0.0,0.0,0.0,0.0,0.0,0.0,0.0,0.0,0.0,0.0,0.0,0.0,0.0,0.0,0.0,0.0,0.0,0.0,0.0,0.0,0.0,0.0,0.0,0.0,0.0,0.0,0.0,0.0,0.0,0.0,0.0,0.0,0.0,0.0,0.0,0.0,0.0,0.0,0.0,4.0938,4.4352,0.0,0.0,0.0,4.9521,4.596,0.0,0.0,0.0,0.0,0.0,0.0,0.0,0.0,0.0,0.0,0.0,0.0,0.0,0.0,0.0,0.0,0.0,0.0,0.0,0.0,0.0,0.0,0.0,0.0,0.0,0.0,0.0,0.0,0.0,0.0,0.0,0.0,0.0,0.0,0.0,0.0,0.0,0.0,0.0,0.0,0.0,0.0,0.0,0.0,0.0,0.0,0.0,0.0,0.0,0.0,0.0,0.0,0.0,0.0,0.0,0.0,0.0,4.5527,4.8809,5.1677,5.3995,5.5597,5.4884,5.1817,5.2872,4.9992,0.0,0.0,0.0,0.0,0.0,0.0,0.0,0.0,0.0,0.0,0.0,0.0,0.0,0.0,0.0,0.0,0.0,0.0,0.0,0.0,0.0,0.0,0.0,0.0,0.0,0.0,0.0,0.0,0.0,0.0,0.0,0.0,0.0,0.0,0.0,0.0,0.0,0.0,0.0,0.0,0.0,4.0221,3.7725,4.3762,4.6872,0.0,0.0,4.797,4.6525,4.4838,0.0,0.0,0.0,0.0,0.0,0.0,0.0,0.0,0.0,0.0,0.0,0.0,0.0,0.0,0.0,0.0,0.0,0.0,0.0,0.0,0.0,0.0,0.0,0.0,0.0,0.0,0.0,0.0,0.0,0.0,0.0,0.0,0.0,0.0,0.0,0.0,0.0,0.0,0.0,0.0,0.0,0.0,0.0,0.0,0.0,0.0,0.0,0.0,0.0,0.0,0.0,0.0,0.0,0.0,0.0,0.0,4.558,4.9709,5.257,5.4021,5.5537,5.4848,5.1827,5.0813,4.7825,0.0,0.0,0.0,0.0,0.0,0.0,0.0,0.0,0.0,0.0,0.0,0.0,0.0,0.0,0.0,0.0,0.0,0.0,0.0,0.0,0.0,0.0,0.0,0.0,0.0,0.0,0.0,0.0,0.0,0.0,0.0,0.0,0.0,0.0,0.0,0.0,0.0,0.0,0.0,0.0,0.0,3.6784,3.8742,4.1464,0.0,0.0,0.0,0.0,4.2881,4.1464,0.0,0.0,0.0,0.0,0.0,0.0,0.0,0.0,0.0,0.0,0.0,0.0,0.0,0.0,0.0,0.0,0.0,0.0,0.0,0.0,0.0,0.0,0.0,0.0,0.0,0.0,0.0,0.0,0.0,0.0,0.0,0.0,0.0,0.0,0.0,0.0,0.0,0.0,0.0,0.0,0.0,0.0,0.0,0.0,0.0,0.0,0.0,0.0,0.0,0.0,0.0,0.0,0.0,0.0,0.0,0.0,4.5313,4.8383,5.0927,5.2857,5.4431,5.411,5.1781,5.0206,4.7182,0.0,0.0,0.0,0.0,0.0,0.0,0.0,0.0,0.0,0.0,0.0,0.0,0.0,0.0,0.0,0.0,0.0,0.0,0.0,0.0,0.0,0.0,0.0,0.0,0.0,0.0,0.0,0.0,0.0,0.0,0.0,0.0,0.0,0.0,0.0,0.0,0.0,0.0,0.0,0.0,3.6342,3.6322,3.8006,0.0,0.0,0.0,0.0,0.0,0.0,3.9786,3.795,0.0,0.0,0.0,0.0,0.0,0.0,0.0,0.0,0.0,0.0,0.0,0.0,0.0,0.0,0.0,0.0,0.0,0.0,0.0,0.0,0.0,0.0,0.0,0.0,0.0,0.0,0.0,0.0,0.0,0.0,0.0,0.0,0.0,0.0,0.0,0.0,0.0,0.0,0.0,0.0,0.0,0.0,0.0,0.0,0.0,0.0,0.0,0.0,0.0,0.0,0.0,0.0,0.0,0.0,0.0,4.471,4.6498,4.8776,5.1623,5.2979,5.304,5.172,4.9697,4.6647,4.2427,0.0,0.0,0.0,0.0,0.0,0.0,0.0,0.0,0.0,0.0,0.0,0.0,0.0,0.0,0.0,0.0,0.0,0.0,0.0,0.0,0.0,0.0,0.0,0.0,0.0,0.0,0.0,0.0,0.0,0.0,0.0,0.0,0.0,0.0,0.0,0.0,0.0,0.0,0.0,3.606,3.6209,0.0,0.0,0.0,0.0,0.0,0.0,0.0,0.0,3.6835,0.0,0.0,0.0,0.0,0.0,0.0,0.0,0.0,0.0,0.0,0.0,0.0,0.0,0.0,0.0,0.0,0.0,0.0,0.0,0.0,0.0,0.0,0.0,0.0,0.0,0.0,0.0,0.0,0.0,0.0,0.0,0.0,0.0,0.0,0.0,0.0,0.0,0.0,0.0,0.0,0.0,0.0,0.0,0.0,0.0,0.0,0.0,0.0,0.0,0.0,0.0,0.0,0.0,0.0,0.0,0.0,4.5833,4.8577,5.1577,5.1934,5.197,5.1638,4.7618,4.4461,4.2337,0.0,0.0,0.0,0.0,0.0,0.0,0.0,0.0,0.0,0.0,0.0,0.0,0.0,0.0,0.0,0.0,0.0,0.0,0.0,0.0,0.0,0.0,0.0,0.0,0.0,0.0,0.0,0.0,0.0,0.0,0.0,0.0,0.0,0.0,0.0,0.0,0.0,0.0,3.0355,3.1993,0.0,0.0,0.0,0.0,0.0,0.0,0.0,0.0,3.7291,0.0,0.0,0.0,0.0,0.0,0.0,0.0,0.0,0.0,0.0,0.0,0.0,0.0,0.0,0.0,0.0,0.0,0.0,0.0,0.0,0.0,0.0,0.0,0.0,0.0,0.0,0.0,0.0,0.0,0.0,0.0,0.0,0.0,0.0,0.0,0.0,0.0,0.0,0.0,0.0,0.0,0.0,0.0,0.0,0.0,0.0,0.0,0.0,0.0,0.0,0.0,0.0,0.0,0.0,0.0,0.0,0.0,0.0,4.695,4.9152,5.0028,5.0456,5.0303,4.5924,4.2713,0.0,0.0,0.0,0.0,0.0,0.0,0.0,0.0,0.0,0.0,0.0,0.0,0.0,0.0,0.0,0.0,0.0,0.0,0.0,0.0,0.0,0.0,0.0,0.0,0.0,0.0,0.0,0.0,0.0,0.0,0.0,0.0,0.0,0.0,0.0,0.0,0.0,0.0,0.0,0.0,0.0,0.0,0.0,0.0,0.0,0.0,0.0,0.0,0.0,0.0,0.0,0.0,0.0,0.0,0.0,0.0,0.0,0.0,0.0,0.0,0.0,0.0,0.0,0.0,0.0,0.0,0.0,0.0,0.0,0.0,0.0,0.0,0.0,0.0,0.0,0.0,0.0,0.0,0.0,0.0,0.0,0.0,0.0,0.0,0.0,0.0,0.0,0.0,0.0,0.0,0.0,0.0,0.0,0.0,0.0,0.0,0.0,0.0,0.0,0.0,0.0,0.0,0.0,0.0,0.0,0.0,0.0,0.0,4.513,4.7021,4.8253,4.8869,4.8869,4.4291,4.125,0.0,0.0,0.0,0.0,0.0,0.0,0.0,0.0,0.0,0.0,0.0,0.0,0.0,0.0,0.0,0.0,0.0,0.0,0.0,0.0,0.0,0.0,0.0,0.0,0.0,0.0,0.0,0.0,0.0,0.0,0.0,0.0,0.0,0.0,0.0,0.0,0.0,0.0,0.0,0.0,0.0,0.0,0.0,0.0,0.0,0.0,0.0,0.0,3.3388,0.0,0.0,0.0,0.0,0.0,0.0,0.0,0.0,0.0,0.0,0.0,0.0,0.0,0.0,0.0,0.0,0.0,0.0,0.0,0.0,0.0,0.0,0.0,0.0,0.0,0.0,0.0,0.0,0.0,0.0,0.0,0.0,0.0,0.0,0.0,0.0,0.0,0.0,0.0,0.0,0.0,0.0,0.0,0.0,0.0,0.0,0.0,0.0,0.0,0.0,0.0,0.0,0.0,0.0,0.0,0.0,0.0,0.0,0.0,4.4077,4.695,4.7209,4.7316,4.7137,4.2624,4.004,0.0,0.0,0.0,0.0,0.0,0.0,0.0,0.0,0.0,0.0,0.0,0.0,0.0,0.0,0.0,0.0,0.0,0.0,0.0,0.0,0.0,0.0,0.0,0.0,0.0,0.0,0.0,0.0,0.0,0.0,0.0,0.0,0.0,0.0,0.0,0.0,0.0,0.0,0.0,0.0,0.0,0.0,0.0,0.0,0.0,0.0,0.0,0.0,0.0,0.0,0.0,0.0,0.0,0.0,0.0,0.0,0.0,0.0,0.0,0.0,0.0,0.0,0.0,0.0,0.0,0.0,0.0,0.0,0.0,0.0,0.0,0.0,0.0,0.0,0.0,0.0,0.0,0.0,0.0,0.0,0.0,0.0,0.0,0.0,0.0,0.0,0.0,0.0,0.0,0.0,0.0,0.0,0.0,0.0,0.0,0.0,0.0,0.0,0.0,0.0,0.0,0.0,0.0,0.0,0.0,0.0,0.0,0.0,4.1563,4.2838,4.3846,4.3846,4.291,4.184,4.0021,0.0,0.0,0.0,0.0,0.0,0.0,0.0,0.0,0.0,0.0,0.0,0.0,0.0,0.0,0.0,0.0,0.0,0.0,0.0,0.0,0.0,0.0,0.0,0.0,0.0,0.0,0.0,0.0,0.0,0.0,0.0,0.0,0.0,0.0,0.0,0.0,0.0,0.0,0.0,0.0,0.0,0.0,0.0,0.0,0.0,0.0,0.0,0.0,0.0,0.0,0.0,0.0,0.0,0.0,0.0,0.0,0.0,0.0,0.0,0.0,0.0,0.0,0.0,0.0,0.0,0.0,0.0,0.0,0.0,0.0,0.0,0.0,0.0,0.0,0.0,0.0,0.0,0.0,0.0,0.0,0.0,0.0,0.0,0.0,0.0,0.0,0.0,0.0,0.0,0.0,0.0,0.0,0.0,0.0,0.0,0.0,0.0,0.0,0.0,0.0,0.0,0.0,0.0,0.0,0.0,0.0,0.0,0.0,0.0,3.9898,4.1063,4.1126,3.9933,4.1063,3.9644,0.0,0.0,0.0,0.0,0.0,0.0,0.0,0.0,0.0,0.0,0.0,0.0,0.0,0.0,0.0,0.0,0.0,0.0,0.0,0.0,0.0,0.0,0.0,0.0,0.0,0.0,0.0,0.0,0.0,0.0,0.0,0.0,0.0,0.0,0.0,0.0,0.0,0.0,0.0,0.0,0.0,0.0,0.0,0.0,0.0,0.0,0.0,0.0,0.0,0.0,0.0,0.0,0.0,0.0,0.0,0.0,0.0,0.0,0.0,0.0,0.0,0.0,0.0,0.0,0.0,0.0,0.0,0.0,0.0,0.0,0.0,0.0,0.0,0.0,0.0,0.0,0.0,0.0,0.0,0.0,0.0,0.0,0.0,0.0,0.0,0.0,0.0,0.0,0.0,0.0,0.0,0.0,0.0,0.0,0.0,0.0,0.0,0.0,0.0,0.0,0.0,0.0,0.0,0.0,0.0,0.0,0.0,0.0,0.0,3.9862,3.9969,3.9961,3.9862,3.9969,3.8471,0.0,0.0,0.0,0.0,0.0,0.0,0.0,0.0,0.0,0.0,0.0,0.0,0.0,0.0,0.0,0.0,0.0,0.0,0.0,0.0,0.0,0.0,0.0,0.0,0.0,0.0,0.0,0.0,0.0,0.0,0.0,0.0,0.0,0.0,0.0,0.0,0.0,0.0,0.0,0.0,0.0,0.0,0.0,0.0,0.0,0.0,0.0,0.0,0.0,0.0,0.0,0.0,0.0,0.0,0.0,0.0,0.0,0.0,0.0,0.0,0.0,0.0,0.0,0.0,0.0,0.0,0.0,0.0,0.0,0.0,0.0,0.0,0.0,0.0,0.0,0.0,0.0,0.0,0.0,0.0,0.0,0.0,0.0,0.0,0.0,0.0,0.0,0.0,0.0,0.0,0.0,0.0,0.0,0.0,0.0,0.0,0.0,0.0,0.0,0.0,0.0,0.0,0.0,0.0,0.0,0.0,0.0,0.0,0.0,3.8423,3.9335,3.9862,3.9862,3.9862,3.8244,3.4889,0.0,0.0,0.0,0.0,0.0,0.0,0.0,0.0,0.0,0.0,0.0,0.0,0.0,0.0,0.0,0.0,0.0,0.0,0.0,0.0,0.0,0.0,0.0,0.0,0.0,0.0,0.0,0.0,0.0,0.0,0.0,0.0,0.0,0.0,0.0,0.0,0.0,0.0,0.0,0.0,0.0,0.0,0.0,0.0,0.0,0.0,0.0,0.0,0.0,0.0,0.0,0.0,0.0,0.0,0.0,0.0,0.0,0.0,0.0,0.0,0.0,0.0,0.0,0.0,0.0,0.0,0.0,0.0,0.0,0.0,0.0,0.0,0.0,0.0,0.0,0.0,0.0,0.0,0.0,0.0,0.0,0.0,0.0,0.0,0.0,0.0,0.0,0.0,0.0,0.0,0.0,0.0,0.0,0.0,0.0,0.0,0.0,0.0,0.0,0.0,0.0,0.0,0.0,0.0,0.0,0.0,0.0,0.0,3.8173,3.9807,4.0663,4.0583,3.9998,3.7814,0.0,0.0,0.0,0.0,0.0,0.0,0.0,0.0,0.0,0.0,0.0,0.0,0.0,0.0,0.0,0.0,0.0,0.0,0.0,0.0,0.0,0.0,0.0,0.0,0.0,0.0,0.0,0.0,0.0,0.0,0.0,0.0,0.0,0.0,0.0,0.0,0.0,0.0,0.0,0.0,0.0,0.0,0.0,0.0,0.0,0.0,0.0,0.0,0.0,0.0,0.0,0.0,0.0,0.0,0.0,0.0,0.0,0.0,0.0,0.0,0.0,0.0,0.0,0.0,0.0,0.0,0.0,0.0,0.0,0.0,0.0,0.0,0.0,0.0,0.0,0.0,0.0,0.0,0.0,0.0,0.0,0.0,0.0,0.0,0.0,0.0,0.0,0.0,0.0,0.0,0.0,0.0,0.0,0.0,0.0,0.0,0.0,0.0,0.0,0.0,0.0,0.0,0.0,0.0,0.0,0.0,0.0,0.0,3.3571,3.947,4.1285,4.207,4.2293,4.026,3.7098,0.0,0.0,0.0,0.0,0.0,0.0,0.0,0.0,0.0,0.0,0.0,0.0,0.0,0.0,0.0,0.0,0.0,0.0,0.0,0.0,0.0,0.0,0.0,0.0,0.0,0.0,0.0,0.0,0.0,0.0,0.0,0.0,0.0,0.0,0.0,0.0,0.0,0.0,0.0,0.0,0.0,0.0,0.0,0.0,0.0,0.0,0.0,0.0,0.0,0.0,0.0,0.0,0.0,0.0,0.0,0.0,0.0,0.0,0.0,0.0,0.0,0.0,0.0,0.0,0.0,0.0,0.0,0.0,0.0,0.0,0.0,0.0,0.0,0.0,0.0,0.0,0.0,0.0,0.0,0.0,0.0,0.0,0.0,0.0,0.0,0.0,0.0,0.0,0.0,0.0,0.0,0.0,0.0,0.0,0.0,0.0,0.0,0.0,0.0,0.0,0.0,0.0,0.0,0.0,0.0,0.0,0.0,0.0,0.0,3.3571,0.0,3.9481,4.0207,3.8675,3.6528,0.0,0.0,0.0,0.0,0.0,0.0,0.0,0.0,0.0,0.0,0.0,0.0,0.0,0.0,0.0,0.0,0.0,0.0,0.0,0.0,0.0,0.0,0.0,0.0,0.0,0.0,0.0,0.0,0.0,0.0,0.0,0.0,0.0,0.0,0.0,0.0,0.0,0.0,0.0,0.0,0.0,0.0,0.0,0.0,0.0,0.0,0.0,0.0,0.0,0.0,0.0,0.0,0.0,0.0,0.0,0.0,0.0,0.0,0.0,0.0,0.0,0.0,0.0,0.0,0.0,0.0,0.0,0.0,0.0,0.0,0.0,0.0,0.0,0.0,0.0,0.0,0.0,0.0,0.0,0.0,0.0,0.0,0.0,0.0,0.0,0.0,0.0,0.0,0.0,0.0,0.0,0.0,0.0,0.0,0.0,0.0,0.0,0.0,0.0,0.0,0.0,0.0,0.0,0.0,0.0,0.0,0.0,0.0,0.0,3.1948,3.4465,3.6893,3.9013,3.6922,3.5133,0.0,0.0,0.0,0.0,0.0,0.0,0.0,0.0,0.0,0.0,0.0,0.0,0.0,0.0,0.0,0.0,0.0,0.0,0.0,0.0,0.0,0.0,0.0,0.0,0.0,0.0,0.0,0.0,0.0,0.0,0.0,0.0,0.0,0.0,0.0,0.0,0.0,0.0,0.0,0.0,0.0,0.0,0.0,0.0,0.0,0.0,0.0,0.0,0.0,0.0,0.0,0.0,0.0,0.0,0.0,0.0,0.0,0.0,0.0,0.0,0.0,0.0,0.0,0.0,0.0,0.0,0.0,0.0,0.0,0.0,0.0,0.0,0.0,0.0,0.0,0.0,0.0,0.0,0.0,0.0,0.0,0.0,0.0,0.0,0.0,0.0,0.0,0.0,0.0,0.0,0.0,0.0,0.0,0.0,0.0,0.0,0.0,0.0,0.0,0.0,0.0,0.0,0.0,0.0,0.0,0.0,0.0,0.0,0.0,3.3828,3.3148,3.4656,3.8478,3.5133,3.3138,0.0,0.0,0.0,0.0,0.0,0.0,0.0,0.0,0.0,0.0,0.0,0.0,0.0,0.0,0.0,0.0,0.0,0.0,0.0,0.0,0.0,0.0,0.0,0.0,0.0,0.0,0.0,0.0,0.0,0.0,0.0,0.0,0.0,0.0,0.0,0.0,0.0,0.0,0.0,0.0,0.0,0.0,0.0,0.0,0.0,0.0,0.0,0.0,0.0,0.0,0.0,0.0,0.0,0.0,0.0,0.0,0.0,0.0,0.0,0.0,0.0,0.0,0.0,0.0,0.0,0.0,0.0,0.0,0.0,0.0,0.0,0.0,0.0,0.0,0.0,0.0,0.0,0.0,0.0,0.0,0.0,0.0,0.0,0.0,0.0,0.0,0.0,0.0,0.0,0.0,0.0,0.0,0.0,0.0,0.0,0.0,0.0,0.0,0.0,0.0,0.0,0.0,0.0,0.0,0.0,0.0,0.0,0.0,0.0,0.0,3.0361,3.1842,3.4287,3.3075,3.1577,3.0208,0.0,0.0,0.0,0.0,0.0,0.0,0.0,0.0,0.0,0.0,0.0,0.0,0.0,0.0,0.0,0.0,0.0,0.0,0.0,0.0,0.0,0.0,0.0,0.0,0.0,0.0,0.0,0.0,0.0,0.0,0.0,0.0,0.0,0.0,0.0,0.0,0.0,0.0,0.0,0.0,0.0,0.0,0.0,0.0,0.0,0.0,0.0,0.0,0.0,0.0,0.0,0.0,0.0,0.0,0.0,0.0,0.0,0.0,0.0,0.0,0.0,0.0,0.0,0.0,0.0,0.0,0.0,0.0,0.0,0.0,0.0,0.0,0.0,0.0,0.0,0.0,0.0,0.0,0.0,0.0,0.0,0.0,0.0,0.0,0.0,0.0,0.0,0.0,0.0,0.0,0.0,0.0,0.0,0.0,0.0,0.0,0.0,0.0,0.0,0.0,0.0,0.0,0.0,0.0,0.0,0.0,0.0,0.0,0.0,0.0,2.9614,3.1152,3.1377,3.0851,0.0,0.0,0.0,0.0,0.0,0.0,0.0,0.0,0.0,0.0,0.0,0.0,0.0,0.0,0.0,0.0,0.0,0.0,0.0,0.0,0.0,0.0,0.0,0.0,0.0,0.0,0.0,0.0,0.0,0.0,0.0,0.0,0.0,0.0,0.0,0.0,0.0,0.0,0.0,0.0,0.0,0.0,0.0,0.0,0.0,0.0,0.0,0.0,0.0,0.0,0.0,0.0,0.0,0.0,0.0,0.0,0.0,0.0,0.0,0.0,0.0,0.0,0.0,0.0,0.0,0.0,0.0,0.0,0.0,0.0,0.0,0.0,0.0,0.0,0.0,0.0,0.0,0.0,0.0,0.0,0.0,0.0,0.0,0.0,0.0,0.0,0.0,0.0,0.0,0.0,0.0,0.0,0.0,0.0,0.0,0.0,0.0,0.0,0.0,0.0,0.0,0.0,0.0,0.0,0.0,0.0,0.0,0.0,0.0,0.0,0.0,2.8004,2.8599,3.0105,0.0,2.9929,0.0,0.0,0.0,0.0,0.0,0.0,0.0,0.0,0.0,0.0,0.0,0.0,0.0,0.0,0.0,0.0,0.0,0.0,0.0,0.0,0.0,0.0,0.0,0.0,0.0,0.0,0.0,0.0,0.0,0.0,0.0,0.0,0.0,0.0,0.0,0.0,0.0,0.0,0.0,0.0,0.0,0.0,0.0,0.0,0.0,0.0,0.0,0.0,0.0,0.0,0.0,0.0,0.0,0.0,0.0,0.0,0.0,0.0,0.0,0.0,0.0,0.0,0.0,0.0,0.0,0.0,0.0,0.0,0.0,0.0,0.0,0.0,0.0,0.0,0.0,0.0,0.0,0.0,0.0,0.0,0.0,0.0,0.0,0.0,0.0,0.0,0.0,0.0,0.0,0.0,0.0,0.0,0.0,0.0,0.0,0.0,0.0,0.0,0.0,0.0,0.0,0.0,0.0,0.0,0.0,0.0,0.0,0.0,0.0,0.0,0.0,0.0,2.9685,2.9805,2.7442,0.0,0.0,0.0,0.0,0.0,0.0,0.0,0.0,0.0,0.0,0.0,0.0,0.0,0.0,0.0,0.0,0.0,0.0,0.0,0.0,0.0,0.0,0.0,0.0,0.0,0.0,0.0,0.0,0.0,0.0,0.0,0.0,0.0,0.0,0.0,0.0,0.0,0.0,0.0,0.0,0.0,0.0,0.0,0.0,0.0,0.0,0.0,0.0,0.0,0.0,0.0,0.0,0.0,0.0,0.0,0.0,0.0,0.0,0.0,0.0,0.0,0.0,0.0,0.0,0.0,0.0,0.0,0.0,0.0,0.0,0.0,0.0,0.0,0.0,0.0,0.0,0.0,0.0,0.0,0.0,0.0,0.0,0.0,0.0,0.0,0.0,0.0,0.0,0.0,0.0,0.0,0.0,0.0,0.0,0.0,0.0,0.0,0.0,0.0,0.0,0.0,0.0,0.0,0.0,0.0,0.0,0.0,0.0,0.0,0.0,2.8265,2.6839,2.8661,2.858,2.6368,0.0,0.0,0.0,0.0,0.0,0.0,0.0,0.0,0.0,0.0,0.0,0.0,0.0,0.0,0.0,0.0,0.0,0.0,0.0,0.0,0.0,0.0,0.0,0.0,0.0,0.0,0.0,0.0,0.0,0.0,0.0,0.0,0.0,0.0,0.0,0.0,0.0,0.0,0.0,0.0,0.0,0.0,0.0,0.0,0.0,0.0,0.0,0.0,0.0,0.0,0.0,0.0,0.0,0.0,0.0,0.0,0.0,0.0,0.0,0.0,0.0,0.0,0.0,0.0,0.0,0.0,0.0,0.0,0.0,0.0,0.0,0.0,0.0,0.0,0.0,0.0,0.0,0.0,0.0,0.0,0.0,0.0,0.0,0.0,0.0,0.0,0.0,0.0,0.0,0.0,0.0,0.0,0.0,0.0,0.0,0.0,0.0,0.0,0.0,0.0,0.0,0.0,0.0,0.0,0.0,0.0,0.0,0.0,0.0,0.0,0.0,0.0,0.0,0.0,2.6407,0.0,0.0,0.0,0.0,0.0,0.0,0.0,0.0,0.0,0.0,0.0,0.0,0.0,0.0,0.0,0.0,0.0,0.0,0.0,0.0,0.0,0.0,0.0,0.0,0.0,0.0,0.0,0.0,0.0,0.0,0.0,0.0,0.0,0.0,0.0,0.0,0.0,0.0,0.0,0.0,0.0,0.0,0.0,0.0,0.0,0.0,0.0,0.0,0.0,0.0,0.0,0.0,0.0,0.0,0.0,0.0,0.0,0.0,0.0,0.0,0.0,0.0,0.0,0.0,0.0,0.0,0.0,0.0,0.0,0.0,0.0,0.0,0.0,0.0,0.0,0.0,0.0,0.0,0.0,0.0,0.0,0.0,0.0,0.0,0.0,0.0,0.0,0.0,0.0,0.0,0.0,0.0,0.0,0.0,0.0,0.0,0.0,0.0,0.0,0.0,0.0,0.0,0.0,0.0,0.0,0.0,0.0,0.0,0.0,0.0,0.0,0.0,0.0,0.0,0.0,0.0,0.0,0.0,0.0,0.0,0.0,0.0,0.0,0.0,0.0,0.0,0.0,0.0,0.0,0.0,0.0,0.0,0.0,0.0,0.0,0.0,0.0,0.0,0.0,0.0,0.0,0.0,0.0,0.0,0.0,0.0,0.0,0.0,0.0,0.0,0.0,0.0,0.0,0.0,0.0,0.0,0.0,0.0,0.0,0.0,0.0,0.0,0.0,0.0,0.0,0.0,0.0,0.0,0.0,0.0,0.0,0.0,0.0,0.0,0.0,0.0,0.0,0.0,0.0,0.0,0.0,0.0,0.0,0.0,0.0,0.0,0.0,0.0,0.0,0.0,0.0,0.0,0.0,0.0,0.0,0.0,0.0,0.0,0.0,0.0,0.0,0.0,0.0,0.0,0.0,0.0,0.0,0.0,0.0,0.0,0.0,0.0,0.0,0.0,0.0,0.0,0.0,0.0,0.0,0.0,0.0,0.0,0.0,0.0,0.0,0.0,0.0,0.0,0.0,0.0,0.0,0.0,0.0,0.0,0.0,0.0,0.0,0.0,0.0,0.0,0.0,0.0,0.0,0.0,0.0,0.0,0.0,0.0,0.0,0.0,0.0,0.0,0.0,0.0,0.0,0.0,0.0,0.0,0.0,0.0,0.0,0.0,0.0,0.0,0.0,0.0,0.0,0.0,0.0,0.0,0.0,0.0,0.0,0.0,0.0,0.0,0.0,0.0,0.0,0.0,0.0,0.0,0.0,0.0,0.0,0.0,0.0,0.0,0.0,0.0,0.0,0.0,0.0,0.0,0.0,0.0,0.0,0.0,0.0,0.0,0.0,0.0,0.0,0.0,0.0,0.0,0.0,0.0,0.0,0.0,0.0,0.0,0.0,0.0,0.0,0.0,0.0,0.0,0.0,0.0,0.0,0.0,0.0,0.0,0.0,0.0,0.0,0.0,0.0,0.0,0.0,0.0,0.0,0.0,0.0,0.0,0.0,0.0,0.0,0.0,0.0,0.0,0.0,0.0,0.0,0.0,0.0,0.0,0.0,0.0,0.0,0.0,0.0,0.0,0.0,0.0,0.0,0.0,0.0,0.0,0.0,0.0,0.0,0.0,0.0,0.0,0.0,0.0,0.0,0.0,0.0,0.0,0.0,0.0,0.0,0.0,0.0,0.0,0.0,0.0,0.0,0.0,0.0,0.0,0.0,0.0,0.0,0.0,0.0,0.0,0.0,0.0,0.0,0.0,0.0,0.0,0.0,0.0,0.0,0.0,0.0,0.0,0.0,0.0,0.0,0.0,0.0,0.0,0.0,0.0,0.0,0.0,0.0,0.0,0.0,0.0,0.0,0.0,0.0,0.0,0.0,0.0,0.0,0.0,0.0,0.0,0.0,0.0,0.0,0.0,0.0,0.0,0.0,0.0,0.0,0.0,0.0,0.0,0.0,0.0,0.0,0.0,0.0,0.0,0.0,0.0,0.0,0.0,0.0,0.0,0.0,0.0,0.0,0.0,0.0,0.0,0.0,0.0,0.0,0.0,0.0,0.0,0.0,0.0,0.0,0.0,0.0,0.0,0.0,0.0,0.0,0.0,0.0,0.0,0.0,0.0,0.0,0.0,0.0,0.0,0.0,0.0,0.0,0.0,0.0,0.0,0.0,0.0,0.0,0.0,0.0,0.0,0.0,0.0,0.0,0.0,0.0,0.0,0.0,0.0,0.0,0.0,0.0,0.0,0.0,0.0,0.0,0.0,0.0,0.0,0.0,0.0,0.0,0.0,0.0,0.0,0.0,0.0,0.0,0.0,0.0,0.0,0.0,0.0,0.0,0.0,0.0,0.0,0.0,0.0,0.0,0.0,0.0,0.0,0.0,0.0,0.0,0.0,0.0,0.0,0.0,0.0,0.0,0.0,0.0,0.0,0.0,0.0,0.0,0.0,0.0,0.0,0.0,0.0,0.0,0.0,0.0,0.0,0.0,0.0,0.0,0.0,0.0,0.0,0.0,0.0,0.0,0.0,0.0,0.0,0.0,0.0,0.0,0.0,0.0,0.0,0.0,0.0,0.0,0.0,0.0,0.0,0.0,0.0,0.0,0.0,0.0,0.0,0.0,0.0,0.0,0.0,0.0,0.0,0.0,0.0,0.0,0.0,0.0,0.0,0.0,0.0,0.0,0.0,0.0,0.0,0.0,0.0,0.0,0.0,0.0,0.0,0.0,0.0,0.0,0.0,0.0,0.0,0.0,0.0,0.0,0.0,0.0,0.0,0.0,0.0,0.0,0.0,0.0,0.0,0.0,0.0,0.0,0.0,0.0,0.0,0.0,0.0,0.0,0.0,0.0,0.0,0.0,0.0,0.0,0.0,0.0,0.0,0.0,0.0,0.0,0.0,0.0,0.0,0.0,0.0,0.0,0.0,0.0,0.0,0.0,0.0,0.0,0.0,0.0,0.0,0.0,0.0,0.0,0.0,0.0,0.0,0.0,0.0,0.0,0.0,0.0,0.0,0.0,0.0,0.0,0.0,0.0,0.0,0.0,0.0,0.0,0.0,0.0,0.0,0.0,0.0,0.0,0.0,0.0,0.0,0.0,0.0,0.0,0.0,0.0,0.0,0.0,0.0,0.0,0.0,0.0,0.0,0.0,0.0,0.0,0.0,0.0,0.0,0.0,0.0,0.0,0.0,0.0,0.0,0.0,0.0,0.0,0.0,0.0,0.0,0.0,0.0,0.0,0.0,0.0,0.0,0.0,0.0,0.0,0.0,0.0,0.0,0.0,0.0,0.0,0.0,0.0,0.0,0.0,0.0,0.0,0.0,0.0,0.0,0.0,0.0,0.0,0.0,0.0,0.0,0.0,0.0,0.0,0.0,0.0,0.0,0.0,0.0,0.0,0.0,0.0,0.0,0.0,0.0,0.0,0.0,0.0,0.0,0.0,0.0,0.0,0.0,0.0,0.0,0.0,0.0,0.0,0.0,0.0,0.0,0.0,0.0,0.0,0.0,0.0,0.0,0.0,0.0,0.0,0.0,0.0,0.0,0.0,0.0,0.0,0.0,0.0,0.0,0.0,0.0,0.0,0.0,0.0,0.0,0.0,0.0,0.0,0.0,0.0,0.0,0.0,0.0,0.0,0.0,0.0,0.0,0.0,0.0,0.0,0.0,0.0,0.0,0.0,0.0,0.0,0.0,0.0,0.0,0.0,0.0,0.0,0.0,0.0,0.0,0.0,0.0,0.0,0.0,0.0,0.0,0.0,0.0,0.0,0.0,0.0,0.0,0.0,0.0,0.0,0.0,0.0,0.0,0.0,0.0,0.0,0.0,0.0,0.0,0.0,0.0,0.0,0.0,0.0,0.0,0.0,0.0,0.0,0.0,0.0,0.0,0.0,0.0,0.0,0.0,0.0,0.0,0.0,0.0,0.0,0.0,0.0,0.0,0.0,0.0,0.0,0.0,0.0,0.0,0.0,0.0,0.0,0.0,0.0,0.0,0.0,0.0,0.0,0.0,0.0,0.0,0.0,0.0,0.0,0.0,0.0,0.0,0.0,0.0,0.0,0.0,0.0,0.0,0.0,0.0,0.0,0.0,0.0,0.0,0.0,0.0,0.0,0.0,0.0,0.0,0.0,0.0,0.0,0.0,0.0,0.0,0.0,0.0,0.0,0.0,0.0,0.0,0.0,0.0,0.0,0.0,0.0,0.0,0.0,0.0,0.0,0.0,0.0,0.0,0.0,0.0,0.0,0.0,0.0,0.0,0.0,0.0,0.0,0.0,0.0,0.0,0.0,0.0,0.0,0.0,0.0,0.0,0.0,0.0,0.0,0.0,0.0,0.0,0.0,0.0,0.0,0.0,0.0,0.0,0.0,0.0,0.0,0.0]}],[{"header":{"parameterUnit":"kt","parameterCategory":2,"dx":1,"dy":1,"la1":29.587661999999998,"la2":31.0,"lo1":-88.76705300000003,"lo2":-86.6583820000003,"nx":115,"ny":88,"refTime":"2022-10-24T12:00:00:Z","depth":0,"parameterNumber":2,"parameterNumberName":"V-component_of_WINDS"},"data":[7.0009,7.0009,7.0009,7.0009,7.0009,7.0009,7.0009,7.0009,7.0009,6.997,6.9883,6.9747,6.9544,6.9189,6.9143,6.9089,6.9017,6.9009,6.9013,6.9013,6.9013,6.9013,6.9013,6.9013,6.9013,6.9013,6.9013,6.9006,6.9006,6.8836,6.8626,6.8271,6.8238,6.8528,6.9365,6.9613,6.9632,6.9701,6.9373,6.8613,6.6972,6.6238,6.5871,6.5715,6.5715,6.5715,6.5715,6.5715,6.565,6.5326,6.4813,6.3771,6.2836,6.1852,6.146,6.1367,6.1293,6.0795,6.0814,6.0786,6.0824,6.0629,6.0629,6.0629,6.0629,6.061,6.0308,6.0308,6.0514,6.0514,5.9924,5.9944,5.9694,5.872,5.7978,5.7487,5.6721,5.5851,5.5188,5.4623,5.4126,5.3908,5.3621,5.3621,5.3621,5.3621,5.3621,5.3621,5.3621,5.3621,5.3621,5.3251,5.2775,5.3074,5.2825,5.1452,5.0828,5.0197,4.9262,4.7644,4.6317,4.5389,4.5185,4.5005,4.4923,4.4884,4.473,4.4637,4.4105,4.3449,4.2094,4.0754,3.9596,3.8521,3.8084,7.0009,7.0009,7.0009,7.0009,7.0009,7.0009,7.0009,7.0009,7.0009,6.9887,6.9747,6.9425,6.9284,6.9172,6.9127,6.9029,6.8982,6.8976,6.9013,6.9013,6.9013,6.9013,6.9013,6.9013,6.9013,6.9013,6.8915,6.8901,6.8787,6.8498,6.8263,6.8143,6.8076,6.8064,6.8795,6.9169,6.958,6.969,6.8918,6.8106,6.7289,6.6523,6.589,6.5689,6.5715,6.5715,6.5702,6.5561,6.5217,6.439,6.2964,6.2089,6.1165,6.0956,6.0629,6.0629,6.0629,6.0629,6.0629,6.0629,6.0629,6.0629,6.0629,6.0629,6.0643,6.0347,5.9813,5.9813,6.0172,5.9964,5.9059,5.8576,5.8315,5.7808,5.727,5.6743,5.5661,5.4623,5.4246,5.3913,5.3743,5.3743,5.3621,5.3621,5.3621,5.3621,5.3621,5.3621,5.3572,5.3424,5.29,5.2294,5.1786,5.0906,5.0223,4.9611,4.9315,4.8637,4.7811,4.6371,4.5214,4.5127,4.501,4.4918,4.4849,4.478,4.4684,4.4414,4.3937,4.346,4.2017,4.0528,3.9391,3.8759,3.829,7.0009,7.0009,7.0009,7.0009,7.0009,7.0009,7.0009,6.9971,6.9921,6.9731,6.9429,6.9288,6.9161,6.9073,6.9054,6.8976,6.8976,6.9013,6.9013,6.9013,6.9013,6.9013,6.9013,6.9013,6.8962,6.8888,6.8744,6.842,6.8095,6.7864,6.7549,6.7216,6.7161,6.7403,6.8319,6.8577,6.9115,7.0345,6.8833,6.7606,6.6442,6.6064,6.5619,6.5121,6.4919,6.4628,6.4585,6.4258,6.4049,6.3305,6.2193,6.1282,6.0724,6.0648,6.0629,6.0629,6.0629,6.0629,6.0629,6.0629,6.0629,6.0629,6.0629,6.0308,6.0341,5.8761,5.8231,5.7978,5.8326,5.8294,5.74,5.6601,5.6289,5.6319,5.5943,5.553,5.4718,5.4005,5.3865,5.3621,5.3621,5.3572,5.3429,5.34,5.3424,5.3424,5.3547,5.3547,5.3251,5.3053,5.199,5.1194,5.0487,4.9665,4.8828,4.8308,4.7866,4.7054,4.6285,4.5476,4.5069,4.4952,4.4889,4.4879,4.4839,4.4684,4.4347,4.406,4.3615,4.2671,4.1451,4.0303,3.9749,3.9084,3.9081,7.0009,7.0009,7.0009,6.997,6.9933,6.9929,6.9895,6.9838,6.9685,6.9498,6.9223,6.9177,6.9095,6.9028,6.8982,6.9013,6.9013,6.9013,6.9013,6.9013,6.9013,6.9013,6.9013,6.9006,6.8894,6.8744,6.8428,6.8041,6.7689,6.7314,6.6957,6.6595,6.6354,6.6991,6.8034,6.7378,6.8079,6.939,6.8123,6.6813,6.6205,6.5839,6.5066,6.4454,6.4189,6.3836,6.3636,6.3273,6.3128,6.2817,6.2108,6.1467,6.0724,6.0667,6.0629,6.0629,6.0629,6.0629,6.0553,6.0256,6.0062,6.0081,5.9793,5.9846,5.91,5.7326,5.6274,5.5958,5.5806,5.576,5.5391,5.4647,5.4102,5.43,5.4372,5.4083,5.3767,5.3669,5.3645,5.3621,5.3621,5.3449,5.3231,5.3128,5.3124,5.2975,5.2772,5.2596,5.2041,5.1218,5.0011,4.945,4.8855,4.8336,4.7783,4.7169,4.6658,4.5884,4.5534,4.5272,4.4952,4.4844,4.4735,4.4794,4.4548,4.4045,4.3643,4.3441,4.2629,4.1551,4.0504,4.0225,3.9717,3.9497,3.9805,7.0009,7.0009,7.0009,6.9925,6.9804,6.9798,6.9671,6.9434,6.9324,6.9218,6.9214,6.9079,6.9028,6.8989,6.9013,6.9013,6.9013,6.9013,6.9013,6.9013,6.9013,6.8915,6.8922,6.8935,6.8626,6.8367,6.8075,6.768,6.735,6.6896,6.6538,6.6467,6.6077,6.6407,6.7321,6.6701,6.6786,6.7928,6.7205,6.6394,6.6166,6.5326,6.4219,6.3498,6.3273,6.3176,6.3095,6.2982,6.2801,6.2227,6.1737,6.1428,6.0918,6.0629,6.0629,6.0629,6.0629,6.0462,5.997,5.9403,5.912,5.87,5.8063,5.7808,5.7074,5.5622,5.5298,5.5024,5.4694,5.4552,5.4552,5.3957,5.3718,5.384,5.3913,5.3792,5.3449,5.3202,5.3124,5.2975,5.2825,5.2193,5.199,5.2041,5.1987,5.0539,5.0143,5.0223,4.9638,4.8692,4.7949,4.7531,4.6913,4.6317,4.6088,4.6117,4.5562,4.5272,4.5127,4.4918,4.4991,4.4848,4.4613,4.4284,4.3937,4.3423,4.2805,4.2277,4.1591,4.0734,4.0382,4.0103,4.0014,3.9901,4.0035,7.0009,7.0009,7.0009,6.9885,6.9749,6.9606,6.9407,6.9198,6.9119,6.9097,6.9048,6.9035,6.9013,6.9013,6.9013,6.9013,6.9013,6.9013,6.8986,6.8986,6.9013,6.8787,6.8604,6.8467,6.8176,6.7763,6.7403,6.7176,6.6809,6.633,6.6027,6.6015,6.585,6.6134,6.6331,6.6135,6.5882,6.6183,6.6562,6.6198,6.5607,6.4813,6.366,6.2806,6.2381,6.2036,6.1698,6.1572,6.1479,6.1205,6.1113,6.0937,6.0786,6.0629,6.0629,6.061,6.0495,5.9852,5.8885,5.8126,5.7915,5.7723,5.7465,5.6392,5.5185,5.4403,5.4366,5.4324,5.3913,5.3621,5.3621,5.3596,5.3572,5.3547,5.3522,5.3522,5.3148,5.2725,5.2474,5.2272,5.1735,5.1036,5.0696,5.08,5.0407,4.9342,4.8855,4.8665,4.7923,4.6608,4.5694,4.5373,4.4815,4.437,4.501,4.5214,4.4806,4.4547,4.4483,4.4678,4.5093,4.4988,4.4756,4.417,4.3376,4.2558,4.1888,4.1303,4.0935,4.055,4.0161,4.0053,4.0034,4.0035,4.0035,7.0009,6.9971,6.993,6.9873,6.9774,6.9459,6.9213,6.9053,6.9013,6.9013,6.9013,6.9013,6.9013,6.9013,6.9013,6.9013,6.9013,6.9,6.8959,6.8787,6.867,6.8412,6.818,6.7962,6.7606,6.7176,6.6784,6.6515,6.6223,6.6001,6.5767,6.5715,6.5741,6.5728,6.5721,6.5446,6.4869,6.4842,6.5804,6.4888,6.3802,6.3587,6.2837,6.1973,6.1503,6.1318,6.0979,6.0862,6.0805,6.0705,6.0667,6.0648,6.0629,6.0629,6.061,6.0624,5.9747,5.9027,5.7508,5.6863,5.6663,5.661,5.5726,5.4616,5.3905,5.3451,5.3743,5.3816,5.3669,5.3621,5.3621,5.3103,5.265,5.2323,5.1914,5.1783,5.1502,5.1166,5.0984,5.0776,5.0566,4.9798,4.8801,4.8801,4.8584,4.8254,4.7866,4.7341,4.6387,4.4396,4.332,4.3111,4.2684,4.2443,4.3015,4.3576,4.3606,4.3796,4.3838,4.3945,4.4231,4.4442,4.4657,4.4055,4.2792,4.184,4.1082,4.0808,4.0554,4.022,4.0072,4.0053,4.0035,4.0035,4.0035,7.0009,6.9971,6.9823,6.9751,6.9711,6.9374,6.9144,6.8989,6.9013,6.9013,6.9013,6.9013,6.9013,6.9013,6.9013,6.9013,6.9006,6.8935,6.8715,6.8436,6.8271,6.7854,6.7577,6.7393,6.7041,6.667,6.64,6.6162,6.5832,6.5715,6.5715,6.5715,6.5715,6.5623,6.5427,6.5074,6.4467,6.4067,6.4621,6.4066,6.2833,6.2401,6.1971,6.1301,6.0829,6.0711,6.0391,6.0256,6.0295,6.0269,6.0366,6.0424,6.0462,6.0572,6.0591,5.9924,5.8147,5.7342,5.6293,5.5176,5.507,5.5212,5.372,5.2533,5.234,5.316,5.3284,5.335,5.3522,5.3547,5.3198,5.2399,5.1581,5.1142,5.054,5.0303,5.0038,4.9638,4.9477,4.9208,4.8964,4.8309,4.7281,4.6545,4.6349,4.5949,4.5497,4.5009,4.3813,4.1873,4.1691,4.1469,4.117,4.0769,4.0739,4.1231,4.1506,4.2274,4.2529,4.305,4.3212,4.3395,4.3555,4.3212,4.2101,4.1303,4.0691,4.0345,4.0202,4.0165,4.0072,4.0035,4.0035,4.0035,4.0035,6.9726,6.9591,6.9543,6.9503,6.9349,6.9177,6.9055,6.9033,6.9013,6.9013,6.9013,6.9013,6.9013,6.9013,6.9013,6.9013,6.8942,6.867,6.8279,6.823,6.7909,6.7364,6.6988,6.6773,6.6481,6.6126,6.5964,6.5951,6.5728,6.5715,6.5715,6.5715,6.5715,6.5442,6.5059,6.4916,6.4496,6.3947,6.4042,6.387,6.2744,6.2152,6.1749,6.0884,6.0495,6.0263,5.9662,5.9226,5.8887,5.8461,5.8305,5.8326,5.7692,5.7086,5.6041,5.6041,5.5071,5.4463,5.3501,5.2476,5.3099,5.3923,5.3584,5.3028,5.3126,5.2978,5.2888,5.28,5.3251,5.2524,5.1192,5.0617,5.0117,5.0091,4.9691,4.9638,4.9262,4.8279,4.792,4.7477,4.7141,4.6459,4.5653,4.4898,4.4223,4.3666,4.3045,4.2117,4.1055,4.0708,4.0531,4.046,4.0243,3.9837,3.9618,3.9506,3.987,4.0651,4.1381,4.2093,4.2292,4.2724,4.2547,4.2294,4.1932,4.1404,4.0557,4.0053,4.0091,4.0091,4.0035,4.0035,4.0035,4.0035,4.0035,6.9573,6.9402,6.9335,6.925,6.9144,6.9061,6.9013,6.9013,6.9013,6.9013,6.9013,6.9013,6.9013,6.8915,6.8874,6.8715,6.8619,6.823,6.7717,6.7615,6.7267,6.6751,6.6365,6.6199,6.6052,6.5796,6.5728,6.5767,6.5715,6.5715,6.5715,6.5715,6.5663,6.5135,6.4493,6.3947,6.3875,6.3408,6.3754,6.388,6.2265,6.1918,6.1368,6.0088,5.9964,5.9415,5.843,5.8178,5.7873,5.753,5.7465,5.6898,5.5752,5.5158,5.401,5.384,5.2435,5.1799,5.0907,5.0394,5.0692,5.1546,5.1899,5.1579,5.1651,5.1878,5.1758,5.1246,5.1476,5.1036,4.9611,4.9072,4.8501,4.8501,4.7842,4.7842,4.7648,4.6772,4.6031,4.5517,4.502,4.4287,4.332,4.2329,4.2231,4.1843,4.0685,3.9681,3.9147,3.9116,3.8768,3.88,3.8853,3.8641,3.8437,3.8011,3.8214,3.8862,3.9689,4.0751,4.1628,4.218,4.2036,4.1762,4.1682,4.1566,4.073,4.0035,4.0035,4.0035,4.0035,4.0035,3.9864,3.9789,3.9637,6.9392,6.9371,6.9237,6.9127,6.9015,6.9013,6.9013,6.9013,6.9013,6.9013,6.9013,6.8908,6.8908,6.8794,6.8389,6.823,6.8083,6.7652,6.7202,6.6806,6.6595,6.6211,6.5926,6.5822,6.5822,6.5741,6.5715,6.5715,6.5715,6.5715,6.5601,6.5588,6.5508,6.5062,6.3433,6.2448,6.1582,6.0937,6.1012,6.1265,6.0916,6.0772,6.0071,5.9205,5.9015,5.8643,5.7741,5.734,5.7052,5.6739,5.6655,5.5707,5.4432,5.384,5.3645,5.3446,5.1414,5.0153,4.9822,4.9777,5.0171,5.0828,5.0703,5.0002,4.8629,4.8485,4.9099,4.9423,4.9208,4.9099,4.8692,4.7922,4.7113,4.6434,4.5174,4.4708,4.4738,4.4228,4.3648,4.3118,4.2594,4.2041,4.0924,4.0243,4.0398,3.9587,3.8377,3.7674,3.7353,3.7018,3.6422,3.6449,3.6692,3.6752,3.7023,3.6582,3.6688,3.7046,3.7959,3.9289,4.0345,4.1136,4.1333,4.1154,4.0989,4.0876,4.0449,3.9978,4.0035,4.0035,4.0035,3.9353,3.9562,3.9315,3.8574,6.9189,6.911,6.9054,6.9067,6.8976,6.9013,6.9013,6.9013,6.9013,6.9013,6.8993,6.8611,6.8459,6.8303,6.7927,6.7671,6.7491,6.7062,6.6707,6.6411,6.6162,6.5886,6.578,6.5715,6.5715,6.5715,6.5715,6.5689,6.565,6.5702,6.5391,6.5136,6.5182,6.5351,6.4461,6.365,6.2458,6.191,6.1327,6.074,6.0614,5.9931,5.8876,5.8008,5.8112,5.7835,5.7399,5.6811,5.6505,5.6029,5.5289,5.4436,5.3938,5.3621,5.3621,5.2781,5.1483,4.9898,4.9713,4.9835,5.0392,5.1149,5.0498,4.9256,4.8404,4.7163,4.6975,4.7393,4.6803,4.6203,4.6088,4.5087,4.4268,4.4097,4.2895,4.2329,4.2291,4.2352,4.1691,4.0924,4.08,4.0584,3.9712,3.9367,3.8863,3.7373,3.6585,3.6292,3.6064,3.5691,3.5004,3.5118,3.5256,3.5502,3.5787,3.6223,3.6626,3.6986,3.7736,3.8708,3.9446,3.9971,4.0362,4.0539,4.0432,4.0146,3.9864,3.9581,3.9694,3.9751,3.8612,3.7368,3.7406,3.6888,3.6484,6.9048,6.9013,6.9013,6.9013,6.9013,6.9013,6.9013,6.9013,6.9013,6.9013,6.8986,6.8467,6.8137,6.7837,6.74,6.7088,6.7004,6.6434,6.6235,6.6052,6.5926,6.5767,6.5715,6.5715,6.5702,6.5715,6.5702,6.5627,6.5356,6.5176,6.481,6.4372,6.4009,6.439,6.3833,6.2397,6.1571,6.0962,5.9992,5.9348,5.933,5.8516,5.7941,5.7052,5.7368,5.6723,5.729,5.6601,5.6059,5.5422,5.4332,5.3925,5.3618,5.2272,5.2471,5.3163,5.2437,5.0697,4.9598,4.9048,4.9743,5.1092,4.9935,4.7871,4.6062,4.5834,4.531,4.4645,4.4611,4.4204,4.3606,4.2291,4.156,4.1346,4.0985,4.0584,4.0522,4.0739,4.0305,3.9336,3.9084,3.8895,3.861,3.8377,3.6824,3.548,3.5216,3.507,3.5183,3.5037,3.5004,3.5099,3.5142,3.5351,3.5426,3.5938,3.6542,3.7165,3.7828,3.8728,3.9603,3.9807,3.943,3.9959,4.0053,3.9789,3.9505,3.9221,3.8365,3.7273,3.6252,3.5474,3.4811,3.4183,3.4363,6.9013,6.9013,6.9013,6.9013,6.9013,6.9013,6.9013,6.9006,6.8929,6.8901,6.8794,6.8389,6.7837,6.736,6.6809,6.6446,6.6387,6.5938,6.5835,6.5806,6.5702,6.5637,6.5482,6.5442,6.5504,6.5375,6.5573,6.5208,6.4823,6.4578,6.4206,6.4129,6.3712,6.2229,6.2042,6.2506,6.1539,5.9933,5.839,5.7643,5.7264,5.7354,5.7184,5.6729,5.563,5.5176,5.7405,5.6615,5.5953,5.5839,5.4021,5.2972,5.1894,5.0257,4.9947,5.1347,5.152,5.0481,4.8425,4.7591,4.8083,4.8221,4.7584,4.5959,4.3505,4.3844,4.2978,4.1201,4.2781,4.2624,4.1293,3.9931,3.99,3.9587,3.9116,3.8641,3.8451,3.8736,3.8483,3.7695,3.718,3.6889,3.6597,3.6585,3.5348,3.5249,3.5004,3.5004,3.5004,3.5023,3.5023,3.4924,3.5,3.5127,3.5145,3.5976,3.6925,3.7681,3.7376,3.8084,3.8867,3.8694,3.8099,3.8327,3.7849,3.8765,3.9069,3.7619,3.6213,3.4872,3.4088,3.3813,3.3221,3.1926,3.1846,6.9013,6.9013,6.9013,6.9013,6.9013,6.9013,6.8969,6.8929,6.8574,6.8436,6.8279,6.7845,6.7304,6.6707,6.6211,6.5928,6.5913,6.5757,6.5728,6.5715,6.5663,6.5356,6.4933,6.4714,6.4484,6.3825,6.4751,6.5239,6.4578,6.3912,6.3793,6.4673,6.4024,6.4317,6.4828,6.3953,6.2265,6.0285,5.8325,5.6957,5.63,5.6807,5.6616,5.7006,5.79,5.9171,5.8616,5.7068,5.6262,5.5645,5.3591,5.1257,4.9928,4.8109,4.7509,4.7819,4.9682,4.8886,4.6854,4.5463,4.5083,4.4879,4.4338,4.4034,4.1159,3.8377,3.7341,3.9712,4.0955,4.0708,3.9993,3.8705,3.8388,3.7802,3.7256,3.665,3.6247,3.6487,3.6325,3.6116,3.5985,3.5447,3.5348,3.5103,3.5004,3.5004,3.5004,3.5004,3.5023,3.5061,3.4891,3.4588,3.4792,3.5067,3.5573,3.6537,3.7423,3.7886,3.6831,3.6653,3.6486,3.639,3.6474,3.5691,3.4872,3.5263,3.5302,3.4811,3.4222,3.3221,3.2388,3.211,3.1247,2.964,2.9006,6.9013,6.9013,6.9013,6.9013,6.9013,6.9013,6.885,6.8634,6.8327,6.812,6.78,6.7283,6.6838,6.6481,6.5903,6.5715,6.5779,6.6038,6.5857,6.5325,6.529,6.4952,6.4267,6.3902,6.376,6.3543,6.3971,6.492,6.5641,6.4957,6.4518,6.5639,6.4811,6.4654,6.443,6.389,6.2256,6.0548,5.8969,5.7495,5.6518,5.6034,5.6186,5.7285,5.8639,5.9126,5.9,5.7913,5.7641,5.5134,5.332,5.0533,4.8432,4.7106,4.5769,4.5343,4.6698,4.6295,4.4252,4.3194,4.2473,4.1987,4.2071,4.2045,4.004,3.7417,3.6312,3.7802,3.7834,3.777,3.7449,3.6921,3.6533,3.6292,3.5887,3.548,3.5348,3.5037,3.5004,3.5004,3.5037,3.5136,3.5136,3.4976,3.4967,3.5127,3.5286,3.508,3.4975,3.4874,3.4564,3.4162,3.4235,3.4468,3.5166,3.5581,3.5922,3.5963,3.4915,3.4558,3.4306,3.4291,3.4528,3.4049,3.33,3.2205,3.1021,3.1142,3.1607,3.1207,3.0686,3.0056,2.9357,2.7892,2.7823,6.9013,6.9,6.8959,6.8908,6.8881,6.8787,6.8551,6.8154,6.8006,6.7754,6.7273,6.6732,6.6388,6.6187,6.5737,6.5482,6.5467,6.5554,6.5412,6.5052,6.5173,6.4821,6.3872,6.3512,6.3894,6.3776,6.3913,6.4954,6.5307,6.5544,6.588,6.5379,6.3638,6.272,6.275,6.2084,6.0298,5.9137,5.8948,5.8355,5.7052,5.5643,5.6486,5.7825,5.8623,5.8519,5.8437,5.7891,5.7453,5.4404,5.2835,5.086,4.9057,4.8313,4.6721,4.5844,4.4863,4.4206,4.2643,4.1397,4.042,3.9931,3.9881,3.965,3.8419,3.639,3.507,3.5004,3.5183,3.548,3.5625,3.5183,3.507,3.507,3.5136,3.507,3.5004,3.5004,3.5004,3.5004,3.499,3.5004,3.4407,3.4634,3.4903,3.529,3.5508,3.5128,3.4818,3.4391,3.4025,3.2907,3.2635,3.2648,3.3069,3.3044,3.3307,3.3583,3.3017,3.2588,3.234,3.2164,3.2483,3.2285,3.219,3.1287,2.9883,2.9087,2.8951,2.9033,2.9235,2.8572,2.7659,2.7536,2.7495,6.9013,6.8942,6.8529,6.8397,6.8303,6.7953,6.7763,6.7518,6.7166,6.6947,6.6606,6.6234,6.6031,6.5706,6.5219,6.4486,6.3701,6.3989,6.4712,6.5044,6.5346,6.5549,6.5495,6.5559,6.5119,6.4604,6.5267,6.5458,6.472,6.3589,6.2714,6.2848,6.2329,6.1204,6.0853,6.1194,5.9012,5.7825,5.7243,5.7191,5.679,5.7242,5.8148,5.7528,5.9427,5.892,5.6842,5.5431,5.3969,5.3273,5.1768,5.0292,5.0158,4.7514,4.6283,4.6996,4.5771,4.3815,4.1904,4.0316,3.9074,3.8122,3.8026,3.7256,3.6292,3.5756,3.5004,3.5004,3.5004,3.5004,3.5004,3.5004,3.5004,3.5004,3.4971,3.4938,3.4787,3.4687,3.4621,3.4619,3.5007,3.44,3.3208,3.3161,3.3607,3.4004,3.364,3.3428,3.3529,3.3273,3.291,3.1748,3.0934,3.0901,3.065,3.0664,3.107,3.141,3.1161,3.0771,3.046,3.0192,2.9519,2.9209,2.9438,2.9909,2.8735,2.77,2.7973,2.8083,2.7973,2.7769,2.7577,2.7467,2.7426,6.8663,6.8678,6.9194,6.8798,6.803,6.8335,6.845,6.8174,6.7884,6.7966,6.8245,6.8123,6.7821,6.7279,6.6819,6.6136,6.5669,6.5501,6.5697,6.5671,6.5985,6.6109,6.5492,6.5533,6.5288,6.5495,6.6377,6.6302,6.5042,6.3573,6.3533,6.2984,6.2511,6.1995,6.1573,6.1207,5.9739,5.8342,5.8045,5.7844,5.6913,5.7362,5.7612,5.6647,5.6565,5.6192,5.4557,5.2613,5.2017,5.2214,5.1245,5.1031,4.9515,4.6776,4.3377,4.4393,4.2701,4.0463,3.9246,3.8126,3.7414,3.6455,3.6292,3.5789,3.5269,3.5004,3.5004,3.5004,3.5004,3.5004,3.4938,3.5004,3.5004,3.4872,3.4137,3.3719,3.3652,3.3652,3.3356,3.3026,3.1715,3.0471,3.0384,3.1816,3.2278,3.2171,3.1738,3.1815,3.199,3.1918,3.1865,3.0623,2.9485,2.9122,2.8432,2.8714,2.921,2.9431,2.93,2.9031,2.8762,2.8694,2.7973,2.7426,2.7426,2.8137,2.7426,2.7426,2.7426,2.7467,2.7577,2.7618,2.7467,2.7426,2.7426,6.8621,6.8937,6.992,6.951,6.8434,6.9358,6.9621,6.9291,6.9254,6.968,7.0106,7.0198,6.9346,6.87,6.8614,6.8021,6.695,6.6668,6.6803,6.6581,6.669,6.6831,6.6286,6.6352,6.5872,6.581,6.6096,6.6492,6.5879,6.5326,6.3528,6.3729,6.2829,6.2064,6.1468,6.1443,5.9826,5.7865,5.8154,5.7535,5.6611,5.6627,5.6658,5.5717,5.3671,5.2979,5.2945,5.2233,5.1352,5.1117,5.1352,5.0641,4.8029,4.3423,4.1432,4.1568,3.9824,3.7988,3.6916,3.5761,3.5199,3.5004,3.517,3.507,3.5037,3.5004,3.5004,3.5004,3.5004,3.4787,3.4588,3.3752,3.3971,3.3634,3.2659,3.1832,3.173,3.1323,3.076,2.9568,2.7276,2.5583,2.8234,3.0224,3.0348,3.0114,2.9674,2.9578,2.9702,2.9844,3.0155,2.9357,2.8231,2.7439,2.6649,2.7322,2.7721,2.8059,2.8018,2.7734,2.7824,2.7482,2.7426,2.7426,2.7426,2.7426,2.7426,2.7426,2.7426,2.7426,2.7426,2.7426,2.7426,2.7426,2.7426,7.0325,7.1416,6.9861,6.9829,7.0606,7.0431,7.0239,7.0225,7.0305,6.9757,6.9397,6.9239,6.8979,6.7854,6.734,6.6764,6.6444,6.6212,6.6797,6.7008,6.7257,6.7555,6.7985,6.7747,6.732,6.6841,6.6046,6.5047,6.4097,6.2734,6.209,6.0597,6.0087,6.0082,5.9179,5.8954,5.8504,5.6486,5.6852,5.6346,5.4629,5.5441,5.5464,5.4429,5.2452,5.1806,5.1573,5.1568,5.0747,4.9282,5.0622,4.7808,4.3678,4.0298,4.0273,4.0307,3.8554,3.6903,3.5896,3.5189,3.4872,3.5004,3.4905,3.4872,3.4687,3.4437,3.4318,3.447,3.454,3.4123,3.276,3.1782,3.0881,3.0539,3.0299,2.9956,2.9665,2.8452,2.716,2.58,2.4911,2.5194,2.7277,2.869,2.8366,2.8008,2.7516,2.7203,2.7243,2.7443,2.8124,2.7803,2.7532,2.6925,2.6582,2.6976,2.6897,2.707,2.7029,2.7158,2.743,2.7346,2.7426,2.7426,2.7426,2.7426,2.7426,2.7426,2.7426,2.7426,2.7426,2.7426,2.7426,2.7426,2.7426,6.9817,7.0343,6.9446,6.8736,6.8446,6.8941,6.9184,6.9164,6.8819,6.9156,6.9932,6.967,6.9438,6.9139,6.8816,6.8245,6.7839,6.7386,6.7578,6.7973,6.8148,6.8543,6.9025,6.7907,6.6857,6.6131,6.4908,6.4099,6.3199,6.2084,6.0972,6.0348,6.0406,5.9412,5.86,5.8831,5.7442,5.5458,5.5303,5.5124,5.3754,5.402,5.3649,5.3562,5.236,5.0938,5.025,5.0857,4.9759,4.7572,4.5886,4.3496,4.058,4.0053,4.0053,3.956,3.7792,3.6067,3.5711,3.4829,3.3952,3.4872,3.3065,3.2475,3.2018,3.1407,3.1407,3.2018,3.2581,3.2497,3.1,2.9819,2.9681,2.9406,2.8645,2.8034,2.772,2.6366,2.475,2.4271,2.3941,2.5262,2.632,2.7237,2.7266,2.7427,2.6858,2.6918,2.6832,2.6723,2.7116,2.7307,2.7061,2.6735,2.6475,2.6332,2.6307,2.6347,2.6502,2.6929,2.69,2.7006,2.729,2.7426,2.7426,2.7426,2.6949,2.7385,2.7426,2.6908,2.6702,2.7208,2.729,2.6949,2.6867,6.9001,6.9302,6.8941,6.7994,6.7026,6.7821,6.8343,6.8308,6.7501,6.8335,6.9746,6.9834,6.969,6.9785,6.9864,7.0033,6.9056,6.9013,6.9255,6.9123,6.8992,6.8661,6.7815,6.6049,6.4978,6.4603,6.352,6.2919,6.2707,6.1746,6.1193,6.1023,6.0568,6.0028,5.8844,5.8352,5.6952,5.4832,5.4339,5.4047,5.3138,5.2347,5.2319,5.2519,5.1961,5.0516,4.9388,4.9658,4.8319,4.4876,4.2068,4.0917,4.0204,4.0035,3.9769,3.8971,3.6941,3.5702,3.5443,3.334,3.2322,3.3116,3.1306,2.9544,2.9459,2.8661,2.8504,2.9459,3.0551,3.0689,2.918,2.8575,2.7984,2.76,2.6774,2.6063,2.5851,2.4821,2.4169,2.4025,2.4183,2.4761,2.5966,2.682,2.6938,2.6709,2.6793,2.6926,2.68,2.6598,2.699,2.7426,2.7048,2.6566,2.6333,2.6126,2.6061,2.6035,2.6502,2.6915,2.6235,2.6101,2.6607,2.6949,2.7085,2.6649,2.5924,2.6225,2.5594,2.5635,2.5511,2.5004,2.4879,2.6101,2.6237,6.9021,7.0286,6.8736,6.8874,6.9536,6.9305,6.8562,6.874,6.7694,6.7234,6.7344,6.8264,6.813,6.7581,6.8872,6.9275,6.9189,6.9068,6.9112,6.8716,6.7953,6.6857,6.5878,6.4275,6.3603,6.3369,6.2108,6.1612,6.1334,6.1278,6.1138,6.0514,5.9595,5.9042,5.8188,5.7203,5.5709,5.4084,5.3689,5.2822,5.1403,5.1406,5.1138,5.0844,5.0805,5.0202,4.8559,4.6779,4.4776,4.0823,4.0336,4.0053,4.0035,4.0035,3.9446,3.8172,3.7067,3.4881,3.2305,3.0682,3.0025,2.9922,2.9647,2.9544,2.8887,2.7919,2.764,2.8749,3.0538,2.9334,2.7391,2.5567,2.5106,2.4985,2.4487,2.4156,2.412,2.4026,2.3918,2.3934,2.4769,2.5905,2.6802,2.7324,2.7322,2.6367,2.5042,2.5458,2.5883,2.5128,2.5128,2.5936,2.597,2.5933,2.5706,2.5489,2.5256,2.482,2.5049,2.518,2.4437,2.4578,2.5458,2.5841,2.5388,2.4962,2.4566,2.385,2.3174,2.3061,2.328,2.2435,2.1965,2.3903,2.5293,6.8186,6.8254,6.6664,6.6122,6.6167,6.5877,6.5735,6.5525,6.4766,6.46,6.5077,6.5272,6.5885,6.705,6.7677,6.84,6.9047,6.8415,6.808,6.782,6.6691,6.5403,6.412,6.2782,6.2135,6.2055,6.1502,6.0685,5.9999,5.9884,5.9305,5.8572,5.777,5.6927,5.6134,5.5133,5.4081,5.2799,5.2439,5.2084,5.0916,5.129,5.062,4.9527,4.9443,4.8915,4.6761,4.4029,4.1784,4.0541,4.0035,4.0035,4.0035,4.0035,3.9693,3.8955,3.5558,3.2076,2.8823,2.7935,2.7345,2.6563,2.6281,2.6281,2.6246,2.5872,2.5532,2.6317,2.6669,2.6317,2.5127,2.4442,2.399,2.3583,2.1829,2.0511,2.0511,2.0693,2.0559,2.0779,2.1699,2.3345,2.704,2.7324,2.6775,2.5382,2.3382,2.3726,2.4566,2.305,2.2258,2.255,2.2656,2.2629,2.2443,2.2683,2.2633,2.1817,2.1865,2.2389,2.208,2.2091,2.2602,2.2852,2.3185,2.3144,2.2477,2.1798,2.1035,2.0615,2.0877,2.0919,2.1547,2.2894,2.3892,6.6749,6.6133,6.4753,6.381,6.3208,6.29,6.2868,6.2718,6.1981,6.211,6.2521,6.2431,6.3367,6.499,6.5618,6.6613,6.7174,6.6924,6.6731,6.6468,6.5103,6.3678,6.2677,6.1303,6.0628,6.0514,5.9913,5.9363,5.8307,5.8218,5.7653,5.638,5.6068,5.507,5.3947,5.3522,5.257,5.1652,5.1151,5.0699,5.054,5.0168,4.9224,4.7923,4.7796,4.662,4.4107,4.1932,4.0639,4.0128,4.0035,4.0035,3.9789,3.7525,3.5873,3.5236,3.2003,2.8359,2.6431,2.6203,2.5618,2.414,2.4507,2.4074,2.3957,2.3954,2.3918,2.3918,2.3918,2.4026,2.399,2.3918,2.3534,2.2911,2.034,1.8438,1.8365,1.807,1.7555,1.6779,1.7301,2.0242,2.3532,2.514,2.4653,2.3082,2.1464,2.0551,2.1882,2.1286,2.0289,2.0151,2.0196,1.9803,1.9539,1.9978,1.9905,1.917,1.9046,1.9559,1.9116,1.9438,1.9836,2.0331,2.138,2.1097,2.0415,1.9742,1.8941,1.8138,1.8062,1.7723,1.9026,2.0835,2.1704,6.4703,6.4551,6.3639,6.316,6.2949,6.2159,6.1759,6.1704,6.0931,6.0146,5.9762,6.0491,6.0742,6.0603,6.2832,6.3965,6.3992,6.4902,6.5353,6.4414,6.2856,6.1387,6.0939,5.9625,5.9014,5.8779,5.7623,5.6805,5.653,5.653,5.6411,5.582,5.4438,5.3761,5.3115,5.22,5.1261,5.0723,4.9521,4.8777,4.8697,4.7236,4.6121,4.5908,4.5758,4.4278,4.1677,4.1674,4.1507,4.0298,3.9846,3.9637,3.8461,3.2309,2.9006,2.9127,2.7097,2.6048,2.5904,2.5832,2.5234,2.4305,2.4474,2.4552,2.4061,2.397,2.3918,2.3918,2.3918,2.3883,2.3739,2.3847,2.2851,2.1335,1.8978,1.7813,1.796,1.7776,1.6234,1.3778,1.2931,1.4769,1.9983,2.0883,2.0953,2.0302,1.8917,1.879,1.9625,1.9368,1.8761,1.8886,1.9127,1.86,1.7543,1.7951,1.8033,1.7224,1.6607,1.6279,1.5517,1.6738,1.757,1.8908,1.9911,1.9077,1.8367,1.7731,1.6967,1.6371,1.5526,1.4386,1.532,1.7528,1.9035,6.3867,6.2816,6.2483,6.2071,6.1467,6.0418,5.9996,5.982,5.8893,5.821,5.7956,5.8417,5.8807,5.9604,6.1204,6.2512,6.3374,6.3867,6.309,6.124,6.0086,5.916,5.8129,5.7502,5.7291,5.714,5.6652,5.5851,5.4818,5.4723,5.4273,5.3115,5.1472,5.0569,5.0367,4.8834,4.7865,4.7796,4.7166,4.6779,4.6616,4.6064,4.5065,4.3999,4.3875,4.2553,4.0385,4.0688,4.0715,4.0034,3.8702,3.7406,3.573,3.0821,2.7426,2.7189,2.6417,2.6029,2.654,2.5775,2.5138,2.5204,2.4695,2.4305,2.4422,2.4061,2.3931,2.3918,2.3883,2.3403,2.2551,2.3019,2.1744,1.7904,1.6632,1.5797,1.4614,1.4428,1.3546,1.2929,1.2211,1.3296,1.5128,1.6046,1.6858,1.7977,1.6592,1.591,1.7315,1.655,1.588,1.5842,1.6761,1.6671,1.5812,1.5843,1.601,1.5411,1.4702,1.407,1.3736,1.5091,1.571,1.7046,1.7418,1.6534,1.6379,1.5704,1.5534,1.4814,1.4257,1.3878,1.4135,1.5755,1.7196,6.2964,6.1827,6.1218,6.0565,6.0003,5.8844,5.8368,5.8284,5.753,5.692,5.6632,5.6641,5.6923,5.782,5.9353,6.058,6.1537,6.181,6.0597,5.8516,5.8131,5.7472,5.6595,5.638,5.6099,5.5482,5.4513,5.3298,5.2216,5.1556,5.0823,4.9713,4.8339,4.7749,4.7656,4.644,4.5673,4.5623,4.5101,4.4778,4.4742,4.4222,4.3277,4.2085,4.19,4.14,4.011,3.9391,3.9083,3.9034,3.7046,3.4615,3.1846,2.8925,2.7508,2.732,2.6626,2.6599,2.7139,2.6191,2.5606,2.5542,2.4853,2.4459,2.4498,2.4149,2.3667,2.2995,2.3547,2.2731,2.0947,2.1346,1.9626,1.4801,1.4241,1.3725,1.2803,1.2427,1.2208,1.2208,1.2208,1.2418,1.2895,1.3589,1.4743,1.579,1.4985,1.4349,1.5597,1.4815,1.3759,1.371,1.3683,1.4141,1.429,1.4532,1.4722,1.4448,1.4023,1.3506,1.3589,1.4213,1.4149,1.4467,1.4387,1.4158,1.4128,1.4092,1.4264,1.392,1.3835,1.3878,1.3963,1.4857,1.6131,6.1811,6.1438,5.9742,5.9027,5.8773,5.7627,5.7161,5.7139,5.7008,5.6282,5.5467,5.5398,5.4973,5.4675,5.6927,5.774,5.8033,5.8774,5.8101,5.6499,5.6407,5.6253,5.5886,5.5638,5.4797,5.3357,5.0329,4.8776,4.8567,4.7198,4.6368,4.5962,4.5878,4.5708,4.5673,4.5316,4.5352,4.4886,4.3548,4.2801,4.2581,4.1326,4.0524,4.026,4.011,3.9959,3.9846,3.7982,3.6867,3.6519,3.4771,3.1687,2.8572,2.7631,2.7426,2.7372,2.7359,2.7346,2.7335,2.6684,2.5827,2.5412,2.4818,2.4168,2.3779,2.3479,2.2695,2.1527,2.2009,2.1973,1.8721,1.8144,1.6558,1.3096,1.2577,1.2577,1.2283,1.2208,1.2208,1.2208,1.2208,1.2449,1.2856,1.3416,1.3894,1.4178,1.4006,1.4049,1.4207,1.3927,1.348,1.3453,1.3486,1.3467,1.3329,1.3271,1.3499,1.367,1.3438,1.3327,1.3486,1.3427,1.3427,1.3693,1.3739,1.3779,1.3835,1.3835,1.3835,1.3835,1.3835,1.3835,1.3878,1.4135,1.532,6.0593,5.9801,5.9169,5.8451,5.7616,5.6431,5.5965,5.5874,5.5112,5.4552,5.427,5.4228,5.4034,5.4136,5.6386,5.6856,5.5629,5.6617,5.6257,5.4749,5.4654,5.4081,5.301,5.1746,5.0469,4.9114,4.6885,4.5512,4.4965,4.4882,4.4855,4.4767,4.4071,4.373,4.3475,4.2417,4.1866,4.1809,4.1271,4.0935,4.0879,4.0336,4.0035,3.9864,3.8632,3.7944,3.7906,3.5864,3.4127,3.273,3.1951,3.0258,2.781,2.7426,2.7426,2.7426,2.7413,2.7406,2.7322,2.6465,2.5905,2.5809,2.3758,2.2344,2.2351,2.0896,1.9815,1.8685,1.7582,1.641,1.5751,1.4942,1.3613,1.2615,1.2208,1.2208,1.2208,1.2208,1.2208,1.2208,1.2208,1.2452,1.2889,1.3447,1.3762,1.3835,1.3835,1.3835,1.3759,1.3569,1.3385,1.3385,1.3421,1.3294,1.3335,1.3329,1.3513,1.3453,1.3283,1.3243,1.3291,1.3133,1.3192,1.3565,1.3726,1.3815,1.3835,1.3835,1.3835,1.3835,1.3835,1.3835,1.3835,1.3835,1.4264,5.9575,5.8823,5.801,5.7227,5.6417,5.5252,5.4771,5.47,5.3962,5.3621,5.3547,5.3078,5.3083,5.3438,5.4358,5.3813,5.2571,5.3082,5.2493,5.0975,5.0247,4.9488,4.8402,4.7259,4.6306,4.5671,4.4585,4.3419,4.2335,4.1984,4.2133,4.217,4.1367,4.1248,4.1428,4.029,3.9731,4.0015,4.0035,4.0035,4.0091,4.0035,3.9183,3.7773,3.6407,3.5747,3.5708,3.3655,3.1911,3.0551,2.9814,2.8789,2.759,2.7426,2.7426,2.7387,2.7399,2.7283,2.6898,2.5993,2.5474,2.5548,2.2795,2.1194,2.0846,1.8191,1.6308,1.6345,1.4025,1.284,1.3583,1.3021,1.2245,1.2208,1.2208,1.2208,1.2208,1.2208,1.2208,1.2208,1.2214,1.2433,1.2948,1.348,1.3821,1.3835,1.3835,1.3782,1.3641,1.3399,1.3302,1.3381,1.3342,1.3302,1.3388,1.3427,1.3394,1.3283,1.3152,1.312,1.3172,1.3073,1.3159,1.3532,1.3713,1.3772,1.3835,1.3835,1.3835,1.3835,1.3835,1.3835,1.3835,1.3835,1.3835,5.8896,5.8472,5.6342,5.5467,5.5235,5.4179,5.3621,5.3522,5.3473,5.3424,5.3049,5.1905,5.1773,5.2264,5.0259,4.9073,4.8514,4.8253,4.7338,4.5878,4.4338,4.3288,4.3144,4.3044,4.3066,4.2945,4.2545,4.1607,4.0016,3.8447,3.7852,3.8587,3.8178,3.8418,3.9334,3.8789,3.8902,3.9148,3.9259,3.9543,3.9543,3.9581,3.7619,3.4363,3.3576,3.3513,3.326,3.1527,3.0364,3.031,2.8518,2.7508,2.7426,2.7426,2.7426,2.7417,2.7347,2.6937,2.6159,2.5165,2.474,2.4612,2.2125,2.0573,1.9935,1.5723,1.3613,1.4867,1.3321,1.2245,1.2433,1.2352,1.2239,1.2208,1.2208,1.2208,1.2208,1.2208,1.2208,1.2208,1.2208,1.2413,1.2929,1.3453,1.372,1.3749,1.3762,1.3654,1.346,1.3212,1.3145,1.3263,1.3223,1.3133,1.3348,1.3368,1.332,1.3191,1.2968,1.2862,1.2974,1.3125,1.3276,1.3467,1.369,1.3772,1.3828,1.3835,1.3835,1.3835,1.3835,1.3835,1.3835,1.3835,1.3835,5.843,5.7465,5.6056,5.4883,5.4131,5.3767,5.3078,5.2171,5.2095,5.1504,5.0484,4.9242,4.8111,4.7003,4.6034,4.5317,4.472,4.4588,4.4257,4.384,4.341,4.3089,4.2977,4.1823,4.0823,4.0059,3.8823,3.7545,3.6605,3.6375,3.664,3.6906,3.7301,3.7093,3.6376,3.6405,3.5892,3.5044,3.5204,3.5397,3.538,3.538,3.485,3.3671,3.215,3.1352,3.1312,2.9398,2.8287,2.8246,2.7741,2.7426,2.7426,2.7426,2.7426,2.7348,2.662,2.5672,2.4573,2.3331,2.3062,2.3694,1.947,1.6743,1.6262,1.4017,1.2652,1.3058,1.2577,1.2208,1.2208,1.2208,1.2208,1.2208,1.2208,1.2208,1.2208,1.2208,1.2208,1.2208,1.2208,1.2325,1.2538,1.3212,1.3602,1.3335,1.325,1.3223,1.3329,1.3026,1.2915,1.3322,1.3164,1.3166,1.3342,1.3276,1.304,1.2889,1.2671,1.2585,1.2941,1.3034,1.3159,1.3434,1.369,1.3821,1.3789,1.3815,1.3835,1.3835,1.3835,1.3835,1.3835,1.3835,1.3835,5.7074,5.635,5.5165,5.427,5.3538,5.2526,5.1605,5.0717,4.9737,4.8851,4.7785,4.531,4.3827,4.3052,4.2131,4.1819,4.1809,4.1169,4.0841,4.0808,4.0095,3.9818,3.9718,3.8655,3.7944,3.7247,3.55,3.4327,3.3881,3.3566,3.3633,3.3954,3.4347,3.4431,3.4071,3.4199,3.3964,3.3191,3.3431,3.2761,3.1342,3.1102,3.1062,3.0941,2.9909,2.9222,2.9114,2.8137,2.7282,2.7007,2.7035,2.6931,2.6697,2.6269,2.597,2.5944,2.5311,2.461,2.3968,2.1595,2.0616,2.1451,1.7567,1.5202,1.5091,1.3358,1.2208,1.2208,1.2208,1.2208,1.2208,1.2208,1.2208,1.2208,1.2208,1.2208,1.2208,1.2208,1.2208,1.2208,1.2208,1.2245,1.2327,1.2862,1.3192,1.3126,1.3159,1.3184,1.3258,1.3106,1.3106,1.3296,1.3066,1.3007,1.3192,1.3119,1.2962,1.269,1.2472,1.2426,1.279,1.2908,1.3113,1.3394,1.3657,1.3746,1.3674,1.3729,1.3835,1.3835,1.3835,1.3835,1.3835,1.3835,1.3703,5.5351,5.5078,5.4155,5.3542,5.2925,5.0591,4.9414,4.8872,4.6884,4.5642,4.4422,4.0839,3.959,4.0019,3.8893,3.8762,3.9369,3.7962,3.7337,3.7196,3.5526,3.4739,3.4929,3.4592,3.4455,3.4241,3.2847,3.2087,3.1933,3.0504,3.0004,3.0483,3.0398,3.1107,3.2121,3.2203,3.2423,3.2952,3.2921,3.1113,2.7581,2.7348,2.7333,2.7413,2.7426,2.74,2.7432,2.7359,2.71,2.6436,2.6383,2.619,2.5516,2.4542,2.3944,2.3983,2.3957,2.3898,2.3679,2.007,1.7701,1.7435,1.576,1.4764,1.4726,1.3246,1.2208,1.2208,1.2208,1.2208,1.2208,1.2208,1.2208,1.2208,1.2208,1.2208,1.2208,1.2208,1.2208,1.2208,1.2208,1.2208,1.2228,1.2466,1.271,1.2876,1.3001,1.3126,1.308,1.3093,1.3179,1.3264,1.3007,1.2843,1.2948,1.3021,1.2856,1.2663,1.2597,1.2585,1.2677,1.2876,1.3081,1.3238,1.3447,1.3661,1.3618,1.3637,1.3828,1.3835,1.3795,1.3782,1.3746,1.3687,1.3539,5.486,5.4059,5.3748,5.2473,5.0461,4.7993,4.63,4.5207,4.4611,4.1576,3.7356,3.744,3.6997,3.621,3.7251,3.7138,3.6194,3.5723,3.5546,3.5362,3.37,3.2843,3.276,3.1391,3.0761,3.0727,3.0384,3.0146,3.0128,2.975,2.9658,2.9801,3.0139,2.9763,2.8815,2.9631,2.938,2.8103,2.7692,2.7198,2.6684,2.6683,2.6891,2.7374,2.7426,2.7165,2.6695,2.7152,2.6918,2.5944,2.6216,2.5801,2.4425,2.4048,2.3918,2.3918,2.3918,2.3896,2.3608,1.8622,1.486,1.3703,1.3133,1.2908,1.2878,1.2464,1.2208,1.2208,1.2201,1.2208,1.2208,1.2208,1.2208,1.2208,1.2208,1.2208,1.2208,1.2208,1.2208,1.2208,1.2208,1.2208,1.2252,1.2305,1.2385,1.2458,1.2452,1.2684,1.2902,1.2704,1.2737,1.2928,1.3021,1.2862,1.273,1.2717,1.2604,1.2347,1.2314,1.2406,1.2598,1.2856,1.2994,1.3034,1.3421,1.3575,1.3506,1.3631,1.3769,1.3762,1.3582,1.3484,1.3506,1.3375,1.3125,5.2172,5.1055,5.0414,4.9352,4.7965,4.6639,4.4623,4.214,4.0291,3.7435,3.444,3.5419,3.5453,3.4744,3.5822,3.5854,3.4971,3.4104,3.3734,3.36,3.1832,3.1034,3.0949,3.0009,2.9544,2.9475,2.8645,2.8193,2.8124,2.7356,2.697,2.7,2.7237,2.7062,2.6452,2.7214,2.7114,2.6126,2.6048,2.6125,2.6436,2.6735,2.702,2.7413,2.7426,2.723,2.6891,2.6929,2.6657,2.6048,2.6074,2.5672,2.4775,2.4204,2.3451,2.2464,2.2841,2.2331,2.0567,1.7023,1.422,1.2409,1.207,1.1913,1.1811,1.1798,1.1857,1.1952,1.2135,1.2208,1.2208,1.2208,1.2208,1.2208,1.2208,1.2208,1.2221,1.2214,1.2214,1.2214,1.2214,1.2208,1.2208,1.2208,1.2208,1.2208,1.2245,1.2373,1.277,1.2499,1.2411,1.2743,1.2711,1.2604,1.2504,1.2471,1.2411,1.2234,1.2208,1.2312,1.2438,1.2664,1.277,1.2704,1.3093,1.3283,1.3072,1.3297,1.3407,1.3434,1.3302,1.3243,1.3258,1.3152,1.2935,4.8938,4.7633,4.6539,4.5866,4.5555,4.5555,4.3315,3.9427,3.5623,3.382,3.3609,3.399,3.4182,3.4323,3.4658,3.489,3.4872,3.3114,3.2271,3.217,3.0128,2.9129,2.9129,2.8887,2.8749,2.8645,2.7055,2.6246,2.6084,2.4727,2.3918,2.3954,2.3918,2.4277,2.4887,2.5424,2.5593,2.5412,2.5827,2.6099,2.6242,2.6762,2.7004,2.6895,2.709,2.7174,2.678,2.6534,2.6251,2.5779,2.5374,2.5155,2.5018,2.3671,2.2274,2.0802,2.147,2.0235,1.6559,1.525,1.3932,1.219,1.1762,1.1482,1.1229,1.1155,1.13,1.16,1.2009,1.2232,1.2148,1.2135,1.2142,1.2232,1.2208,1.2214,1.2234,1.1875,1.1636,1.2128,1.2228,1.2214,1.2214,1.2214,1.2214,1.2214,1.2214,1.2332,1.2511,1.2391,1.2365,1.2504,1.2391,1.2228,1.2272,1.2252,1.2259,1.2208,1.2208,1.2252,1.2279,1.2511,1.2545,1.228,1.275,1.2902,1.2724,1.2856,1.304,1.3046,1.3014,1.2961,1.2955,1.2942,1.273,4.7616,4.6419,4.617,4.4888,4.3024,4.2998,4.0729,3.6817,3.3777,0.0,0.0,3.1534,3.2254,3.2882,3.3688,3.4359,3.4872,3.3114,3.2271,3.2102,2.8714,2.714,2.7055,2.5624,2.4928,2.4856,2.4549,2.4406,2.4335,2.4049,2.3918,2.3918,2.3918,2.424,2.4887,2.5424,2.5204,2.4282,2.4321,2.4643,2.5136,2.5253,2.4998,2.4212,2.5761,2.5645,2.3704,2.5425,2.5255,2.2779,2.282,2.2739,2.2278,1.9848,1.9083,2.0457,2.0773,1.934,1.5924,1.2504,1.0663,1.0797,1.1124,1.1135,1.0647,1.064,1.0819,1.1313,1.189,1.2146,1.1784,1.1801,1.1893,1.2219,1.2208,1.2214,1.2114,1.0337,0.9868,1.1756,1.2103,1.2185,1.2027,1.2014,1.2234,1.2234,1.2221,1.2316,1.2336,1.2285,1.2272,1.2332,1.2298,1.2208,1.2208,1.2208,1.2208,1.2208,1.2208,1.2208,1.2279,1.2471,1.2492,1.2254,1.2684,1.2862,1.2704,1.2823,1.3048,1.3067,1.2876,1.2697,1.2677,1.2525,1.2391,4.4924,4.3179,4.2487,4.1532,0.0,3.9624,3.7754,3.5151,3.2976,3.1255,3.0012,3.0876,3.1514,3.191,3.2764,3.2942,3.2427,3.064,2.9542,2.8895,2.6121,2.4981,2.5198,2.4335,2.3918,2.3918,2.3918,2.3918,2.3918,2.3918,2.3918,2.3918,2.3918,2.424,2.4874,2.4826,2.4503,2.3918,2.424,2.4526,2.4887,2.5162,2.5094,2.4663,2.5548,0.0,0.0,0.0,0.0,0.0,0.0,0.0,0.0,1.9601,1.9974,2.0584,2.0578,1.8245,1.2968,1.0677,0.9794,1.0449,1.0744,1.0604,1.0052,1.0019,1.0316,1.1003,1.15,1.1692,1.1511,1.1462,1.1557,1.1732,1.1873,1.1893,1.1489,0.9011,0.8519,1.1398,1.0384,0.91,0.91,0.909,0.9851,1.185,1.2234,1.2221,1.2208,1.2208,1.2208,1.2208,1.2208,1.2208,1.2208,1.2208,1.2208,1.2208,1.2208,1.2208,1.2208,1.2365,1.2373,1.235,1.2464,1.263,1.2491,1.2525,1.2631,1.2618,1.2512,1.2458,1.2444,1.2345,1.2208,4.2118,3.9964,3.8933,3.851,3.831,3.6222,3.4762,3.3713,3.2266,3.1004,3.0012,3.0705,3.1163,3.1294,3.1665,3.1204,3.0032,2.7916,2.6538,2.5633,2.3938,2.3356,2.375,2.3866,2.3918,2.3918,2.3918,2.3853,2.3763,2.3763,2.375,2.375,2.375,2.4071,2.4628,0.0,0.0,0.0,2.4446,2.468,2.4693,2.4786,2.4814,2.4914,2.4941,0.0,2.4788,2.4731,2.4496,2.4027,2.3435,0.0,0.0,0.0,0.0,0.0,0.0,0.0,0.0,0.0,0.0,0.0,0.9992,0.9904,0.9493,0.9497,0.9882,1.0726,1.1025,1.1089,1.1111,1.1139,1.1151,1.1153,1.1408,1.0918,0.9178,0.6622,0.6128,0.9467,0.697,0.4903,0.5092,0.6405,0.8598,1.1687,1.2216,1.2234,1.2214,1.2208,1.2208,1.2208,1.2208,1.2208,1.2208,1.2208,1.2208,1.2208,1.2208,1.2208,1.2208,1.2252,1.2245,1.2245,1.2208,1.2259,1.2214,1.2208,1.2241,1.2208,1.2214,1.2208,1.2208,1.2245,1.2208,4.0092,3.8759,3.8535,3.851,3.8112,3.3547,3.1876,3.2259,3.0836,3.0096,2.9974,3.004,3.0553,3.1178,2.9944,2.9661,2.9938,2.6811,2.5298,2.5088,2.3749,2.317,2.3274,2.372,2.3918,2.3918,2.3918,2.3694,2.3226,2.3213,2.3213,2.3248,2.3213,2.3499,2.3957,2.2923,2.2897,2.3905,2.3983,2.4035,2.4022,2.2456,2.1813,2.2228,2.227,2.2052,2.1651,2.3175,2.3071,2.0965,2.0393,2.016,2.0214,2.0547,1.812,0.0,1.1225,0.0,0.0,0.0,0.0,0.0,0.0,0.0,0.0,0.9385,0.9808,1.0506,1.0563,1.0598,1.0577,1.0595,1.0608,1.0602,1.1038,0.8668,0.0,0.1062,0.0994,0.1494,0.1128,0.0,0.0,0.7167,1.1433,1.2054,1.2047,1.1926,1.2234,1.2214,1.2208,1.2208,1.2208,1.2208,1.2208,1.2208,1.2208,1.2208,1.2208,1.2208,1.2208,1.2208,1.2208,1.2208,1.2208,1.2208,1.2208,1.2208,1.2208,1.2208,1.2208,1.2208,1.2208,1.2208,1.2208,3.8485,3.6729,3.6055,3.5424,3.4591,3.1475,3.0335,3.054,2.9168,2.8534,2.8515,2.8515,2.8369,2.8022,2.7324,2.635,2.5118,2.392,2.3095,2.2598,2.2279,2.2329,2.262,2.3213,2.3282,2.2915,2.2373,2.227,2.2505,2.1631,2.1711,2.256,2.2581,2.1858,2.0515,2.0653,2.102,2.1576,2.2828,2.3085,2.2274,2.0402,1.946,1.9755,2.0404,2.0875,2.1008,2.2879,2.3088,2.1392,2.0943,2.0699,2.0607,2.0578,1.8671,0.0,0.0,0.0,0.0,0.0,0.0,0.0,0.0,0.0,0.0,0.0,0.9681,0.9561,1.0108,1.0371,1.0007,0.9974,0.9338,0.7749,0.6051,0.3729,0.0,0.0,0.0,0.0,0.0,0.0,0.0,0.3222,0.7039,1.1699,1.0236,0.9621,1.1659,1.2216,1.2208,1.2208,1.2208,1.2208,1.2208,1.2208,1.2208,1.2208,1.2208,1.2208,1.2208,1.2208,1.2208,1.2208,1.2208,1.2208,1.2208,1.2208,1.2208,1.2208,1.2208,1.2208,1.2208,1.2208,1.2208,3.6579,3.478,3.2403,3.0997,3.0229,2.8769,2.828,2.8403,2.7361,2.6873,2.6848,2.6704,2.6048,2.4944,2.4328,2.2938,2.1022,2.1004,2.0724,2.0243,2.0872,2.1207,2.1238,2.1941,2.1839,2.0914,2.0081,2.0044,2.0609,1.9316,1.9385,2.069,2.0556,1.9369,1.7299,1.8144,1.8726,1.8848,2.0674,2.1186,2.0155,1.8341,1.7592,1.807,1.874,1.9553,2.0571,2.2525,2.3065,2.1847,2.1626,2.1252,2.063,2.007,0.0,0.0,0.0,0.0,0.0,0.0,0.0,0.0,0.0,0.6398,0.6729,0.0,0.8962,0.0,0.9381,0.9914,0.9379,0.8051,0.0,0.0,0.16,0.0,0.0,0.0,0.0,0.0,0.0,0.0,0.0,0.0,0.2333,0.8363,0.8246,0.8608,1.1657,1.2227,1.2208,1.2208,1.2208,1.2208,1.2208,1.2208,1.2208,1.2208,1.2208,1.2208,1.2208,1.2208,1.2208,1.2208,1.2208,1.2208,1.2208,1.2208,1.2219,1.2152,1.2199,1.2208,1.2208,1.2208,1.2208,3.3963,3.3284,2.7483,2.5436,2.5876,2.4691,2.4669,2.5399,2.53,2.5252,2.5237,2.475,2.4162,2.335,2.1004,0.0,2.0414,1.8871,1.8455,1.9026,2.0118,1.9895,1.8481,1.9442,1.9083,1.7506,1.72,1.682,1.6471,1.6076,1.618,1.6737,1.5952,1.5614,1.5699,1.5816,1.6092,1.6559,1.7035,1.7479,1.7923,1.6259,1.6271,1.8024,1.6999,1.7416,1.9342,2.1621,2.2161,2.0874,2.1251,2.1286,2.0569,0.0,0.0,0.0,0.0,0.0,0.0,0.0,0.0,0.0,0.0,0.0,0.0,0.0,0.0,0.7166,0.8196,0.0,0.881,0.3962,0.0,0.0,0.0,0.0,0.0,0.0,0.0,0.0,0.0,0.0,0.0,0.0,0.0,0.0885,0.7206,1.1848,1.2214,1.2152,1.2234,1.2208,1.2208,1.2208,1.2208,1.2208,1.2239,1.2181,1.2208,1.2168,1.2168,1.2212,1.2194,1.2168,1.2201,1.2225,1.2194,1.2192,1.2152,1.1794,1.1996,1.2225,1.2161,1.2192,1.2192,2.9702,2.7721,2.4535,2.2807,2.2191,2.2097,2.1905,2.1582,2.2002,2.2106,2.2117,2.1911,2.1504,2.075,1.897,0.0,0.0,0.0,1.5533,1.676,1.672,1.6921,1.7237,1.7204,1.6607,1.5551,1.4832,1.4682,1.5068,1.402,1.2945,1.1982,0.0,1.1638,1.2504,1.313,1.3745,1.4356,1.575,1.6688,1.7133,1.6994,1.7101,1.7478,1.7367,1.7907,1.9218,2.127,2.1828,2.0643,2.0863,2.026,0.0,0.0,0.0,0.0,0.0,0.0,0.0,0.0,0.0,0.0,0.0,0.5208,0.4755,0.0,0.0,0.0,0.7636,0.7308,0.375,0.1397,0.0,0.0,0.0,0.0,0.0,0.0,0.0,0.0,0.0,0.0,0.0,0.0,0.0,0.0,0.4885,0.8482,0.8502,0.0,1.2214,1.2208,1.2208,1.2208,1.2208,1.2208,1.2186,1.1933,1.1755,1.1672,1.1672,1.1672,1.1636,1.1665,1.1672,1.1665,1.1665,1.1527,1.1414,1.1445,1.155,1.1665,1.1665,1.1665,1.1725,2.5104,0.0,0.0,0.0,0.0,1.98,1.937,1.8325,1.865,1.8943,1.925,1.8975,0.0,0.0,0.0,0.0,0.0,0.0,1.3488,1.4363,1.4082,1.4244,1.4878,1.4482,1.3833,1.2895,1.2165,1.2135,1.2646,1.1438,1.0191,0.8867,0.0,0.0,0.0,0.0,1.1553,1.2109,1.3813,1.5156,1.6012,1.667,1.7076,1.7109,1.8207,1.887,1.9026,2.1057,2.154,2.0165,1.9487,0.0,0.0,0.0,0.0,0.0,0.0,0.0,0.0,0.0,0.0,0.0,0.0,0.0,0.0,0.0,0.0,0.0,0.0,0.0,0.0,0.0,0.0,0.0,0.0,0.0,0.0,0.0,0.0,0.0,0.0,0.0,0.0,0.0,0.0,0.0,0.0,0.5122,0.7455,1.0358,1.2177,1.198,1.195,0.0,1.2099,1.2009,1.1903,1.1705,1.1471,1.1306,1.1357,1.1333,1.1306,1.1363,1.1273,1.1069,1.0852,1.0647,1.066,1.0858,1.1011,1.1064,1.1036,1.1036,1.1122,0.0,0.0,0.0,0.0,1.7592,0.0,0.0,0.0,1.5527,1.5924,0.0,1.5916,0.0,0.0,0.0,0.0,1.2897,1.2991,0.0,0.0,1.2839,1.2282,1.0676,1.1137,1.0526,0.8991,0.8958,0.8782,0.8402,0.8102,0.801,0.0,0.0,0.0,0.0,0.0,0.9632,0.9708,1.0688,1.2137,1.4243,1.4601,1.5527,1.7186,1.9335,1.9872,1.8656,2.0858,2.1148,1.8993,1.6793,0.0,0.0,0.0,0.0,0.0,0.0,0.0,0.0,0.0,0.0,0.0,0.0,0.0,0.0,0.0,0.0,0.0,0.0,0.0,0.0,0.0,0.0,0.0,0.0,0.0,0.0,0.0,0.0,0.0,0.0,0.0,0.0,0.0,0.0,0.0,0.0,0.0,0.0,0.0,1.2014,1.142,1.1306,1.1377,1.1653,1.1498,1.137,1.1597,0.0,0.0,1.1607,1.1416,1.1326,1.1558,1.1194,1.0608,0.9777,0.9793,0.992,0.9983,1.0244,1.0481,1.0501,1.0429,1.058,0.0,0.0,0.0,0.0,0.0,0.0,0.0,0.0,0.0,1.2732,1.3077,1.2732,0.0,0.0,0.0,0.0,0.0,0.0,0.0,0.0,0.971,0.9699,0.9777,0.9421,0.8832,0.8122,0.8109,0.765,0.0,0.0,0.0,0.0,0.0,0.0,0.0,0.0,0.9078,0.9302,1.0164,1.231,1.5641,1.5953,1.7605,2.0905,2.1094,2.0504,1.9252,2.0465,2.0441,0.0,0.0,0.0,0.0,0.0,0.0,0.0,0.0,0.0,0.0,0.0,0.0,0.0,0.0,0.0,0.0,0.0,0.0,0.0,0.0,0.0,0.0,0.0,0.0,0.0,0.0,0.0,0.0,0.0,0.0,0.0,0.0,0.0,0.0,0.0,0.0,0.0,0.4592,0.7995,0.8176,0.0,0.0,0.0,0.0,0.0,0.0,0.0,1.1043,1.1148,1.0945,1.0726,1.0562,1.0318,1.0161,1.0259,0.0,0.0,0.9104,0.8913,0.8831,0.9091,0.903,0.9037,0.93,0.9492,0.9741,0.0,0.0,0.0,0.0,0.0,0.0,0.0,0.0,0.0,1.0091,1.0214,0.0,0.0,0.0,0.0,0.0,0.0,0.0,0.0,0.0,0.0,0.0,0.8333,0.7797,0.0,0.0,0.0,0.0,0.0,0.0,0.0,0.0,0.0,0.0,0.0,0.0,0.8783,0.8874,0.9937,1.25,1.6584,1.66,1.8588,2.2647,2.1717,2.0783,2.0003,0.0,0.0,0.0,0.0,0.0,0.0,0.0,0.0,0.0,0.0,0.0,0.0,0.0,0.0,0.0,0.0,0.0,0.0,0.0,0.0,0.0,0.0,0.0,0.0,0.0,0.0,0.0,0.0,0.0,0.0,0.0,0.0,0.0,0.0,0.0,0.0,0.0,0.0,0.0,0.4702,0.7585,0.6011,0.8754,1.0812,0.0,0.0,0.0,0.0,0.0,0.0,0.0,0.0,0.0,0.0,0.0,0.0,0.0,0.9091,0.8696,0.8365,0.8168,0.8092,0.8405,0.0,0.0,0.0,0.0,0.0,0.0,0.0,0.0,0.0,0.0,0.0,0.0,0.0,0.0,0.0,0.8467,0.0,0.0,0.7835,0.0,0.0,0.0,0.0,0.0,0.0,0.0,0.0,0.0,0.0,0.0,0.0,0.0,0.0,0.0,0.0,0.0,0.0,0.0,0.0,0.0,0.0,0.8557,0.8217,0.9798,1.2574,1.6554,1.6498,1.8229,2.194,2.1132,2.0556,2.0515,0.0,0.0,0.0,0.0,0.0,0.0,0.0,0.0,0.0,0.0,0.0,0.0,0.0,0.0,0.0,0.0,0.0,0.0,0.0,0.0,0.0,0.0,0.0,0.0,0.0,0.0,0.0,0.0,0.0,0.0,0.0,0.0,0.0,0.0,0.0,0.0,0.0,0.0,0.0,0.0,0.1304,0.4769,0.7693,0.9575,0.954,0.9586,0.977,1.0388,1.0128,1.0029,0.0,0.0,0.0,0.0,0.0,0.0,0.0,0.0,0.0,0.0,0.0,0.0,0.0,0.0,0.0,0.0,0.0,0.0,0.0,0.0,0.0,0.0,0.0,0.0,0.0,0.0,0.0,0.0,0.0,0.0,0.0,0.0,0.0,0.0,0.0,0.0,0.0,0.0,0.0,0.0,0.0,0.0,0.0,0.0,0.0,0.0,0.0,0.0,0.0,0.0,0.0,0.0,0.0,0.0,0.8288,0.819,1.0607,1.3277,1.6131,1.7072,1.8887,2.1426,2.0516,1.9752,1.9368,0.0,0.0,0.0,0.0,0.0,0.0,0.0,0.0,0.0,0.0,0.0,0.0,0.0,0.0,0.0,0.0,0.0,0.0,0.0,0.0,0.0,0.0,0.0,0.0,0.0,0.0,0.0,0.0,0.0,0.0,0.0,0.0,0.0,0.0,0.0,0.0,0.0,0.0,0.0,0.0,0.1085,0.4157,0.7105,0.9021,0.9217,0.9587,0.9794,0.9827,0.9744,0.9688,0.9803,0.0,0.0,0.0,0.0,0.0,0.0,0.0,0.0,0.0,0.0,0.0,0.0,0.0,0.0,0.0,0.0,0.0,0.0,0.0,0.0,0.0,0.0,0.0,0.0,0.0,0.0,0.0,0.0,0.0,0.0,0.0,0.0,0.0,0.0,0.0,0.0,0.0,0.0,0.0,0.0,0.0,0.0,0.0,0.0,0.0,0.0,0.0,0.0,0.0,0.0,0.0,0.0,0.0,0.8477,0.9139,1.134,1.3908,1.6794,1.7661,1.9022,2.1036,2.0153,1.9163,0.0,0.0,0.0,0.0,0.0,0.0,0.0,0.0,0.0,0.0,0.0,0.0,0.0,0.0,0.0,0.0,0.0,0.0,0.0,0.0,0.0,0.0,0.0,0.0,0.0,0.0,0.0,0.0,0.0539,0.0,0.0,0.0,0.0,0.0,0.0,0.0,0.0,0.0,0.0,0.0,0.0,0.1361,0.5102,0.7407,0.0,0.0,0.9179,0.9421,0.9365,0.9395,0.9326,0.9243,0.9072,0.0,0.0,0.0,0.0,0.0,0.0,0.0,0.0,0.0,0.0,0.0,0.0,0.0,0.0,0.0,0.0,0.0,0.0,0.0,0.0,0.0,0.0,0.0,0.0,0.0,0.0,0.0,0.0,0.0,0.0,0.0,0.0,0.0,0.0,0.0,0.0,0.0,0.0,0.0,0.0,0.0,0.0,0.0,0.0,0.0,0.0,0.0,0.0,0.0,0.0,0.0,0.0,0.9023,1.0701,1.1947,1.4485,1.8261,1.8327,1.8979,2.0464,1.9906,1.882,0.0,0.0,0.0,0.0,0.0,0.0,0.0,0.0,0.0,0.0,0.0,0.0,0.0,0.0,0.0,0.0,0.0,0.0,0.0,0.0,0.0,0.0,0.0,0.0,0.0,0.0,0.0,0.0,0.0,0.0,0.0,0.0,0.0,0.0,0.0,0.0,0.0,0.0,0.0,0.0,0.0,0.2054,0.7095,0.8315,0.8557,0.0,0.8518,0.8829,0.9011,0.9058,0.8994,0.869,0.0,0.0,0.0,0.0,0.0,0.0,0.0,0.0,0.0,0.0,0.0,0.0,0.0,0.0,0.0,0.0,0.0,0.0,0.0,0.0,0.0,0.0,0.0,0.0,0.0,0.0,0.0,0.0,0.0,0.0,0.0,0.0,0.0,0.0,0.0,0.0,0.0,0.0,0.0,0.0,0.0,0.0,0.0,0.0,0.0,0.0,0.0,0.0,0.0,0.0,0.0,0.0,0.0,0.0,1.1103,1.3046,1.5388,1.8105,1.9313,1.9943,1.9863,1.9322,0.0,0.0,0.0,0.0,0.0,0.0,0.0,0.0,0.0,0.0,0.0,0.0,0.0,0.0,0.0,0.0,0.0,0.0,0.0,0.0,0.0,0.0,0.0,0.0,0.0,0.0,0.0,0.284,0.0,0.0,0.0,0.0,0.0,0.0,0.0,0.0,0.0,0.0,0.0,0.0,0.0,0.0,0.3949,0.7563,0.7966,0.7941,0.0,0.0,0.8947,0.8215,0.8524,0.8498,0.0,0.0,0.0,0.0,0.0,0.0,0.0,0.0,0.0,0.0,0.0,0.0,0.0,0.0,0.0,0.0,0.0,0.0,0.0,0.0,0.0,0.0,0.0,0.0,0.0,0.0,0.0,0.0,0.0,0.0,0.0,0.0,0.0,0.0,0.0,0.0,0.0,0.0,0.0,0.0,0.0,0.0,0.0,0.0,0.0,0.0,0.0,0.0,0.0,0.0,0.0,0.0,0.0,0.0,0.9036,1.1887,1.3572,1.5819,1.8667,1.9958,2.017,1.9322,1.9202,1.8309,0.0,0.0,0.0,0.0,0.0,0.0,0.0,0.0,0.0,0.0,0.0,0.0,0.0,0.0,0.0,0.0,0.0,0.0,0.0,0.0,0.0,0.0,0.0,0.0,0.0,0.0,0.0,0.0,0.0,0.0,0.0,0.0,0.0,0.0,0.0,0.0,0.0,0.0,0.0,0.0,0.0,0.0,0.7449,0.7771,0.0,0.0,0.0,0.8843,0.8052,0.0,0.0,0.0,0.0,0.0,0.0,0.0,0.0,0.0,0.0,0.0,0.0,0.0,0.0,0.0,0.0,0.0,0.0,0.0,0.0,0.0,0.0,0.0,0.0,0.0,0.0,0.0,0.0,0.0,0.0,0.0,0.0,0.0,0.0,0.0,0.0,0.0,0.0,0.0,0.0,0.0,0.0,0.0,0.0,0.0,0.0,0.0,0.0,0.0,0.0,0.0,0.0,0.0,0.0,0.0,0.0,0.0,1.2706,1.3938,1.6139,1.9486,2.0304,2.0044,1.8924,1.9244,1.8165,0.0,0.0,0.0,0.0,0.0,0.0,0.0,0.0,0.0,0.0,0.0,0.0,0.0,0.0,0.0,0.0,0.0,0.0,0.0,0.0,0.0,0.0,0.0,0.0,0.0,0.0,0.0,0.0,0.0,0.0,0.0,0.0,0.0,0.0,0.0,0.0,0.0,0.0,0.0,0.0,0.0,0.7773,0.7077,0.7618,0.7896,0.0,0.0,0.8458,0.8125,0.7856,0.0,0.0,0.0,0.0,0.0,0.0,0.0,0.0,0.0,0.0,0.0,0.0,0.0,0.0,0.0,0.0,0.0,0.0,0.0,0.0,0.0,0.0,0.0,0.0,0.0,0.0,0.0,0.0,0.0,0.0,0.0,0.0,0.0,0.0,0.0,0.0,0.0,0.0,0.0,0.0,0.0,0.0,0.0,0.0,0.0,0.0,0.0,0.0,0.0,0.0,0.0,0.0,0.0,0.0,0.0,0.0,1.2801,1.5049,1.7335,1.9529,2.0248,2.0031,1.8895,1.8463,1.7348,0.0,0.0,0.0,0.0,0.0,0.0,0.0,0.0,0.0,0.0,0.0,0.0,0.0,0.0,0.0,0.0,0.0,0.0,0.0,0.0,0.0,0.0,0.0,0.0,0.0,0.0,0.0,0.0,0.0,0.0,0.0,0.0,0.0,0.0,0.0,0.0,0.0,0.0,0.0,0.0,0.0,0.715,0.7006,0.7311,0.0,0.0,0.0,0.0,0.7585,0.7311,0.0,0.0,0.0,0.0,0.0,0.0,0.0,0.0,0.0,0.0,0.0,0.0,0.0,0.0,0.0,0.0,0.0,0.0,0.0,0.0,0.0,0.0,0.0,0.0,0.0,0.0,0.0,0.0,0.0,0.0,0.0,0.0,0.0,0.0,0.0,0.0,0.0,0.0,0.0,0.0,0.0,0.0,0.0,0.0,0.0,0.0,0.0,0.0,0.0,0.0,0.0,0.0,0.0,0.0,0.0,0.0,1.3584,1.5226,1.7102,1.9173,1.9845,1.9728,1.8911,1.8243,1.7115,0.0,0.0,0.0,0.0,0.0,0.0,0.0,0.0,0.0,0.0,0.0,0.0,0.0,0.0,0.0,0.0,0.0,0.0,0.0,0.0,0.0,0.0,0.0,0.0,0.0,0.0,0.0,0.0,0.0,0.0,0.0,0.0,0.0,0.0,0.0,0.0,0.0,0.0,0.0,0.0,0.6408,0.6732,0.6808,0.0,0.0,0.0,0.0,0.0,0.0,0.6993,0.6692,0.0,0.0,0.0,0.0,0.0,0.0,0.0,0.0,0.0,0.0,0.0,0.0,0.0,0.0,0.0,0.0,0.0,0.0,0.0,0.0,0.0,0.0,0.0,0.0,0.0,0.0,0.0,0.0,0.0,0.0,0.0,0.0,0.0,0.0,0.0,0.0,0.0,0.0,0.0,0.0,0.0,0.0,0.0,0.0,0.0,0.0,0.0,0.0,0.0,0.0,0.0,0.0,0.0,0.0,0.0,1.4124,1.5136,1.6706,1.8789,1.9283,1.9338,1.8856,1.8088,1.6921,1.5416,0.0,0.0,0.0,0.0,0.0,0.0,0.0,0.0,0.0,0.0,0.0,0.0,0.0,0.0,0.0,0.0,0.0,0.0,0.0,0.0,0.0,0.0,0.0,0.0,0.0,0.0,0.0,0.0,0.0,0.0,0.0,0.0,0.0,0.0,0.0,0.0,0.0,0.0,0.0,0.555,0.6507,0.0,0.0,0.0,0.0,0.0,0.0,0.0,0.0,0.6454,0.0,0.0,0.0,0.0,0.0,0.0,0.0,0.0,0.0,0.0,0.0,0.0,0.0,0.0,0.0,0.0,0.0,0.0,0.0,0.0,0.0,0.0,0.0,0.0,0.0,0.0,0.0,0.0,0.0,0.0,0.0,0.0,0.0,0.0,0.0,0.0,0.0,0.0,0.0,0.0,0.0,0.0,0.0,0.0,0.0,0.0,0.0,0.0,0.0,0.0,0.0,0.0,0.0,0.0,0.0,0.0,1.5335,1.7501,1.8804,1.8935,1.8948,1.8859,1.7361,1.6155,1.5331,0.0,0.0,0.0,0.0,0.0,0.0,0.0,0.0,0.0,0.0,0.0,0.0,0.0,0.0,0.0,0.0,0.0,0.0,0.0,0.0,0.0,0.0,0.0,0.0,0.0,0.0,0.0,0.0,0.0,0.0,0.0,0.0,0.0,0.0,0.0,0.0,0.0,0.0,0.4927,0.6128,0.0,0.0,0.0,0.0,0.0,0.0,0.0,0.0,0.6492,0.0,0.0,0.0,0.0,0.0,0.0,0.0,0.0,0.0,0.0,0.0,0.0,0.0,0.0,0.0,0.0,0.0,0.0,0.0,0.0,0.0,0.0,0.0,0.0,0.0,0.0,0.0,0.0,0.0,0.0,0.0,0.0,0.0,0.0,0.0,0.0,0.0,0.0,0.0,0.0,0.0,0.0,0.0,0.0,0.0,0.0,0.0,0.0,0.0,0.0,0.0,0.0,0.0,0.0,0.0,0.0,0.0,0.0,1.7088,1.792,1.8178,1.8333,1.8309,1.6687,1.552,0.0,0.0,0.0,0.0,0.0,0.0,0.0,0.0,0.0,0.0,0.0,0.0,0.0,0.0,0.0,0.0,0.0,0.0,0.0,0.0,0.0,0.0,0.0,0.0,0.0,0.0,0.0,0.0,0.0,0.0,0.0,0.0,0.0,0.0,0.0,0.0,0.0,0.0,0.0,0.0,0.0,0.0,0.0,0.0,0.0,0.0,0.0,0.0,0.0,0.0,0.0,0.0,0.0,0.0,0.0,0.0,0.0,0.0,0.0,0.0,0.0,0.0,0.0,0.0,0.0,0.0,0.0,0.0,0.0,0.0,0.0,0.0,0.0,0.0,0.0,0.0,0.0,0.0,0.0,0.0,0.0,0.0,0.0,0.0,0.0,0.0,0.0,0.0,0.0,0.0,0.0,0.0,0.0,0.0,0.0,0.0,0.0,0.0,0.0,0.0,0.0,0.0,0.0,0.0,0.0,0.0,0.0,0.0,1.6426,1.7114,1.7503,1.7697,1.7697,1.6066,1.4988,0.0,0.0,0.0,0.0,0.0,0.0,0.0,0.0,0.0,0.0,0.0,0.0,0.0,0.0,0.0,0.0,0.0,0.0,0.0,0.0,0.0,0.0,0.0,0.0,0.0,0.0,0.0,0.0,0.0,0.0,0.0,0.0,0.0,0.0,0.0,0.0,0.0,0.0,0.0,0.0,0.0,0.0,0.0,0.0,0.0,0.0,0.0,0.0,0.5887,0.0,0.0,0.0,0.0,0.0,0.0,0.0,0.0,0.0,0.0,0.0,0.0,0.0,0.0,0.0,0.0,0.0,0.0,0.0,0.0,0.0,0.0,0.0,0.0,0.0,0.0,0.0,0.0,0.0,0.0,0.0,0.0,0.0,0.0,0.0,0.0,0.0,0.0,0.0,0.0,0.0,0.0,0.0,0.0,0.0,0.0,0.0,0.0,0.0,0.0,0.0,0.0,0.0,0.0,0.0,0.0,0.0,0.0,0.0,1.5988,1.7088,1.7153,1.7192,1.7127,1.554,1.4648,0.0,0.0,0.0,0.0,0.0,0.0,0.0,0.0,0.0,0.0,0.0,0.0,0.0,0.0,0.0,0.0,0.0,0.0,0.0,0.0,0.0,0.0,0.0,0.0,0.0,0.0,0.0,0.0,0.0,0.0,0.0,0.0,0.0,0.0,0.0,0.0,0.0,0.0,0.0,0.0,0.0,0.0,0.0,0.0,0.0,0.0,0.0,0.0,0.0,0.0,0.0,0.0,0.0,0.0,0.0,0.0,0.0,0.0,0.0,0.0,0.0,0.0,0.0,0.0,0.0,0.0,0.0,0.0,0.0,0.0,0.0,0.0,0.0,0.0,0.0,0.0,0.0,0.0,0.0,0.0,0.0,0.0,0.0,0.0,0.0,0.0,0.0,0.0,0.0,0.0,0.0,0.0,0.0,0.0,0.0,0.0,0.0,0.0,0.0,0.0,0.0,0.0,0.0,0.0,0.0,0.0,0.0,0.0,1.5128,1.5618,1.5959,1.5959,1.5644,1.5254,1.4591,0.0,0.0,0.0,0.0,0.0,0.0,0.0,0.0,0.0,0.0,0.0,0.0,0.0,0.0,0.0,0.0,0.0,0.0,0.0,0.0,0.0,0.0,0.0,0.0,0.0,0.0,0.0,0.0,0.0,0.0,0.0,0.0,0.0,0.0,0.0,0.0,0.0,0.0,0.0,0.0,0.0,0.0,0.0,0.0,0.0,0.0,0.0,0.0,0.0,0.0,0.0,0.0,0.0,0.0,0.0,0.0,0.0,0.0,0.0,0.0,0.0,0.0,0.0,0.0,0.0,0.0,0.0,0.0,0.0,0.0,0.0,0.0,0.0,0.0,0.0,0.0,0.0,0.0,0.0,0.0,0.0,0.0,0.0,0.0,0.0,0.0,0.0,0.0,0.0,0.0,0.0,0.0,0.0,0.0,0.0,0.0,0.0,0.0,0.0,0.0,0.0,0.0,0.0,0.0,0.0,0.0,0.0,0.0,0.0,1.4596,1.4946,1.4994,1.4609,1.4946,1.4405,0.0,0.0,0.0,0.0,0.0,0.0,0.0,0.0,0.0,0.0,0.0,0.0,0.0,0.0,0.0,0.0,0.0,0.0,0.0,0.0,0.0,0.0,0.0,0.0,0.0,0.0,0.0,0.0,0.0,0.0,0.0,0.0,0.0,0.0,0.0,0.0,0.0,0.0,0.0,0.0,0.0,0.0,0.0,0.0,0.0,0.0,0.0,0.0,0.0,0.0,0.0,0.0,0.0,0.0,0.0,0.0,0.0,0.0,0.0,0.0,0.0,0.0,0.0,0.0,0.0,0.0,0.0,0.0,0.0,0.0,0.0,0.0,0.0,0.0,0.0,0.0,0.0,0.0,0.0,0.0,0.0,0.0,0.0,0.0,0.0,0.0,0.0,0.0,0.0,0.0,0.0,0.0,0.0,0.0,0.0,0.0,0.0,0.0,0.0,0.0,0.0,0.0,0.0,0.0,0.0,0.0,0.0,0.0,0.0,1.4582,1.4622,1.4643,1.4582,1.4622,1.4074,0.0,0.0,0.0,0.0,0.0,0.0,0.0,0.0,0.0,0.0,0.0,0.0,0.0,0.0,0.0,0.0,0.0,0.0,0.0,0.0,0.0,0.0,0.0,0.0,0.0,0.0,0.0,0.0,0.0,0.0,0.0,0.0,0.0,0.0,0.0,0.0,0.0,0.0,0.0,0.0,0.0,0.0,0.0,0.0,0.0,0.0,0.0,0.0,0.0,0.0,0.0,0.0,0.0,0.0,0.0,0.0,0.0,0.0,0.0,0.0,0.0,0.0,0.0,0.0,0.0,0.0,0.0,0.0,0.0,0.0,0.0,0.0,0.0,0.0,0.0,0.0,0.0,0.0,0.0,0.0,0.0,0.0,0.0,0.0,0.0,0.0,0.0,0.0,0.0,0.0,0.0,0.0,0.0,0.0,0.0,0.0,0.0,0.0,0.0,0.0,0.0,0.0,0.0,0.0,0.0,0.0,0.0,0.0,0.0,1.3985,1.4365,1.4582,1.4582,1.4582,1.4251,1.3568,0.0,0.0,0.0,0.0,0.0,0.0,0.0,0.0,0.0,0.0,0.0,0.0,0.0,0.0,0.0,0.0,0.0,0.0,0.0,0.0,0.0,0.0,0.0,0.0,0.0,0.0,0.0,0.0,0.0,0.0,0.0,0.0,0.0,0.0,0.0,0.0,0.0,0.0,0.0,0.0,0.0,0.0,0.0,0.0,0.0,0.0,0.0,0.0,0.0,0.0,0.0,0.0,0.0,0.0,0.0,0.0,0.0,0.0,0.0,0.0,0.0,0.0,0.0,0.0,0.0,0.0,0.0,0.0,0.0,0.0,0.0,0.0,0.0,0.0,0.0,0.0,0.0,0.0,0.0,0.0,0.0,0.0,0.0,0.0,0.0,0.0,0.0,0.0,0.0,0.0,0.0,0.0,0.0,0.0,0.0,0.0,0.0,0.0,0.0,0.0,0.0,0.0,0.0,0.0,0.0,0.0,0.0,0.0,1.3894,1.4513,1.4825,1.4821,1.498,1.4634,0.0,0.0,0.0,0.0,0.0,0.0,0.0,0.0,0.0,0.0,0.0,0.0,0.0,0.0,0.0,0.0,0.0,0.0,0.0,0.0,0.0,0.0,0.0,0.0,0.0,0.0,0.0,0.0,0.0,0.0,0.0,0.0,0.0,0.0,0.0,0.0,0.0,0.0,0.0,0.0,0.0,0.0,0.0,0.0,0.0,0.0,0.0,0.0,0.0,0.0,0.0,0.0,0.0,0.0,0.0,0.0,0.0,0.0,0.0,0.0,0.0,0.0,0.0,0.0,0.0,0.0,0.0,0.0,0.0,0.0,0.0,0.0,0.0,0.0,0.0,0.0,0.0,0.0,0.0,0.0,0.0,0.0,0.0,0.0,0.0,0.0,0.0,0.0,0.0,0.0,0.0,0.0,0.0,0.0,0.0,0.0,0.0,0.0,0.0,0.0,0.0,0.0,0.0,0.0,0.0,0.0,0.0,0.0,1.2219,1.4439,1.5001,1.5286,1.5341,1.5783,1.5201,0.0,0.0,0.0,0.0,0.0,0.0,0.0,0.0,0.0,0.0,0.0,0.0,0.0,0.0,0.0,0.0,0.0,0.0,0.0,0.0,0.0,0.0,0.0,0.0,0.0,0.0,0.0,0.0,0.0,0.0,0.0,0.0,0.0,0.0,0.0,0.0,0.0,0.0,0.0,0.0,0.0,0.0,0.0,0.0,0.0,0.0,0.0,0.0,0.0,0.0,0.0,0.0,0.0,0.0,0.0,0.0,0.0,0.0,0.0,0.0,0.0,0.0,0.0,0.0,0.0,0.0,0.0,0.0,0.0,0.0,0.0,0.0,0.0,0.0,0.0,0.0,0.0,0.0,0.0,0.0,0.0,0.0,0.0,0.0,0.0,0.0,0.0,0.0,0.0,0.0,0.0,0.0,0.0,0.0,0.0,0.0,0.0,0.0,0.0,0.0,0.0,0.0,0.0,0.0,0.0,0.0,0.0,0.0,0.0,1.2219,0.0,1.4737,1.5813,1.5454,1.4991,0.0,0.0,0.0,0.0,0.0,0.0,0.0,0.0,0.0,0.0,0.0,0.0,0.0,0.0,0.0,0.0,0.0,0.0,0.0,0.0,0.0,0.0,0.0,0.0,0.0,0.0,0.0,0.0,0.0,0.0,0.0,0.0,0.0,0.0,0.0,0.0,0.0,0.0,0.0,0.0,0.0,0.0,0.0,0.0,0.0,0.0,0.0,0.0,0.0,0.0,0.0,0.0,0.0,0.0,0.0,0.0,0.0,0.0,0.0,0.0,0.0,0.0,0.0,0.0,0.0,0.0,0.0,0.0,0.0,0.0,0.0,0.0,0.0,0.0,0.0,0.0,0.0,0.0,0.0,0.0,0.0,0.0,0.0,0.0,0.0,0.0,0.0,0.0,0.0,0.0,0.0,0.0,0.0,0.0,0.0,0.0,0.0,0.0,0.0,0.0,0.0,0.0,0.0,0.0,0.0,0.0,0.0,0.0,0.0,1.2224,1.2758,1.4069,1.6135,1.5625,1.5459,0.0,0.0,0.0,0.0,0.0,0.0,0.0,0.0,0.0,0.0,0.0,0.0,0.0,0.0,0.0,0.0,0.0,0.0,0.0,0.0,0.0,0.0,0.0,0.0,0.0,0.0,0.0,0.0,0.0,0.0,0.0,0.0,0.0,0.0,0.0,0.0,0.0,0.0,0.0,0.0,0.0,0.0,0.0,0.0,0.0,0.0,0.0,0.0,0.0,0.0,0.0,0.0,0.0,0.0,0.0,0.0,0.0,0.0,0.0,0.0,0.0,0.0,0.0,0.0,0.0,0.0,0.0,0.0,0.0,0.0,0.0,0.0,0.0,0.0,0.0,0.0,0.0,0.0,0.0,0.0,0.0,0.0,0.0,0.0,0.0,0.0,0.0,0.0,0.0,0.0,0.0,0.0,0.0,0.0,0.0,0.0,0.0,0.0,0.0,0.0,0.0,0.0,0.0,0.0,0.0,0.0,0.0,0.0,0.0,1.3969,1.2807,1.3433,1.6135,1.6197,1.6409,0.0,0.0,0.0,0.0,0.0,0.0,0.0,0.0,0.0,0.0,0.0,0.0,0.0,0.0,0.0,0.0,0.0,0.0,0.0,0.0,0.0,0.0,0.0,0.0,0.0,0.0,0.0,0.0,0.0,0.0,0.0,0.0,0.0,0.0,0.0,0.0,0.0,0.0,0.0,0.0,0.0,0.0,0.0,0.0,0.0,0.0,0.0,0.0,0.0,0.0,0.0,0.0,0.0,0.0,0.0,0.0,0.0,0.0,0.0,0.0,0.0,0.0,0.0,0.0,0.0,0.0,0.0,0.0,0.0,0.0,0.0,0.0,0.0,0.0,0.0,0.0,0.0,0.0,0.0,0.0,0.0,0.0,0.0,0.0,0.0,0.0,0.0,0.0,0.0,0.0,0.0,0.0,0.0,0.0,0.0,0.0,0.0,0.0,0.0,0.0,0.0,0.0,0.0,0.0,0.0,0.0,0.0,0.0,0.0,0.0,1.2113,1.2704,1.3334,1.5401,1.6133,1.5309,0.0,0.0,0.0,0.0,0.0,0.0,0.0,0.0,0.0,0.0,0.0,0.0,0.0,0.0,0.0,0.0,0.0,0.0,0.0,0.0,0.0,0.0,0.0,0.0,0.0,0.0,0.0,0.0,0.0,0.0,0.0,0.0,0.0,0.0,0.0,0.0,0.0,0.0,0.0,0.0,0.0,0.0,0.0,0.0,0.0,0.0,0.0,0.0,0.0,0.0,0.0,0.0,0.0,0.0,0.0,0.0,0.0,0.0,0.0,0.0,0.0,0.0,0.0,0.0,0.0,0.0,0.0,0.0,0.0,0.0,0.0,0.0,0.0,0.0,0.0,0.0,0.0,0.0,0.0,0.0,0.0,0.0,0.0,0.0,0.0,0.0,0.0,0.0,0.0,0.0,0.0,0.0,0.0,0.0,0.0,0.0,0.0,0.0,0.0,0.0,0.0,0.0,0.0,0.0,0.0,0.0,0.0,0.0,0.0,0.0,1.2532,1.3283,1.5431,1.6296,0.0,0.0,0.0,0.0,0.0,0.0,0.0,0.0,0.0,0.0,0.0,0.0,0.0,0.0,0.0,0.0,0.0,0.0,0.0,0.0,0.0,0.0,0.0,0.0,0.0,0.0,0.0,0.0,0.0,0.0,0.0,0.0,0.0,0.0,0.0,0.0,0.0,0.0,0.0,0.0,0.0,0.0,0.0,0.0,0.0,0.0,0.0,0.0,0.0,0.0,0.0,0.0,0.0,0.0,0.0,0.0,0.0,0.0,0.0,0.0,0.0,0.0,0.0,0.0,0.0,0.0,0.0,0.0,0.0,0.0,0.0,0.0,0.0,0.0,0.0,0.0,0.0,0.0,0.0,0.0,0.0,0.0,0.0,0.0,0.0,0.0,0.0,0.0,0.0,0.0,0.0,0.0,0.0,0.0,0.0,0.0,0.0,0.0,0.0,0.0,0.0,0.0,0.0,0.0,0.0,0.0,0.0,0.0,0.0,0.0,0.0,1.2707,1.4868,1.5839,0.0,1.7106,0.0,0.0,0.0,0.0,0.0,0.0,0.0,0.0,0.0,0.0,0.0,0.0,0.0,0.0,0.0,0.0,0.0,0.0,0.0,0.0,0.0,0.0,0.0,0.0,0.0,0.0,0.0,0.0,0.0,0.0,0.0,0.0,0.0,0.0,0.0,0.0,0.0,0.0,0.0,0.0,0.0,0.0,0.0,0.0,0.0,0.0,0.0,0.0,0.0,0.0,0.0,0.0,0.0,0.0,0.0,0.0,0.0,0.0,0.0,0.0,0.0,0.0,0.0,0.0,0.0,0.0,0.0,0.0,0.0,0.0,0.0,0.0,0.0,0.0,0.0,0.0,0.0,0.0,0.0,0.0,0.0,0.0,0.0,0.0,0.0,0.0,0.0,0.0,0.0,0.0,0.0,0.0,0.0,0.0,0.0,0.0,0.0,0.0,0.0,0.0,0.0,0.0,0.0,0.0,0.0,0.0,0.0,0.0,0.0,0.0,0.0,0.0,1.5248,1.6078,1.5566,0.0,0.0,0.0,0.0,0.0,0.0,0.0,0.0,0.0,0.0,0.0,0.0,0.0,0.0,0.0,0.0,0.0,0.0,0.0,0.0,0.0,0.0,0.0,0.0,0.0,0.0,0.0,0.0,0.0,0.0,0.0,0.0,0.0,0.0,0.0,0.0,0.0,0.0,0.0,0.0,0.0,0.0,0.0,0.0,0.0,0.0,0.0,0.0,0.0,0.0,0.0,0.0,0.0,0.0,0.0,0.0,0.0,0.0,0.0,0.0,0.0,0.0,0.0,0.0,0.0,0.0,0.0,0.0,0.0,0.0,0.0,0.0,0.0,0.0,0.0,0.0,0.0,0.0,0.0,0.0,0.0,0.0,0.0,0.0,0.0,0.0,0.0,0.0,0.0,0.0,0.0,0.0,0.0,0.0,0.0,0.0,0.0,0.0,0.0,0.0,0.0,0.0,0.0,0.0,0.0,0.0,0.0,0.0,0.0,0.0,1.4016,1.3217,1.5239,1.6252,1.6119,0.0,0.0,0.0,0.0,0.0,0.0,0.0,0.0,0.0,0.0,0.0,0.0,0.0,0.0,0.0,0.0,0.0,0.0,0.0,0.0,0.0,0.0,0.0,0.0,0.0,0.0,0.0,0.0,0.0,0.0,0.0,0.0,0.0,0.0,0.0,0.0,0.0,0.0,0.0,0.0,0.0,0.0,0.0,0.0,0.0,0.0,0.0,0.0,0.0,0.0,0.0,0.0,0.0,0.0,0.0,0.0,0.0,0.0,0.0,0.0,0.0,0.0,0.0,0.0,0.0,0.0,0.0,0.0,0.0,0.0,0.0,0.0,0.0,0.0,0.0,0.0,0.0,0.0,0.0,0.0,0.0,0.0,0.0,0.0,0.0,0.0,0.0,0.0,0.0,0.0,0.0,0.0,0.0,0.0,0.0,0.0,0.0,0.0,0.0,0.0,0.0,0.0,0.0,0.0,0.0,0.0,0.0,0.0,0.0,0.0,0.0,0.0,0.0,0.0,1.7334,0.0,0.0,0.0,0.0,0.0,0.0,0.0,0.0,0.0,0.0,0.0,0.0,0.0,0.0,0.0,0.0,0.0,0.0,0.0,0.0,0.0,0.0,0.0,0.0,0.0,0.0,0.0,0.0,0.0,0.0,0.0,0.0,0.0,0.0,0.0,0.0,0.0,0.0,0.0,0.0,0.0,0.0,0.0,0.0,0.0,0.0,0.0,0.0,0.0,0.0,0.0,0.0,0.0,0.0,0.0,0.0,0.0,0.0,0.0,0.0,0.0,0.0,0.0,0.0,0.0,0.0,0.0,0.0,0.0,0.0,0.0,0.0,0.0,0.0,0.0,0.0,0.0,0.0,0.0,0.0,0.0,0.0,0.0,0.0,0.0,0.0,0.0,0.0,0.0,0.0,0.0,0.0,0.0,0.0,0.0,0.0,0.0,0.0,0.0,0.0,0.0,0.0,0.0,0.0,0.0,0.0,0.0,0.0,0.0,0.0,0.0,0.0,0.0,0.0,0.0,0.0,0.0,0.0,0.0,0.0,0.0,0.0,0.0,0.0,0.0,0.0,0.0,0.0,0.0,0.0,0.0,0.0,0.0,0.0,0.0,0.0,0.0,0.0,0.0,0.0,0.0,0.0,0.0,0.0,0.0,0.0,0.0,0.0,0.0,0.0,0.0,0.0,0.0,0.0,0.0,0.0,0.0,0.0,0.0,0.0,0.0,0.0,0.0,0.0,0.0,0.0,0.0,0.0,0.0,0.0,0.0,0.0,0.0,0.0,0.0,0.0,0.0,0.0,0.0,0.0,0.0,0.0,0.0,0.0,0.0,0.0,0.0,0.0,0.0,0.0,0.0,0.0,0.0,0.0,0.0,0.0,0.0,0.0,0.0,0.0,0.0,0.0,0.0,0.0,0.0,0.0,0.0,0.0,0.0,0.0,0.0,0.0,0.0,0.0,0.0,0.0,0.0,0.0,0.0,0.0,0.0,0.0,0.0,0.0,0.0,0.0,0.0,0.0,0.0,0.0,0.0,0.0,0.0,0.0,0.0,0.0,0.0,0.0,0.0,0.0,0.0,0.0,0.0,0.0,0.0,0.0,0.0,0.0,0.0,0.0,0.0,0.0,0.0,0.0,0.0,0.0,0.0,0.0,0.0,0.0,0.0,0.0,0.0,0.0,0.0,0.0,0.0,0.0,0.0,0.0,0.0,0.0,0.0,0.0,0.0,0.0,0.0,0.0,0.0,0.0,0.0,0.0,0.0,0.0,0.0,0.0,0.0,0.0,0.0,0.0,0.0,0.0,0.0,0.0,0.0,0.0,0.0,0.0,0.0,0.0,0.0,0.0,0.0,0.0,0.0,0.0,0.0,0.0,0.0,0.0,0.0,0.0,0.0,0.0,0.0,0.0,0.0,0.0,0.0,0.0,0.0,0.0,0.0,0.0,0.0,0.0,0.0,0.0,0.0,0.0,0.0,0.0,0.0,0.0,0.0,0.0,0.0,0.0,0.0,0.0,0.0,0.0,0.0,0.0,0.0,0.0,0.0,0.0,0.0,0.0,0.0,0.0,0.0,0.0,0.0,0.0,0.0,0.0,0.0,0.0,0.0,0.0,0.0,0.0,0.0,0.0,0.0,0.0,0.0,0.0,0.0,0.0,0.0,0.0,0.0,0.0,0.0,0.0,0.0,0.0,0.0,0.0,0.0,0.0,0.0,0.0,0.0,0.0,0.0,0.0,0.0,0.0,0.0,0.0,0.0,0.0,0.0,0.0,0.0,0.0,0.0,0.0,0.0,0.0,0.0,0.0,0.0,0.0,0.0,0.0,0.0,0.0,0.0,0.0,0.0,0.0,0.0,0.0,0.0,0.0,0.0,0.0,0.0,0.0,0.0,0.0,0.0,0.0,0.0,0.0,0.0,0.0,0.0,0.0,0.0,0.0,0.0,0.0,0.0,0.0,0.0,0.0,0.0,0.0,0.0,0.0,0.0,0.0,0.0,0.0,0.0,0.0,0.0,0.0,0.0,0.0,0.0,0.0,0.0,0.0,0.0,0.0,0.0,0.0,0.0,0.0,0.0,0.0,0.0,0.0,0.0,0.0,0.0,0.0,0.0,0.0,0.0,0.0,0.0,0.0,0.0,0.0,0.0,0.0,0.0,0.0,0.0,0.0,0.0,0.0,0.0,0.0,0.0,0.0,0.0,0.0,0.0,0.0,0.0,0.0,0.0,0.0,0.0,0.0,0.0,0.0,0.0,0.0,0.0,0.0,0.0,0.0,0.0,0.0,0.0,0.0,0.0,0.0,0.0,0.0,0.0,0.0,0.0,0.0,0.0,0.0,0.0,0.0,0.0,0.0,0.0,0.0,0.0,0.0,0.0,0.0,0.0,0.0,0.0,0.0,0.0,0.0,0.0,0.0,0.0,0.0,0.0,0.0,0.0,0.0,0.0,0.0,0.0,0.0,0.0,0.0,0.0,0.0,0.0,0.0,0.0,0.0,0.0,0.0,0.0,0.0,0.0,0.0,0.0,0.0,0.0,0.0,0.0,0.0,0.0,0.0,0.0,0.0,0.0,0.0,0.0,0.0,0.0,0.0,0.0,0.0,0.0,0.0,0.0,0.0,0.0,0.0,0.0,0.0,0.0,0.0,0.0,0.0,0.0,0.0,0.0,0.0,0.0,0.0,0.0,0.0,0.0,0.0,0.0,0.0,0.0,0.0,0.0,0.0,0.0,0.0,0.0,0.0,0.0,0.0,0.0,0.0,0.0,0.0,0.0,0.0,0.0,0.0,0.0,0.0,0.0,0.0,0.0,0.0,0.0,0.0,0.0,0.0,0.0,0.0,0.0,0.0,0.0,0.0,0.0,0.0,0.0,0.0,0.0,0.0,0.0,0.0,0.0,0.0,0.0,0.0,0.0,0.0,0.0,0.0,0.0,0.0,0.0,0.0,0.0,0.0,0.0,0.0,0.0,0.0,0.0,0.0,0.0,0.0,0.0,0.0,0.0,0.0,0.0,0.0,0.0,0.0,0.0,0.0,0.0,0.0,0.0,0.0,0.0,0.0,0.0,0.0,0.0,0.0,0.0,0.0,0.0,0.0,0.0,0.0,0.0,0.0,0.0,0.0,0.0,0.0,0.0,0.0,0.0,0.0,0.0,0.0,0.0,0.0,0.0,0.0,0.0,0.0,0.0,0.0,0.0,0.0,0.0,0.0,0.0,0.0,0.0,0.0,0.0,0.0,0.0,0.0,0.0,0.0,0.0,0.0,0.0,0.0,0.0,0.0,0.0,0.0,0.0,0.0,0.0,0.0,0.0,0.0,0.0,0.0,0.0,0.0,0.0,0.0,0.0,0.0,0.0,0.0,0.0,0.0,0.0,0.0,0.0,0.0,0.0,0.0,0.0,0.0,0.0,0.0,0.0,0.0,0.0,0.0,0.0,0.0,0.0,0.0,0.0,0.0,0.0,0.0,0.0,0.0,0.0,0.0,0.0,0.0,0.0,0.0,0.0,0.0,0.0,0.0,0.0,0.0,0.0,0.0,0.0,0.0,0.0,0.0,0.0,0.0,0.0,0.0,0.0,0.0,0.0,0.0,0.0,0.0,0.0,0.0,0.0,0.0,0.0,0.0,0.0,0.0,0.0,0.0,0.0,0.0,0.0,0.0,0.0,0.0,0.0,0.0,0.0,0.0,0.0,0.0,0.0,0.0,0.0,0.0,0.0,0.0,0.0,0.0,0.0,0.0,0.0,0.0,0.0,0.0,0.0,0.0,0.0,0.0,0.0,0.0,0.0,0.0,0.0,0.0,0.0,0.0,0.0,0.0,0.0,0.0,0.0,0.0,0.0,0.0,0.0,0.0,0.0,0.0,0.0,0.0,0.0,0.0,0.0,0.0,0.0,0.0,0.0,0.0,0.0,0.0,0.0,0.0,0.0,0.0,0.0,0.0,0.0,0.0,0.0,0.0,0.0,0.0,0.0,0.0,0.0,0.0,0.0,0.0,0.0,0.0,0.0,0.0,0.0,0.0,0.0,0.0,0.0,0.0,0.0,0.0,0.0,0.0,0.0,0.0,0.0,0.0,0.0,0.0,0.0,0.0,0.0,0.0,0.0,0.0,0.0,0.0,0.0,0.0,0.0,0.0,0.0,0.0,0.0,0.0,0.0,0.0,0.0,0.0,0.0,0.0,0.0,0.0,0.0,0.0,0.0,0.0,0.0,0.0,0.0,0.0,0.0,0.0,0.0,0.0,0.0,0.0,0.0,0.0,0.0,0.0,0.0,0.0,0.0,0.0,0.0,0.0,0.0,0.0,0.0,0.0,0.0,0.0,0.0,0.0,0.0,0.0,0.0,0.0,0.0,0.0,0.0,0.0,0.0,0.0]}]]]